GFSMA_700_spd_003.txt.gz
Wind_Speed
20 21 21 21 21 21 21 19 18 19 18 19 20 20 20 23 26 27 28 28 28 29 29 29 28 27 26 26 26 26 25 25 24 23 24 25 25 25 26 26 25 25 26
24 24 25 24 23 23 23 22 21 21 20 19 21 23 24 24 25 27 29 30 31 31 32 33 33 33 32 31 31 30 30 29 29 28 27 27 28 27 27 27 28 28 28
23 24 25 25 24 23 23 23 23 23 22 24 23 25 26 27 28 29 30 31 32 33 34 36 36 37 36 36 35 35 35 34 33 34 32 31 31 30 30 29 30 31 29
24 26 26 25 24 24 24 24 24 25 24 25 26 27 28 28 29 29 30 32 33 32 33 35 38 39 40 40 40 40 40 39 38 36 36 35 33 33 32 30 31 31 29
30 31 33 32 27 28 29 31 29 28 27 28 29 30 29 29 29 30 29 29 31 32 33 33 36 37 41 42 43 44 44 43 42 41 39 38 35 35 34 32 32 31 30
32 34 34 33 34 32 32 34 34 33 33 31 32 32 29 28 28 28 27 28 29 31 32 33 34 35 37 41 44 46 46 45 46 44 42 39 37 36 34 32 33 31 30
33 35 36 36 35 35 35 36 37 35 33 33 37 36 35 31 28 29 30 31 30 30 32 33 32 34 35 37 41 43 45 48 47 45 42 37 37 36 34 33 33 31 29
32 34 34 34 35 36 37 37 37 39 39 36 38 41 42 35 32 31 34 33 31 31 30 31 33 35 35 35 35 38 40 42 44 43 39 35 38 35 35 34 32 31 30
30 32 33 35 37 39 40 38 38 39 40 38 38 42 44 42 37 33 35 35 35 32 31 31 32 33 36 37 36 36 36 37 38 38 35 35 39 36 35 33 34 31 31
33 33 34 37 39 41 40 39 39 39 40 41 40 39 40 39 42 43 35 36 37 34 33 32 32 33 35 38 38 36 34 36 35 36 37 34 37 36 34 34 34 32 33
32 33 35 36 37 38 38 38 38 40 40 40 40 37 37 38 39 44 49 36 39 35 34 33 32 34 35 37 38 36 35 36 35 35 35 34 35 36 35 33 34 34 33
29 31 33 34 35 35 36 36 36 37 37 38 39 37 38 40 39 44 48 47 43 34 37 35 34 34 36 37 36 38 37 35 35 34 35 36 35 38 34 34 35 34 33
33 33 35 35 34 34 34 35 35 36 35 37 39 40 42 44 42 44 47 47 47 41 41 41 36 37 36 36 36 32 34 33 35 34 36 36 36 35 35 35 35 35 36
34 35 36 36 37 38 39 40 41 41 40 41 43 44 45 46 46 46 49 51 53 50 46 42 40 40 36 36 36 32 35 34 33 31 34 36 35 36 34 35 35 36 37
36 37 38 38 38 38 38 38 41 43 45 44 44 45 45 45 45 46 48 49 51 56 55 48 44 42 41 40 35 30 33 37 32 31 32 36 36 38 35 36 37 37 37
37 39 40 41 43 44 44 45 46 46 46 46 47 48 48 48 48 49 50 54 52 52 57 53 50 52 51 49 43 36 35 38 35 37 37 36 36 39 39 41 37 40 39
39 40 41 43 44 44 45 46 45 46 48 49 48 48 49 47 48 48 48 49 52 52 57 61 59 58 56 54 47 41 34 34 35 38 45 39 39 39 38 42 39 42 42
41 41 40 41 42 43 43 43 43 43 45 47 49 51 51 51 50 50 49 50 53 54 54 58 57 54 55 50 46 44 40 35 36 38 46 50 47 42 40 39 40 41 39
42 39 38 39 40 40 41 41 42 43 43 44 46 48 49 48 48 48 49 50 49 49 52 54 57 54 52 54 50 49 44 43 44 47 46 50 51 42 40 41 42 41 42
43 42 41 39 37 36 36 38 40 42 44 46 47 47 46 44 45 46 47 48 49 50 50 52 54 54 55 57 56 54 50 50 48 49 52 47 46 49 42 42 40 45 39
43 42 41 40 39 37 36 35 35 39 41 43 44 45 43 43 44 44 44 45 47 50 51 51 53 53 52 58 64 54 46 53 56 55 55 56 41 52 51 41 46 39 35
43 43 43 44 44 43 41 37 36 41 42 43 42 43 42 41 41 42 44 43 45 47 50 52 52 54 54 60 48 43 53 66 60 52 54 52 49 51 37 40 38 40 37
46 46 46 47 47 46 42 38 36 40 43 41 40 40 40 40 40 41 42 44 46 47 49 51 55 54 53 50 52 53 60 55 46 54 49 47 47 44 41 37 41 35 30
48 49 50 49 48 46 39 34 34 40 43 43 41 39 40 40 40 42 42 43 43 46 49 49 51 54 53 52 48 54 56 48 53 51 49 46 41 37 33 34 35 28 30
51 52 53 52 50 46 37 38 38 41 43 43 41 39 40 41 40 41 43 44 45 45 44 47 46 49 46 49 50 51 56 55 52 56 48 42 36 35 38 32 29 26 32
53 55 55 52 49 46 43 43 40 41 43 44 43 39 39 40 40 39 41 44 46 42 42 42 42 43 39 40 45 39 46 51 44 42 39 37 39 31 27 27 22 28 29

GFSMA_700_spd_006.txt.gz
Wind_Speed
16 17 19 20 21 20 20 19 18 19 19 20 19 19 18 18 20 21 22 22 22 25 27 28 29 29 29 29 28 28 28 28 27 27 27 26 26 26 26 26 26 27 29
18 18 17 17 18 18 18 18 18 19 20 21 21 22 22 21 23 24 25 25 25 25 26 28 30 32 33 33 33 33 33 33 32 31 30 30 30 29 29 30 30 29 32
21 21 20 20 23 22 20 19 20 20 20 22 22 23 24 24 25 25 26 26 27 27 27 28 30 33 34 36 37 37 37 38 37 36 36 35 34 33 33 34 33 33 32
22 23 23 24 26 28 30 28 25 26 26 27 26 25 26 26 26 25 25 26 26 27 28 29 31 33 35 36 37 39 41 43 42 41 40 40 39 38 36 37 36 36 34
27 29 30 31 32 33 33 32 30 30 30 30 30 29 28 29 27 27 25 24 24 25 27 28 30 32 34 36 38 40 43 45 46 46 45 44 43 42 41 39 38 37 36
31 34 35 34 34 33 32 32 33 34 35 35 35 34 33 31 31 30 27 26 25 26 26 27 28 30 33 36 39 41 43 45 48 49 48 48 47 44 43 41 40 36 38
27 31 33 33 34 34 32 33 35 36 36 37 40 39 38 36 34 32 32 29 29 28 27 27 27 28 29 32 35 38 40 43 46 48 48 49 50 47 44 42 39 37 39
28 29 31 32 33 34 34 35 38 39 41 39 43 45 47 41 36 32 34 34 32 33 30 29 29 29 29 31 31 33 37 40 42 44 45 47 48 46 43 41 38 36 36
31 33 35 36 37 38 38 40 42 43 45 41 41 43 48 51 46 37 35 36 36 35 33 32 32 31 31 33 31 30 32 37 42 44 44 45 44 41 41 40 37 37 37
31 33 34 36 36 38 40 41 43 43 43 43 41 42 45 47 47 50 40 37 38 37 37 37 37 33 33 35 33 33 32 33 38 42 44 44 43 43 42 42 39 37 35
32 34 36 36 38 39 40 40 40 41 42 44 43 42 44 46 45 48 51 42 42 39 41 41 39 37 36 37 35 34 31 33 35 40 43 43 43 43 42 41 38 37 38
32 34 35 37 38 40 41 43 43 43 42 40 43 42 43 46 46 48 52 52 52 46 44 44 43 40 37 37 39 38 36 33 33 37 41 42 44 45 43 40 40 40 38
35 37 39 40 41 42 42 43 43 42 42 41 41 44 45 45 46 47 52 56 57 57 55 50 47 44 41 38 40 41 40 40 38 37 39 44 43 43 43 42 42 40 39
37 38 40 41 42 43 44 45 47 47 47 48 47 46 48 49 50 50 51 49 56 57 57 59 55 53 49 53 51 46 46 45 40 39 39 40 44 44 44 41 42 43 43
38 39 40 42 43 44 46 48 49 49 49 50 51 52 52 53 53 53 54 54 55 61 62 61 61 57 54 50 47 49 50 48 49 47 44 37 41 44 42 40 41 43 43
42 42 42 43 43 44 46 48 49 49 50 50 51 51 52 54 55 56 56 56 55 56 64 61 61 57 54 52 49 49 52 56 52 48 50 46 44 46 45 43 44 44 44
45 45 45 45 44 44 44 46 48 49 48 49 48 48 48 49 50 52 53 55 57 56 59 64 60 57 56 56 55 52 52 52 52 49 50 53 49 49 50 48 46 47 48
46 45 45 44 43 43 43 44 45 46 48 49 49 50 50 50 49 47 47 50 52 53 55 60 60 61 59 57 55 54 52 51 51 52 50 51 50 46 50 55 48 54 53
44 44 44 44 44 43 43 41 42 43 44 46 47 49 50 52 51 50 49 49 49 49 49 52 57 57 59 58 59 59 56 55 53 52 44 46 52 47 51 56 50 53 61
43 43 42 42 42 41 42 42 42 44 44 45 46 49 51 52 54 54 53 52 51 50 50 47 48 52 54 54 57 59 59 56 53 57 56 48 58 56 52 57 53 50 58
41 41 42 41 42 42 43 43 43 43 44 45 46 49 51 51 52 52 53 54 53 53 53 51 52 49 45 49 53 55 54 52 54 52 48 46 50 52 63 61 48 51 60
42 43 44 44 44 44 43 41 42 47 48 49 50 50 48 48 49 50 50 50 49 52 53 52 52 53 55 57 56 54 55 54 55 51 52 51 43 46 48 57 56 45 51
46 47 48 49 49 48 46 45 47 48 48 49 50 51 50 47 47 48 49 49 48 48 48 50 52 52 54 54 52 50 51 52 53 47 50 52 48 47 44 53 55 54 53
49 50 51 51 52 51 49 48 45 45 47 49 51 49 50 53 47 46 48 49 47 46 44 46 47 50 49 51 50 49 48 53 49 48 51 46 36 41 43 43 45 43 48
52 53 53 53 53 53 51 48 44 46 47 47 49 49 51 51 48 44 47 49 49 44 42 43 44 44 45 44 44 45 46 48 46 49 50 43 40 43 44 43 37 39 38
54 54 54 53 53 53 51 48 45 45 46 46 45 44 46 47 45 43 43 46 47 42 42 41 39 41 42 42 42 40 43 43 50 50 37 43 39 31 41 41 34 35 30

GFSMA_700_spd_012.txt.gz
Wind_Speed
10 10 10 10 12 14 15 15 15 16 17 19 19 19 20 21 22 24 25 25 26 25 25 26 28 30 31 31 32 32 32 32 33 33 33 32 31 31 30 29 28 27 27
13 14 14 14 14 17 19 20 21 23 24 25 24 24 25 25 26 26 27 27 29 29 30 30 30 31 33 33 34 34 34 35 37 37 38 38 37 37 36 35 34 33 32
19 21 21 22 22 24 26 28 29 30 31 32 32 33 31 31 30 30 32 32 32 32 33 33 33 33 34 35 37 38 37 38 38 39 41 41 42 42 42 41 40 39 38
24 26 28 28 29 30 32 33 34 34 34 34 35 34 35 35 34 35 36 35 36 36 36 36 37 37 36 37 38 39 39 41 42 42 43 43 44 45 45 45 45 45 44
26 29 30 30 30 30 30 33 34 36 36 36 38 37 38 37 37 37 37 39 40 40 39 39 40 41 41 41 41 40 40 42 43 44 45 45 46 46 46 47 47 47 47
25 28 31 32 32 32 32 34 35 36 39 40 43 43 43 42 41 41 42 43 43 44 44 44 44 45 45 45 45 44 42 42 42 43 44 45 45 46 48 47 47 48 48
24 26 28 29 32 34 35 38 40 41 41 43 48 48 49 47 47 47 47 46 46 46 48 48 48 48 48 49 48 46 44 44 44 44 44 43 44 45 46 47 47 46 45
26 28 30 32 34 35 36 38 41 43 44 42 47 51 55 53 50 49 47 45 44 42 44 46 49 49 50 50 49 47 46 46 46 47 46 45 45 44 44 45 45 44 47
28 30 32 34 36 38 39 40 42 44 46 44 44 48 53 56 54 54 49 47 48 48 44 43 43 45 48 50 51 51 49 46 45 46 46 47 47 45 45 44 43 41 43
28 31 33 35 37 39 41 42 43 45 47 50 49 48 50 52 51 58 55 51 49 49 47 47 46 44 43 45 47 49 49 47 48 48 47 46 48 47 46 44 45 42 43
30 32 34 36 38 40 42 45 45 46 48 51 52 53 52 52 52 55 64 60 57 56 56 52 52 48 46 48 48 48 47 46 46 47 47 44 47 47 46 46 45 44 41
30 33 36 38 41 43 44 46 47 47 49 50 51 53 54 57 58 58 61 63 64 62 59 58 57 57 57 57 54 50 47 55 56 53 49 44 43 42 43 43 42 43 43
35 38 40 42 44 45 46 47 48 49 50 52 54 55 55 56 56 58 61 64 65 65 63 61 61 60 59 59 58 55 54 53 55 53 58 58 62 59 53 50 52 55 50
43 45 46 46 46 47 48 49 50 51 52 53 55 55 56 56 55 54 55 58 62 63 63 62 58 57 56 55 54 53 53 52 52 53 53 55 52 57 65 64 58 56 51
48 50 50 49 48 48 49 49 50 50 51 52 53 53 54 54 54 54 52 52 54 59 61 58 61 58 57 55 55 56 58 56 53 51 52 51 52 55 53 62 61 63 49
52 52 50 49 49 47 47 47 47 47 49 49 50 50 51 51 51 51 52 52 52 54 57 54 53 55 56 58 58 58 57 56 57 55 54 53 53 52 51 54 56 61 61
51 50 49 47 46 46 46 47 48 49 50 50 50 51 50 51 51 51 51 52 53 54 53 55 54 53 53 54 54 56 57 57 56 54 50 48 53 53 52 50 48 48 51
47 47 45 45 46 46 47 48 49 51 52 54 54 55 54 54 54 54 54 55 56 56 57 62 58 58 59 58 58 59 57 55 54 54 46 41 43 49 50 50 50 50 50
46 45 46 46 47 48 50 52 54 55 56 57 56 55 54 54 55 55 55 55 57 59 60 61 64 62 62 62 63 61 60 58 54 53 50 45 43 44 45 46 46 47 48
46 46 46 48 50 52 54 57 58 58 58 57 56 54 53 53 53 55 56 56 58 61 62 64 65 64 64 63 65 65 64 58 57 52 51 48 45 47 43 39 42 41 39
46 47 49 51 53 56 59 61 61 59 58 58 56 55 54 52 53 54 56 57 57 59 60 62 63 64 62 62 63 62 61 60 56 52 51 47 46 45 45 44 44 43 43
47 50 52 56 59 60 60 59 57 58 57 55 55 54 54 53 53 53 52 52 53 53 55 54 55 56 57 55 55 55 54 54 59 49 48 48 44 45 43 37 36 38 43
50 53 56 60 61 60 59 58 55 54 54 55 55 55 54 53 52 53 52 51 49 47 45 46 50 49 50 46 46 48 45 47 49 45 43 47 42 43 42 40 36 39 40
54 58 61 61 61 58 56 55 55 57 57 57 55 52 52 51 49 49 49 48 47 45 42 43 43 37 37 36 44 44 46 48 45 42 40 46 41 42 41 40 36 34 37
58 61 62 60 58 56 55 56 58 58 56 54 50 47 46 46 47 46 46 48 47 44 40 39 38 38 36 36 37 42 44 44 45 43 36 42 40 44 42 39 34 33 31
61 60 58 57 55 55 55 55 55 53 51 48 46 46 45 46 45 43 46 45 46 43 40 36 32 32 33 32 35 39 41 43 41 40 34 38 39 37 38 35 31 29 32

GFSMA_700_spd_015.txt.gz
Wind_Speed
10 11 13 14 15 17 18 19 20 21 22 23 23 24 25 27 28 29 29 29 30 31 32 32 33 34 34 35 35 35 35 36 37 37 37 36 36 35 34 34 33 32 31
16 18 19 20 21 24 25 26 27 28 29 31 30 31 32 33 34 35 35 34 33 33 35 36 36 37 37 37 38 38 38 39 39 39 40 41 41 40 40 39 38 37 36
22 25 26 27 28 30 31 32 32 33 34 36 35 35 36 36 37 38 39 39 37 36 37 39 40 41 41 41 41 41 41 41 41 41 42 43 43 44 44 44 44 43 43
25 26 27 29 31 32 34 35 35 35 35 37 38 37 37 37 37 38 39 38 39 40 40 41 42 43 45 45 45 44 43 43 43 44 45 45 47 46 45 45 45 45 46
24 25 27 29 31 32 34 36 36 38 38 38 40 39 40 40 40 39 40 41 43 44 44 44 45 46 48 49 49 48 48 47 46 46 46 47 47 47 49 50 49 48 48
23 25 26 27 28 28 30 32 34 36 38 39 41 41 41 41 41 40 40 42 44 46 48 50 50 51 50 51 52 51 50 50 50 49 49 48 48 48 48 48 49 50 50
23 24 26 27 28 29 31 33 35 37 37 40 45 46 46 45 45 45 45 45 45 45 45 44 44 47 49 50 52 53 53 52 51 51 51 50 50 49 48 48 47 47 47
23 24 25 27 29 30 32 35 39 41 41 42 47 50 54 52 50 50 49 48 48 48 47 47 44 45 45 46 48 47 49 52 53 53 53 52 52 50 48 49 49 47 46
23 24 27 29 32 35 37 39 41 44 46 44 45 49 55 57 58 55 54 54 52 51 50 50 49 49 46 45 44 44 42 44 48 51 53 55 55 55 54 52 50 49 48
24 26 29 32 35 38 40 42 43 45 48 50 48 45 47 53 59 68 61 60 57 56 54 53 53 54 54 53 52 48 44 44 44 46 49 51 53 54 55 54 54 53 51
28 30 33 36 38 41 43 45 46 46 48 51 52 55 55 54 54 58 68 65 62 60 58 57 56 54 55 58 57 55 54 53 51 46 46 51 52 51 51 51 51 54 53
31 34 38 41 42 44 46 47 47 48 49 50 52 53 55 57 57 56 59 63 63 62 60 59 57 56 54 52 54 57 55 55 54 53 55 57 49 42 43 49 48 50 51
35 39 42 44 46 46 46 45 45 45 46 47 47 49 49 50 51 53 55 59 60 60 59 57 56 55 52 50 48 48 49 49 49 49 50 51 55 56 51 56 54 49 49
40 45 47 45 43 43 43 44 44 45 46 48 48 49 51 51 52 53 54 55 59 59 58 55 53 52 53 52 51 51 51 51 52 51 51 53 52 53 56 55 53 66 68
46 45 43 42 43 44 44 45 45 45 45 47 47 48 49 50 51 53 53 53 51 52 59 53 56 53 53 52 51 51 50 49 50 51 51 51 52 54 55 56 55 55 66
49 46 42 42 42 43 44 45 45 45 47 49 50 52 53 54 55 55 54 53 52 51 55 57 57 58 57 54 52 52 51 50 49 49 52 51 51 49 51 53 56 57 59
47 42 42 43 44 44 44 46 48 51 53 55 57 58 58 57 56 55 55 55 54 53 55 61 58 60 61 60 59 56 55 55 54 54 53 52 51 49 50 50 51 53 55
44 43 43 43 44 45 47 51 54 56 59 61 61 61 59 58 57 56 55 56 58 58 59 61 62 62 63 63 63 63 60 58 59 57 57 56 51 47 46 46 48 47 50
42 42 43 44 46 49 52 55 58 61 61 61 60 59 57 56 55 54 53 54 56 57 59 58 61 62 63 63 63 62 61 60 60 61 61 59 57 48 44 44 44 46 47
42 43 44 47 50 52 56 58 61 61 60 59 57 55 53 52 53 53 53 54 55 56 56 56 56 58 59 59 58 59 60 57 59 60 62 59 56 49 44 43 45 47 45
43 45 47 50 52 55 58 60 60 60 59 57 55 53 52 51 50 48 48 48 48 48 45 44 49 50 51 51 50 48 51 51 51 51 53 52 50 43 42 41 42 46 47
44 47 50 53 55 56 58 58 58 59 57 56 55 53 52 49 45 42 41 42 41 37 39 41 42 48 48 45 43 41 35 38 40 37 40 43 35 34 33 36 36 37 43
47 50 52 54 56 58 59 59 58 59 57 55 53 51 47 42 41 42 43 43 42 42 43 45 46 45 46 44 41 36 37 44 41 41 40 42 31 32 30 30 29 31 35
50 52 54 56 58 59 60 59 57 56 54 52 48 44 41 41 42 43 43 42 43 42 41 40 42 44 44 39 38 40 41 42 42 37 39 44 31 30 26 28 27 30 33
51 52 55 58 58 58 58 55 54 54 52 48 43 41 39 42 43 42 35 48 47 41 39 38 38 38 35 32 31 33 33 36 40 36 39 41 30 29 25 21 21 24 28
52 53 56 57 57 57 53 51 50 49 46 43 43 42 40 41 43 37 45 50 47 41 40 38 35 31 29 27 27 29 33 38 39 41 35 33 28 29 26 22 22 22 23

GFSMA_700_spd_018.txt.gz
Wind_Speed
18 19 19 20 22 23 25 27 27 28 29 30 31 32 34 35 36 37 37 36 36 37 38 37 38 38 39 39 40 39 39 40 40 41 42 42 42 42 41 40 40 39 38
23 24 24 26 27 28 30 32 33 34 35 36 37 37 38 39 39 39 40 40 39 38 40 42 41 40 40 41 42 43 43 44 44 44 43 44 45 46 46 45 45 44 43
24 25 26 28 30 32 34 36 37 38 38 39 38 37 37 37 36 38 39 40 40 40 39 40 43 44 45 45 45 46 46 46 46 46 47 46 47 46 48 48 49 49 48
24 24 25 27 30 32 33 35 36 37 37 39 39 38 39 40 39 39 40 41 42 42 43 43 44 46 48 48 48 49 50 49 49 49 48 48 48 48 49 50 50 50 50
23 24 25 27 28 30 31 31 32 33 34 35 38 38 39 40 40 40 40 40 42 42 44 46 47 49 50 52 53 53 53 53 53 53 52 51 51 51 50 50 51 51 53
25 26 27 28 28 29 31 31 32 33 36 39 41 42 42 42 43 43 44 45 45 44 45 46 46 47 48 50 52 55 56 56 55 54 55 55 55 55 54 52 52 51 51
25 25 26 27 27 29 31 32 34 36 37 41 46 48 47 48 47 49 49 48 48 48 48 48 48 47 48 48 49 48 50 52 54 56 56 56 57 57 57 57 57 54 53
23 23 25 26 28 30 32 36 39 41 43 44 49 52 55 53 50 52 52 52 52 51 52 54 53 53 52 51 48 49 47 48 45 49 54 55 58 59 58 58 56 56 55
23 25 27 30 33 35 38 41 44 46 49 47 47 50 56 58 60 57 56 57 56 56 56 56 55 54 56 56 56 55 53 50 49 51 47 53 59 59 60 60 59 58 58
25 28 31 34 37 40 42 44 45 47 49 50 49 47 48 53 58 66 60 59 58 58 58 58 57 57 56 56 57 58 56 54 54 55 57 60 54 58 59 58 59 58 59
29 32 35 37 40 42 43 44 43 43 44 45 47 48 48 48 49 53 64 60 58 56 57 57 56 53 51 52 54 53 55 53 50 54 57 58 60 60 54 51 56 56 60
33 34 36 38 41 41 39 38 39 40 41 42 43 45 47 50 52 55 59 62 64 62 61 59 58 56 54 51 49 48 55 54 54 53 53 52 55 59 59 55 58 51 58
32 35 38 41 41 38 38 39 40 40 41 43 44 46 47 49 52 55 59 63 66 66 65 62 60 59 55 54 52 52 52 52 53 56 57 54 53 54 58 59 58 64 59
37 39 40 40 39 40 39 40 41 42 44 45 46 48 51 52 55 57 60 63 68 69 66 64 63 61 57 57 56 57 58 54 52 56 56 58 57 56 55 59 60 59 59
41 41 39 39 39 39 40 41 42 43 45 47 49 52 54 56 58 59 59 59 60 65 69 66 66 62 61 60 58 61 62 59 57 54 53 55 56 55 55 55 57 56 55
43 41 40 39 39 40 41 42 44 46 49 51 54 57 58 58 58 58 57 57 56 57 62 65 64 64 63 61 62 64 64 63 60 59 56 54 54 54 52 51 53 54 60
42 40 39 40 40 41 43 45 47 51 54 56 57 58 58 57 57 56 55 55 55 55 58 62 61 60 60 60 61 61 63 64 65 62 55 56 57 56 55 52 51 51 53
40 39 40 41 42 43 46 49 51 54 56 58 59 59 57 56 56 55 54 54 54 54 51 56 58 58 57 56 57 55 57 58 60 62 60 57 56 56 56 54 53 51 51
39 41 42 43 44 46 49 51 53 56 59 60 60 60 59 57 56 54 53 54 53 51 50 46 52 46 49 50 52 50 48 53 52 52 53 54 55 55 54 53 52 51 50
40 41 42 45 47 48 51 53 56 58 60 61 61 59 55 53 53 52 51 49 46 46 46 41 41 43 43 45 47 52 54 52 51 42 40 41 44 46 47 50 51 49 49
41 43 46 47 48 50 52 55 58 59 61 61 58 56 53 51 49 46 44 43 44 43 39 37 40 44 50 50 50 50 40 45 47 40 37 34 29 31 31 36 40 43 46
43 46 47 49 50 51 53 56 58 61 60 59 58 55 51 48 45 42 42 42 40 37 37 41 48 54 52 50 48 47 48 46 47 36 38 38 33 35 36 34 37 39 43
46 47 48 50 50 52 54 57 59 59 58 57 54 52 48 44 43 43 44 43 37 35 37 47 56 54 50 46 45 45 42 36 39 35 35 40 34 38 32 31 34 39 44
48 48 50 51 51 54 55 57 58 57 55 53 51 48 46 44 43 44 45 44 40 43 48 50 49 46 43 42 40 41 41 40 36 33 31 39 35 36 36 32 30 36 41
48 49 50 52 52 54 55 55 55 54 52 50 48 45 43 44 44 44 39 40 48 52 48 43 41 38 38 37 36 37 35 37 39 37 36 40 39 39 32 24 23 25 33
50 50 51 52 53 53 53 54 52 51 50 49 47 46 46 46 45 42 41 47 52 48 45 39 36 35 35 33 33 34 36 40 42 42 39 38 37 31 27 20 17 16 21

GFSMA_700_spd_021.txt.gz
Wind_Speed
22 23 24 25 26 27 28 28 29 31 32 33 34 35 36 36 37 37 36 37 37 35 35 37 39 39 39 39 39 39 40 41 42 42 42 43 43 43 44 44 44 44 42
22 24 25 27 28 29 30 31 32 34 35 36 36 37 37 37 37 38 39 38 38 37 36 37 40 41 42 41 42 43 43 43 44 44 44 45 45 45 46 47 47 47 47
22 24 25 27 29 30 30 32 32 34 34 35 35 35 36 36 36 38 39 40 41 41 41 40 41 43 43 44 45 46 47 47 47 47 48 49 49 48 48 49 49 49 49
23 24 25 27 29 30 32 32 33 34 35 36 38 37 37 37 38 39 40 41 42 42 43 44 43 43 44 47 48 49 50 51 51 51 51 51 52 53 53 51 51 51 51
25 26 28 30 32 33 34 34 35 35 36 37 40 40 40 40 41 42 42 43 43 45 46 45 45 46 46 47 47 49 51 52 53 54 54 54 55 56 56 56 55 54 53
27 28 31 32 33 33 34 34 36 36 38 40 43 44 45 45 45 45 45 46 44 44 46 47 48 49 48 49 48 49 49 50 51 52 54 55 57 58 58 58 59 58 57
27 28 30 30 31 32 34 36 38 40 42 44 48 49 48 48 46 46 49 46 48 48 50 50 48 48 44 39 48 48 49 47 48 51 52 53 53 56 59 61 61 61 62
25 26 28 29 31 33 36 39 42 44 45 45 49 51 52 49 47 45 46 47 47 49 48 48 49 49 50 52 53 54 55 53 54 54 54 52 53 50 55 58 62 63 64
25 27 29 32 35 38 40 42 44 45 46 44 43 45 49 52 53 50 49 49 49 49 51 51 51 51 51 51 50 50 50 54 56 55 58 59 61 61 62 56 59 56 63
27 30 34 36 38 40 41 41 43 42 42 42 41 40 41 46 51 60 55 52 51 51 51 52 53 53 54 54 53 52 52 53 54 56 57 54 59 59 65 67 67 64 60
32 34 36 36 37 39 40 41 39 38 39 41 42 44 45 46 46 51 61 59 58 57 56 57 57 56 56 56 55 55 53 53 56 57 55 57 59 62 61 62 64 57 52
35 33 35 37 38 38 38 37 37 38 40 41 42 43 46 49 51 54 58 61 63 63 62 62 62 62 60 58 57 59 57 55 56 58 60 58 62 59 63 65 62 62 72
34 36 37 38 38 37 37 37 38 39 40 41 42 44 46 49 52 56 60 64 68 68 68 66 65 63 62 59 59 59 58 59 59 57 60 62 63 62 63 63 62 62 64
37 39 39 38 37 36 37 39 40 41 43 44 46 48 50 52 55 57 60 64 70 70 69 68 65 63 61 60 60 57 60 58 60 63 63 64 60 59 60 62 65 68 68
41 41 40 38 39 39 40 41 42 43 45 46 48 51 53 55 57 58 59 59 61 70 74 70 68 62 60 59 55 54 53 53 54 59 62 63 63 62 58 58 60 62 66
43 42 40 39 39 39 40 41 43 45 47 49 51 53 55 57 59 59 60 59 58 57 66 67 65 62 59 58 54 51 52 52 51 52 53 55 60 62 58 59 59 58 58
43 41 39 39 39 40 41 44 46 47 50 52 53 56 57 59 60 59 58 57 57 54 56 62 59 57 53 52 53 50 48 48 49 47 47 48 49 52 51 56 58 57 56
42 40 40 40 41 43 46 48 48 50 52 54 56 58 59 59 59 58 57 56 55 53 51 50 52 49 51 52 50 49 50 48 49 49 49 50 51 49 48 48 53 56 54
41 41 41 42 44 46 48 48 49 51 53 55 57 58 59 59 58 56 54 53 51 48 44 44 50 50 49 45 47 49 52 55 53 49 48 48 46 45 42 42 45 49 50
41 42 42 44 46 48 48 49 51 53 54 56 57 58 58 57 55 53 51 49 46 44 45 45 47 46 43 44 47 56 58 52 51 49 48 47 45 45 41 37 36 37 43
42 43 45 47 49 49 50 51 53 54 55 56 57 57 56 55 53 50 46 46 44 44 47 46 45 46 44 49 57 60 56 53 51 49 46 41 39 38 36 39 36 36 35
43 46 49 50 49 49 50 52 53 55 55 56 57 57 55 53 50 47 46 46 41 41 43 44 47 49 53 57 58 54 51 51 54 43 42 42 37 35 33 37 38 38 38
47 49 49 49 49 49 51 52 53 54 55 56 55 54 53 50 48 49 49 48 45 40 38 45 49 57 61 58 51 48 47 48 48 43 42 41 34 34 31 32 30 33 35
48 49 48 49 51 51 52 53 53 53 53 53 52 52 51 51 50 48 45 47 45 45 48 52 52 56 52 45 42 44 46 47 46 41 39 44 39 39 39 37 34 32 32
48 48 48 50 52 52 52 52 52 52 53 52 51 51 51 51 50 46 44 47 54 53 47 44 43 42 38 37 38 41 42 44 46 44 39 44 43 43 43 38 28 24 25
47 48 50 52 53 52 51 51 51 52 53 52 52 51 50 49 47 42 45 52 52 47 45 42 38 36 37 37 37 38 41 44 46 51 43 46 44 42 43 30 18 13 17

GFSMA_700_spd_027.txt.gz
Wind_Speed
16 16 17 19 20 22 23 23 24 25 26 27 27 28 28 27 27 27 27 28 29 29 29 30 30 30 30 30 31 32 33 34 35 35 36 37 38 38 39 39 39 40 40
16 17 19 20 22 24 25 26 28 30 31 31 30 30 29 29 29 30 31 32 33 33 34 35 35 35 34 34 33 34 34 34 36 36 38 39 39 41 42 42 42 42 42
18 19 20 21 23 26 27 28 30 31 31 32 32 32 33 32 33 34 36 38 38 38 38 38 38 37 36 33 30 31 36 36 37 39 40 41 43 43 43 45 45 46 46
20 21 23 24 26 29 30 30 30 31 32 34 35 36 37 38 40 41 40 39 39 39 38 38 39 38 38 36 38 38 41 38 37 39 40 43 46 48 47 47 46 48 49
20 21 24 26 27 29 29 30 32 34 36 37 38 39 39 39 39 39 38 36 35 35 35 35 36 37 37 39 40 40 41 40 39 42 42 43 47 47 48 51 52 51 50
21 22 23 25 27 28 30 32 34 36 40 42 41 39 38 37 38 36 35 35 35 36 36 37 38 38 38 39 40 41 43 44 43 44 50 51 50 49 49 52 52 53 54
20 22 23 25 28 30 33 35 37 37 37 39 39 38 35 33 35 34 36 36 36 36 36 37 38 39 39 40 41 43 44 44 45 47 48 49 52 56 58 54 52 58 58
20 21 23 26 29 32 35 35 35 36 36 40 41 41 41 36 37 35 34 34 35 36 37 37 38 39 41 43 44 43 44 45 48 50 51 53 54 53 55 59 61 62 61
19 22 25 28 32 34 34 35 36 36 35 35 38 41 44 44 44 40 40 40 41 42 42 42 42 42 43 45 45 46 47 48 51 51 53 55 58 59 59 57 57 60 59
21 25 28 30 32 32 33 34 35 36 36 35 34 36 39 44 49 56 49 44 43 45 45 46 46 46 47 48 48 49 50 53 53 55 56 59 60 61 61 59 60 62 50
24 27 30 32 33 33 34 35 35 35 37 37 38 37 38 40 43 51 59 54 50 48 48 49 49 49 50 50 52 53 54 55 57 58 59 61 63 65 63 62 56 55 53
27 30 33 34 35 35 36 35 35 36 36 37 39 41 44 46 47 49 54 56 59 58 56 54 52 52 53 54 54 55 57 58 58 58 58 58 59 61 63 61 54 49 52
31 34 36 37 37 37 37 36 36 37 38 39 41 43 44 45 47 50 54 59 63 61 60 57 56 56 58 59 60 60 60 58 56 54 52 53 56 59 60 62 58 55 53
34 36 38 39 39 38 37 37 38 38 40 41 43 45 47 46 48 50 53 58 65 64 61 58 56 56 59 61 61 59 57 54 52 50 48 49 48 50 53 55 50 46 47
37 38 39 40 39 38 38 38 40 41 43 45 46 47 48 48 50 51 52 53 57 65 65 58 59 57 60 60 59 55 52 51 49 47 46 47 46 46 47 51 52 54 48
39 40 41 41 39 38 39 41 43 45 46 46 47 49 49 50 52 52 52 52 52 56 64 58 58 60 60 60 56 53 51 49 47 46 46 46 44 39 46 44 45 46 44
40 42 42 40 39 40 41 44 46 47 47 48 48 50 51 52 53 52 51 51 52 54 59 60 59 60 60 59 58 54 51 51 49 46 46 40 40 43 43 49 49 43 44
42 42 42 40 40 41 44 46 47 47 48 49 50 52 52 52 51 51 51 52 53 54 55 59 60 61 59 58 57 55 55 52 49 46 47 48 45 48 52 48 45 45 46
42 42 41 40 42 44 45 45 47 49 51 51 51 52 51 52 52 52 52 54 54 55 55 56 59 57 56 56 58 57 58 56 56 57 56 55 52 47 41 40 41 44 47
41 40 40 42 43 44 45 47 49 51 51 50 50 51 52 52 53 53 54 53 53 53 52 51 50 52 55 56 57 63 62 57 54 46 43 41 38 35 35 37 39 40 40
39 39 41 42 43 44 47 50 51 51 51 51 51 51 52 53 52 52 51 52 51 50 48 46 48 50 55 60 61 57 53 48 44 41 40 35 37 32 30 31 32 33 35
37 39 41 43 44 46 48 48 48 50 51 52 53 54 54 54 53 51 49 48 44 40 43 43 50 58 61 57 50 44 46 46 47 40 41 39 38 33 32 31 30 30 32
39 40 41 43 45 46 47 47 49 51 53 54 56 57 56 54 52 51 50 48 44 39 39 45 53 54 51 42 43 45 46 47 47 45 45 44 39 38 36 35 34 34 35
39 41 42 44 45 45 47 49 51 54 56 57 56 56 54 52 51 50 48 43 42 47 50 48 45 42 39 40 41 45 48 50 49 43 39 45 39 39 37 34 31 32 33
39 40 41 43 46 47 48 52 55 56 56 55 55 52 50 49 49 45 38 43 49 47 41 38 34 34 36 39 42 43 41 42 42 40 30 38 37 38 35 32 26 24 25
39 41 42 44 46 49 51 54 55 55 55 54 51 48 47 46 43 38 41 45 44 40 37 35 35 36 38 34 30 31 34 37 38 40 30 38 37 34 36 25 19 15 18

GFSMA_700_spd_033.txt.gz
Wind_Speed
16 15 14 15 15 16 16 17 19 20 22 22 21 21 22 23 24 25 26 27 29 30 30 31 31 31 31 31 33 34 34 32 32 34 34 36 35 37 36 34 35 35 36
16 15 16 17 17 18 18 20 22 22 23 22 22 23 25 26 28 29 30 30 32 32 33 33 33 34 33 33 34 35 36 38 40 40 42 42 43 42 41 41 40 38 38
15 15 16 17 18 20 21 22 23 23 24 24 25 27 29 31 31 30 30 30 30 31 32 32 32 33 33 34 34 35 37 38 40 41 44 45 45 47 47 47 47 47 46
15 16 16 18 19 22 22 23 24 25 26 28 29 31 31 30 30 31 31 31 31 31 31 32 33 34 35 37 38 38 39 40 41 43 44 46 48 48 49 48 50 51 51
16 17 17 19 21 22 23 25 27 29 30 31 31 30 31 30 30 31 31 32 32 33 34 36 36 37 37 38 39 40 41 43 43 44 45 47 48 50 51 53 55 56 56
16 18 19 20 23 24 26 29 31 33 33 32 30 30 31 31 31 32 32 33 33 35 35 36 37 38 40 41 42 43 45 45 45 46 47 48 49 50 50 51 53 55 58
17 18 20 22 24 26 28 30 32 33 33 32 32 30 32 32 32 32 33 32 34 35 36 39 40 41 42 43 45 46 47 48 49 51 52 52 53 53 53 53 54 54 56
17 19 20 22 25 28 30 31 32 33 33 33 34 35 35 33 34 34 34 33 35 36 38 41 43 44 45 45 46 48 49 51 52 54 56 57 58 57 58 58 59 59 60
17 19 21 24 27 29 30 31 31 32 33 35 37 38 40 42 43 38 36 35 38 39 41 43 44 46 48 50 52 53 55 56 58 59 59 60 62 63 62 62 62 63 64
17 20 24 26 28 30 31 31 32 33 35 37 38 38 40 43 46 49 43 40 41 43 44 45 47 50 52 54 56 58 59 60 61 61 62 64 64 64 65 65 66 66 68
18 22 25 27 30 31 32 32 34 36 37 37 38 38 39 41 43 49 53 49 44 44 48 51 54 56 57 59 61 62 64 64 64 63 62 62 62 63 64 66 69 69 69
21 24 27 30 32 33 34 35 37 38 38 38 38 39 42 44 46 49 54 56 60 58 58 56 57 58 59 60 61 62 63 63 62 62 62 63 63 65 66 67 68 67 67
24 27 30 32 35 35 36 38 39 39 38 38 39 40 43 45 48 51 55 59 64 65 67 68 66 63 59 59 59 58 58 59 60 60 60 61 62 63 65 66 67 67 68
27 30 33 35 37 38 39 40 40 39 39 40 41 43 45 47 50 53 57 62 67 68 70 70 68 67 66 65 65 63 60 59 59 59 59 60 61 63 63 64 66 66 67
30 33 36 38 40 40 41 41 40 40 40 42 43 45 47 49 52 54 55 58 62 71 75 73 72 70 69 68 67 66 64 63 61 60 59 59 60 60 60 61 63 63 63
33 35 38 40 41 42 42 42 41 42 43 44 46 47 49 52 54 55 56 57 59 63 73 71 71 71 70 69 67 64 61 58 56 54 54 53 49 53 54 57 59 57 54
35 37 40 41 41 42 42 41 42 44 45 46 47 50 53 55 56 57 58 60 62 64 69 72 70 68 68 67 65 60 57 56 53 50 46 48 50 51 50 48 47 48 53
37 40 42 41 42 41 41 43 44 45 47 48 51 54 55 56 57 58 61 63 64 63 64 66 66 62 59 56 57 55 53 50 50 56 58 53 48 42 39 40 39 41 42
39 41 41 42 41 41 42 44 46 47 48 51 53 55 56 58 60 62 64 64 64 63 60 59 61 57 55 51 52 52 55 58 63 56 47 44 41 40 40 40 41 41 41
40 41 42 42 42 42 44 45 47 48 50 52 54 55 57 59 62 63 64 62 59 57 56 55 55 53 51 53 56 59 61 53 48 44 43 41 42 43 42 42 42 41 43
39 41 41 41 42 44 46 47 49 51 53 55 56 56 58 61 61 59 57 55 54 54 52 50 51 52 56 56 53 49 50 50 48 45 45 39 41 39 37 37 37 39 41
40 41 41 42 43 45 46 47 50 53 55 56 56 58 60 60 57 54 52 51 47 44 44 46 51 53 49 45 44 46 48 48 48 40 44 36 38 37 35 35 33 33 35
39 39 41 43 43 46 47 50 52 54 54 54 57 59 59 55 53 51 50 47 45 42 43 45 47 41 43 43 45 43 42 45 45 42 46 42 37 36 32 31 30 30 33
38 39 41 43 44 46 49 51 53 53 54 55 57 56 54 52 50 48 46 45 45 39 36 36 37 39 39 37 37 42 45 47 44 39 40 45 37 35 33 30 29 29 31
38 40 42 44 46 47 50 52 53 54 56 57 56 53 51 50 48 44 43 45 41 34 33 34 33 30 31 35 37 40 40 44 44 39 35 42 39 41 39 32 26 24 25
38 41 41 44 47 50 51 52 53 55 57 58 53 50 48 46 42 40 41 40 37 36 36 33 28 28 30 31 30 32 37 41 43 43 36 43 43 43 48 35 28 20 21

GFSMA_700_spd_036.txt.gz
Wind_Speed
16 15 15 15 16 15 15 16 17 19 20 20 20 20 20 21 23 24 25 26 27 27 28 28 29 29 30 31 32 33 34 36 37 36 36 36 38 38 38 38 36 33 34
17 17 17 17 16 17 17 18 20 21 21 22 22 23 24 25 26 27 27 26 26 27 29 30 30 31 31 31 32 32 33 35 37 37 39 41 42 44 44 44 43 42 42
17 17 16 16 17 18 19 20 21 21 22 24 25 26 27 28 27 27 27 28 28 29 29 30 31 32 32 33 34 34 35 36 37 38 38 39 42 43 46 48 48 48 47
16 16 16 16 17 18 19 20 22 23 24 25 26 28 28 27 28 28 28 29 29 30 31 31 32 33 34 35 35 36 37 38 39 39 40 41 43 44 46 47 49 50 50
16 16 15 15 17 18 21 23 24 26 27 27 28 28 28 28 28 29 29 30 31 31 32 33 34 35 35 36 36 37 39 40 41 42 42 44 45 45 46 48 49 50 52
17 15 15 16 18 21 23 26 28 30 29 28 28 28 28 28 29 30 31 32 32 32 33 33 34 35 37 39 40 41 42 42 43 44 44 45 46 46 47 49 49 51 52
16 15 15 17 19 23 25 28 30 30 30 30 28 28 29 31 31 32 31 32 32 33 34 36 37 39 39 41 42 43 44 45 46 48 49 51 52 52 53 54 55 55 55
14 14 16 18 21 25 27 29 30 31 31 30 30 31 32 32 32 31 31 33 33 34 35 37 39 40 41 42 44 46 48 49 51 53 55 56 58 59 60 61 61 61 61
13 14 17 20 24 26 28 30 31 31 31 33 34 36 38 40 41 36 32 31 34 35 36 38 40 42 44 46 48 50 53 54 56 58 59 61 62 63 65 66 67 66 67
13 15 18 22 25 28 30 31 32 32 33 35 37 37 39 42 44 47 41 36 38 39 39 40 43 46 49 52 54 57 58 59 60 61 62 63 64 66 67 68 68 69 68
14 17 20 23 27 29 32 34 34 34 36 37 38 38 38 39 41 46 49 44 41 40 43 47 50 53 55 58 61 62 64 65 66 66 66 65 65 65 67 68 68 69 70
16 18 23 26 29 32 34 36 36 36 38 38 39 40 41 42 43 46 51 52 54 53 54 54 54 56 58 59 61 62 64 66 67 69 69 69 68 67 67 67 67 68 69
18 21 25 29 32 35 37 38 38 38 39 39 40 40 41 43 46 48 51 55 59 61 64 66 65 65 64 63 63 64 64 64 64 65 66 66 67 68 68 68 68 68 68
21 25 28 32 35 37 39 39 39 40 40 40 41 42 43 45 47 50 53 58 64 65 68 71 70 70 70 71 71 70 69 67 65 63 63 63 64 65 66 67 68 69 69
24 27 31 34 37 39 40 40 41 41 40 41 42 44 45 47 49 51 54 56 61 70 74 73 73 72 70 71 69 66 63 61 59 58 55 53 54 57 59 59 59 60 63
27 30 34 37 39 41 42 42 42 42 41 42 44 46 47 49 52 53 55 57 58 62 73 72 72 71 69 67 62 61 58 55 51 49 48 47 45 45 44 42 51 56 59
29 33 37 39 41 42 43 42 42 42 42 44 45 48 49 52 54 55 56 59 62 64 69 72 69 65 63 61 59 56 53 51 50 48 45 46 47 46 44 44 44 44 43
32 36 39 41 42 42 43 43 42 42 44 46 47 50 52 54 55 57 60 62 64 64 64 68 65 60 56 53 52 51 48 47 47 44 42 41 42 43 43 43 43 42 41
35 38 40 42 42 42 41 42 43 44 46 48 50 52 54 56 58 60 62 64 63 61 60 59 59 53 52 51 48 46 46 44 45 45 44 42 40 40 41 41 42 44 44
36 40 41 42 41 41 41 43 45 46 47 49 51 53 55 57 59 61 62 61 59 57 54 52 51 52 52 47 45 47 48 45 44 40 35 36 37 37 37 38 40 41 42
38 40 40 41 41 41 42 44 46 48 49 51 52 54 56 58 60 59 57 56 54 51 48 48 50 51 45 42 43 45 45 41 38 44 41 35 38 35 34 34 35 36 38
39 40 40 40 40 42 44 45 48 50 51 53 55 55 57 58 56 54 51 49 46 43 43 45 46 43 42 43 41 39 43 45 44 40 44 39 38 37 34 34 32 32 33
38 39 39 39 40 44 45 47 48 50 52 55 55 56 57 54 52 50 48 46 43 39 37 40 42 39 41 37 39 40 39 41 43 43 45 44 39 38 37 35 33 34 32
37 37 38 41 42 44 46 48 50 52 54 54 54 54 53 51 48 48 46 45 42 37 34 36 36 35 34 36 37 39 41 44 44 42 43 47 43 42 40 34 28 27 29
35 36 39 41 43 44 47 49 52 54 53 54 54 52 49 48 47 44 43 44 39 34 32 32 28 29 31 33 36 39 40 45 46 41 36 47 45 47 42 27 21 19 25
35 38 39 42 44 46 48 50 52 54 55 55 53 48 46 45 42 40 40 40 37 35 32 26 27 27 29 30 32 37 41 42 42 42 37 46 46 45 40 27 20 19 21

GFSMA_700_spd_039.txt.gz
Wind_Speed
16 16 17 17 17 15 14 15 16 16 18 18 18 19 20 21 23 24 25 25 25 25 25 26 26 27 27 28 29 30 30 32 34 35 36 37 38 38 38 38 38 36 35
17 17 17 17 16 16 16 15 16 18 19 20 21 22 23 24 24 25 25 24 25 25 26 26 26 27 27 28 28 28 29 30 31 32 33 34 36 39 42 44 44 45 44
16 17 16 15 15 15 16 16 17 18 20 21 23 24 25 25 25 24 25 25 26 26 26 27 28 29 30 30 31 32 33 33 33 32 33 34 36 37 39 41 44 47 49
16 16 15 14 14 14 16 16 17 19 21 23 24 25 25 24 24 24 25 26 27 28 30 31 31 32 32 33 33 33 34 35 36 35 35 37 38 39 39 40 41 44 45
17 16 15 13 13 15 16 17 19 21 22 24 25 26 25 25 25 25 27 28 29 30 31 32 33 34 34 34 35 35 36 37 38 38 39 40 40 41 42 42 43 44 45
21 16 14 13 14 15 17 20 22 24 24 24 25 25 25 26 26 27 29 30 31 31 33 33 34 35 36 37 37 38 38 39 40 40 41 42 43 44 44 45 46 47 48
23 16 14 14 14 16 19 22 25 26 27 27 26 26 27 28 28 28 29 31 31 33 32 35 36 37 38 39 40 40 41 41 43 44 46 47 49 50 51 52 52 54 55
22 17 14 14 14 17 20 24 26 28 29 28 28 28 29 29 28 28 30 32 32 33 35 36 37 38 40 41 41 43 45 47 49 50 52 54 55 56 57 58 59 61 62
19 15 13 13 16 19 22 25 28 30 31 30 29 31 33 33 35 32 31 32 32 33 34 36 38 39 41 44 46 48 50 52 54 55 57 58 59 60 62 62 64 66 67
18 14 13 14 17 20 24 27 29 31 32 32 32 32 34 37 39 43 39 37 38 37 38 38 39 42 45 48 51 54 56 58 60 61 63 64 65 66 67 67 68 68 68
16 14 14 16 19 23 27 30 32 33 34 34 34 35 36 37 39 42 44 39 38 39 41 43 45 49 51 54 58 61 63 65 67 68 69 69 68 68 69 69 70 70 70
15 15 16 18 21 25 29 32 34 36 36 36 37 38 39 40 40 43 47 47 48 46 46 49 49 52 54 57 59 61 63 65 67 68 69 68 68 68 69 69 68 68 66
16 17 18 21 24 28 32 34 37 38 38 38 38 39 39 40 41 43 46 49 54 55 58 59 59 60 62 63 65 66 66 65 64 64 62 61 61 62 62 63 62 61 56
17 19 21 23 27 31 34 37 39 39 39 39 39 39 39 41 43 45 48 53 57 58 62 66 65 66 68 69 68 67 68 66 63 58 54 52 53 54 56 58 58 58 58
19 21 23 26 30 33 37 39 40 40 40 40 40 40 41 43 45 47 50 53 57 65 68 68 69 69 68 67 65 65 63 59 55 52 52 52 51 50 49 50 51 51 50
21 23 26 29 32 36 39 40 41 41 41 40 41 41 43 45 46 49 52 54 56 60 70 67 68 66 65 64 61 58 54 51 50 49 47 46 43 41 41 41 44 46 48
24 26 29 32 35 38 41 42 42 41 41 41 43 43 44 47 49 50 52 54 56 59 66 68 65 62 61 59 55 51 50 47 42 36 37 37 37 39 39 41 42 44 44
27 28 31 34 37 40 42 42 41 41 41 42 43 44 46 48 50 51 53 56 59 60 62 65 61 58 55 51 49 45 42 39 38 38 34 32 34 36 39 41 42 42 42
29 31 34 36 39 41 42 42 41 41 42 43 45 47 49 51 52 53 56 58 59 58 57 58 57 52 50 44 41 41 42 39 37 34 32 33 34 33 35 38 39 40 42
31 33 35 37 40 41 41 41 41 42 43 44 46 48 50 52 54 56 58 59 58 55 52 51 51 50 45 41 41 44 42 32 38 34 28 34 32 32 34 35 37 38 39
32 33 36 39 40 40 40 41 42 43 45 46 47 49 51 52 54 56 56 55 53 51 47 45 46 45 40 40 41 38 39 37 33 38 32 33 38 35 35 35 36 36 38
32 34 37 38 39 39 40 41 44 45 47 48 50 50 52 53 54 54 51 49 47 44 40 41 44 40 39 40 36 38 39 40 40 38 44 37 39 37 38 37 36 37 38
32 35 36 37 37 39 41 42 44 46 48 49 50 52 53 54 53 51 48 45 42 37 35 38 39 36 38 34 37 37 37 41 44 44 46 43 36 39 38 34 29 31 34
33 34 35 36 38 40 42 44 46 48 49 50 51 52 53 52 49 48 45 43 39 34 32 32 33 31 32 34 35 38 42 44 44 39 39 43 39 40 32 21 21 25 29
32 33 35 37 39 41 43 45 48 49 50 52 52 51 51 49 46 42 41 40 36 31 30 30 27 28 28 30 36 40 40 43 41 34 29 40 38 37 26 16 17 21 22
30 32 35 38 41 42 44 46 48 51 53 54 51 49 46 43 40 38 38 38 36 32 29 23 25 25 29 31 33 35 35 37 38 36 32 40 37 35 28 23 25 27 27

GFSMA_700_spd_042.txt.gz
Wind_Speed
17 17 17 17 17 16 15 15 15 15 15 16 17 17 19 20 22 23 25 24 25 25 25 25 26 26 26 26 27 27 28 29 30 31 32 34 36 37 39 40 39 39 39
19 18 18 17 17 16 15 15 15 15 16 18 19 20 22 23 23 24 25 24 24 24 25 25 26 26 27 28 29 29 29 29 30 32 33 33 33 34 36 38 40 43 44
21 19 17 16 15 14 15 14 14 15 18 20 22 23 24 24 24 23 24 24 24 25 26 27 28 28 30 31 31 32 33 33 33 33 33 34 35 35 36 36 38 40 43
21 19 17 15 13 13 13 13 14 16 20 22 24 24 24 24 23 23 24 24 25 27 28 30 30 31 32 33 34 35 36 35 36 37 35 36 37 38 38 39 39 40 41
21 20 17 14 12 12 12 13 15 18 21 23 24 24 24 24 24 24 25 26 27 29 30 31 32 34 35 36 36 37 38 38 38 39 39 39 40 40 41 42 43 43 43
21 17 20 15 13 12 12 13 17 19 21 23 25 25 25 25 25 26 27 27 29 30 33 34 35 36 37 38 39 39 39 40 40 41 41 41 42 42 43 44 45 45 46
23 19 22 17 15 13 13 15 18 20 22 24 26 26 25 26 26 27 27 30 31 32 34 36 37 37 38 38 39 40 40 41 42 43 44 46 48 49 50 51 51 52 53
22 20 20 16 15 14 14 17 19 22 24 26 27 27 27 28 28 28 29 32 33 35 35 36 37 38 40 41 41 42 43 45 47 49 51 53 55 56 57 58 58 60 60
25 22 20 16 15 14 16 18 21 23 26 27 28 29 31 32 32 31 32 33 33 34 34 35 36 38 40 42 44 46 48 50 53 55 57 59 61 62 64 64 65 66 66
24 21 17 16 15 15 17 20 22 25 27 29 31 31 31 33 35 37 36 38 37 36 36 35 36 38 41 44 47 50 53 56 59 61 63 65 66 67 69 70 70 71 71
26 22 18 17 16 17 19 22 25 28 30 32 33 33 34 35 37 40 40 38 39 40 42 42 42 44 47 51 54 57 60 64 66 68 70 71 72 73 73 72 72 71 71
25 21 20 18 18 20 22 25 28 30 33 35 36 36 36 38 40 42 44 43 43 41 43 45 48 49 51 54 56 59 62 66 68 70 72 72 72 71 70 69 68 66 66
21 19 20 19 21 23 25 28 31 33 36 37 38 38 39 40 40 41 44 46 48 48 50 52 54 57 59 60 62 65 68 68 66 64 63 62 61 61 62 62 62 61 61
24 23 21 22 23 25 28 31 33 36 39 39 40 40 41 41 41 42 44 48 51 53 55 58 58 61 62 67 70 71 71 69 66 62 59 56 52 52 53 55 55 57 57
22 22 22 24 25 28 31 33 35 39 41 41 41 42 42 42 42 44 46 49 53 59 60 61 61 63 64 65 66 65 64 61 56 52 51 49 47 46 45 45 46 47 48
23 23 24 26 27 31 33 35 38 41 42 42 42 42 43 43 44 46 49 52 54 58 64 61 62 63 62 62 61 60 56 52 49 46 43 40 40 42 42 42 40 41 42
24 25 26 27 30 33 35 38 41 42 42 43 43 43 43 45 46 48 51 53 55 57 62 64 62 60 59 59 58 52 50 47 41 39 36 36 35 35 37 38 39 39 41
25 26 28 30 33 35 38 40 42 42 42 42 43 44 45 46 48 50 52 54 56 57 60 64 60 58 57 56 51 48 45 41 40 38 30 31 33 34 36 38 38 39 40
26 28 30 32 35 37 39 41 42 42 42 43 43 45 46 48 50 52 53 55 57 58 57 59 60 55 54 50 46 43 43 40 36 34 31 32 35 35 36 38 39 40 40
27 30 32 34 37 39 40 42 42 42 42 42 44 45 47 49 51 53 54 55 57 56 56 54 53 53 51 44 42 43 44 32 37 34 31 37 37 37 37 36 34 37 40
29 31 33 37 37 38 41 41 41 42 42 43 45 47 49 50 51 53 54 54 54 54 51 48 49 49 45 40 40 39 39 38 34 41 39 34 37 32 31 31 35 38 42
30 32 36 35 38 38 39 40 41 42 43 45 47 48 50 52 52 52 52 51 50 48 45 44 45 45 40 38 37 36 39 39 42 36 44 32 33 27 30 31 31 36 36
32 33 34 36 36 37 38 39 41 43 44 46 48 49 51 52 52 52 51 48 45 42 40 41 41 38 39 33 36 34 36 41 43 41 42 35 30 29 31 22 23 27 30
30 32 33 34 34 36 38 40 42 44 45 47 48 50 51 51 50 49 47 45 43 40 36 35 34 33 31 33 34 37 40 40 40 37 37 40 32 30 23 14 19 21 27
29 30 31 32 34 37 39 41 43 45 48 50 50 49 50 50 47 44 43 42 40 35 32 31 30 28 27 28 34 38 38 43 39 33 28 37 32 33 22 11 14 19 25
28 29 31 33 35 37 40 42 45 47 50 52 51 49 47 45 42 39 39 39 38 32 31 25 25 26 27 29 32 36 39 39 35 33 30 36 32 34 25 17 19 23 28

GFSMA_700_spd_045.txt.gz
Wind_Speed
16 17 18 18 18 17 16 15 15 15 15 15 16 17 18 20 22 24 27 24 25 24 24 24 24 24 24 25 25 26 26 27 27 29 29 30 31 32 33 35 37 39 40
18 19 20 19 19 18 17 15 15 15 15 16 17 18 20 22 24 24 26 23 23 23 22 23 23 24 25 26 28 28 29 29 29 31 32 32 33 34 34 35 36 36 38
19 20 21 20 19 18 17 15 15 14 15 16 18 20 22 23 23 23 23 25 22 23 23 24 25 26 27 29 30 31 32 32 33 33 34 34 34 35 36 36 36 37 38
23 23 25 20 18 17 16 15 14 14 16 18 20 21 22 22 23 23 23 23 24 24 24 26 27 28 30 32 33 34 35 35 35 35 37 37 37 37 37 38 39 39 40
28 23 23 21 17 15 15 14 15 15 16 19 21 22 23 23 23 24 24 25 25 26 27 28 30 31 33 34 36 36 37 38 38 38 38 39 39 39 39 40 40 41 42
29 24 21 20 17 16 14 14 14 15 17 19 21 23 24 25 25 25 25 26 26 29 30 32 33 35 36 36 37 38 39 39 39 39 39 40 41 41 41 42 42 43 44
28 24 21 21 19 18 15 15 15 16 17 20 22 25 25 26 26 26 27 28 30 31 32 34 36 37 38 39 39 38 38 39 40 41 41 42 44 45 47 48 49 50 52
27 24 20 21 19 19 16 16 16 16 18 21 23 25 28 29 26 27 28 30 32 34 35 36 38 39 39 40 40 41 41 42 44 45 47 49 51 52 54 56 58 59 60
28 26 22 21 22 20 18 17 17 18 20 21 25 28 30 31 31 31 31 32 34 35 37 37 37 38 39 41 41 43 44 45 47 50 52 54 56 59 60 62 64 66 67
31 29 23 23 20 20 19 18 18 19 22 25 27 29 32 33 34 34 35 37 39 40 40 38 36 37 39 41 43 45 47 49 52 55 56 58 61 64 66 69 71 73 74
31 29 24 25 23 21 20 19 20 22 25 28 30 33 35 35 36 38 38 38 41 40 42 43 43 44 45 48 49 52 55 57 59 61 64 67 70 72 72 73 74 75 75
30 27 24 21 23 23 21 21 23 25 28 31 33 36 38 38 39 41 44 43 43 40 43 44 45 47 49 51 53 56 58 60 64 66 68 70 71 72 71 70 68 67 67
29 26 28 25 23 22 22 24 26 28 31 34 36 39 40 40 40 42 45 45 46 43 44 44 47 50 54 56 58 61 64 66 68 67 67 67 64 63 63 61 60 58 59
26 26 25 23 23 23 24 26 28 31 35 37 39 41 42 42 42 44 44 47 49 48 48 50 51 54 56 59 62 65 66 67 67 64 61 60 58 55 53 54 54 54 52
28 24 25 25 25 25 27 29 31 34 37 40 42 43 44 43 43 43 44 46 50 54 54 53 55 57 59 60 62 64 64 63 59 56 54 51 47 46 44 43 42 42 42
27 28 28 25 25 27 29 31 34 37 40 41 43 45 44 44 44 44 46 47 50 54 59 57 58 59 59 61 61 60 60 56 52 48 47 43 42 42 42 38 36 37 38
25 26 26 26 27 28 31 34 37 40 42 43 45 44 44 45 44 45 47 50 52 54 59 59 58 58 58 59 58 55 52 50 46 42 39 38 36 36 36 38 38 38 38
28 27 26 27 28 30 33 36 40 42 42 45 44 44 44 45 46 47 50 51 54 55 58 62 60 59 57 55 53 51 47 45 41 39 35 30 34 33 36 39 41 41 40
27 26 27 28 30 32 35 38 41 42 44 43 43 44 44 46 47 49 51 53 55 55 57 60 61 57 54 51 49 46 44 41 38 34 33 31 36 35 40 41 41 41 40
25 26 27 29 32 34 37 40 41 43 42 42 43 44 45 47 48 51 53 54 54 55 56 56 55 52 50 48 46 45 42 39 33 34 33 33 39 36 37 35 33 31 34
25 27 29 31 34 36 39 40 41 41 41 42 43 44 46 48 50 52 53 54 54 54 52 50 49 49 48 45 42 41 40 37 33 35 43 31 38 33 29 26 28 31 36
26 28 30 32 36 37 38 38 39 40 41 42 44 45 48 50 52 53 54 53 51 49 47 45 45 47 44 40 40 38 37 38 39 33 43 33 33 27 25 26 26 30 30
26 28 31 35 34 35 36 37 38 40 42 43 45 47 49 51 51 52 52 50 47 44 41 42 44 43 41 37 37 37 35 36 40 38 42 37 30 23 26 24 21 24 26
27 31 31 31 32 33 35 37 39 41 43 45 47 48 50 51 50 50 49 47 45 42 40 40 40 38 35 33 36 37 38 39 36 37 37 40 33 27 25 20 14 18 23
27 27 28 29 31 34 35 38 40 42 45 47 49 49 50 50 48 48 47 45 42 39 36 34 34 32 31 30 32 37 35 40 38 33 28 38 35 33 26 17 12 16 20
25 26 27 29 32 34 36 38 41 44 46 48 48 48 47 46 45 44 43 42 40 36 33 30 26 28 29 29 31 34 37 38 38 37 28 38 35 38 32 16 13 16 20

GFSMA_700_spd_048.txt.gz
Wind_Speed
15 14 14 15 16 17 17 17 17 17 15 14 14 14 16 18 20 24 21 21 22 22 22 21 20 20 20 21 21 22 23 23 25 26 27 27 28 28 29 29 30 31 33
15 15 16 16 17 19 19 18 18 17 16 15 15 15 17 19 20 23 22 20 21 21 20 20 20 21 22 23 23 24 25 26 27 28 30 30 30 31 32 32 32 33 34
17 17 17 17 16 24 22 19 18 16 16 16 16 16 18 19 20 21 24 21 20 21 21 21 22 23 24 24 26 27 27 29 30 31 32 33 33 32 33 34 34 35 35
20 20 19 19 22 23 27 20 18 16 16 16 16 16 17 19 20 21 22 22 21 21 22 23 24 24 26 28 29 30 31 32 33 34 35 35 35 35 35 35 36 37 37
22 22 23 23 20 19 19 20 18 16 16 16 16 17 18 19 20 22 22 23 24 25 25 24 26 27 29 30 32 34 35 36 35 36 36 36 36 37 37 37 37 37 38
25 25 24 24 21 19 17 16 19 17 16 16 17 18 19 19 21 23 24 25 24 26 27 28 29 30 32 33 34 36 36 37 37 38 38 38 38 38 39 40 40 41 41
25 26 26 24 22 18 18 18 19 18 17 16 17 18 19 21 23 24 26 27 28 28 29 30 31 33 34 36 38 39 38 37 37 38 39 40 41 42 43 44 45 46 47
25 26 27 25 23 20 18 21 20 20 18 17 18 19 22 23 24 27 28 30 31 31 32 33 34 35 37 38 39 40 40 40 40 42 43 44 46 48 49 51 52 54 55
25 26 26 24 26 23 22 27 23 22 19 18 19 22 26 27 29 30 31 32 33 33 34 35 35 36 38 39 39 40 41 42 42 44 46 48 50 53 54 56 57 59 61
27 27 27 28 29 25 24 23 23 21 20 20 21 24 27 30 33 33 34 36 36 36 37 37 36 37 38 39 40 41 42 44 44 47 49 51 54 56 59 61 63 65 67
29 28 29 30 30 26 23 23 24 22 22 22 24 27 30 33 36 38 37 36 37 38 40 40 39 41 43 45 45 45 47 48 50 51 54 57 60 63 66 68 70 71 71
30 31 31 31 30 28 26 27 24 23 23 25 27 30 33 36 39 42 44 42 41 38 40 40 40 42 44 47 48 50 53 54 57 59 61 64 66 67 68 68 67 67 64
31 31 33 30 28 28 28 26 24 24 25 27 30 33 36 39 41 44 46 45 46 42 41 39 40 44 47 49 51 53 56 58 60 62 63 65 65 66 63 63 61 58 56
28 31 33 29 27 27 25 26 25 25 28 30 33 37 39 42 43 46 47 48 48 47 43 42 42 44 48 51 54 57 60 62 63 62 61 60 59 59 57 55 53 51 47
30 31 28 30 29 26 28 27 26 27 30 33 37 40 41 43 45 46 46 46 48 52 50 46 49 50 51 53 55 58 61 60 59 56 54 53 52 50 47 46 44 42 39
31 30 26 26 27 30 28 27 27 30 33 36 40 42 44 45 46 46 46 45 46 50 56 53 54 55 56 57 58 59 59 56 52 49 48 46 42 40 41 40 36 35 35
28 30 27 27 27 29 27 27 30 32 36 39 42 44 45 46 46 45 45 46 47 50 55 56 57 59 60 60 59 56 53 50 48 43 40 37 35 37 35 34 36 37 35
26 23 28 27 28 27 28 29 32 35 38 41 44 45 45 46 45 46 47 48 49 51 56 60 60 60 59 57 55 53 49 45 42 36 35 32 30 34 32 36 39 40 40
22 31 24 29 27 28 28 31 34 37 40 44 44 44 45 45 45 46 48 50 51 54 55 58 59 57 55 51 50 47 45 40 36 34 31 28 32 32 35 38 40 39 39
27 25 24 25 27 27 30 34 36 40 43 42 42 43 43 44 46 48 50 51 54 55 55 55 55 53 50 47 45 44 40 36 33 29 30 27 35 34 34 37 35 34 34
27 25 26 27 26 29 33 35 40 41 40 41 41 42 43 45 47 50 52 54 55 55 54 54 53 50 46 43 41 39 38 36 28 30 35 29 37 32 33 29 30 28 31
23 23 23 25 29 31 35 39 37 38 39 40 40 41 43 45 47 50 51 52 51 50 50 49 48 45 43 39 38 38 35 35 36 27 38 34 36 33 29 27 26 26 30
23 24 26 27 30 34 34 35 36 37 37 39 41 43 45 46 49 50 50 50 47 44 42 42 42 40 40 36 37 37 34 35 34 35 41 40 34 33 27 26 24 25 27
22 22 26 30 31 30 31 34 35 36 38 40 42 44 47 49 49 49 50 49 46 42 38 36 35 37 36 33 35 38 38 39 34 34 37 44 35 33 25 23 20 21 22
21 25 26 26 27 30 30 33 35 37 39 41 43 46 47 48 48 47 47 46 42 35 32 30 30 31 32 32 33 38 38 40 38 32 29 41 37 34 26 20 17 16 19
21 22 23 25 27 30 33 34 36 39 42 44 44 45 44 45 45 43 42 41 36 32 30 27 25 27 30 31 32 33 36 38 39 38 31 38 35 37 33 20 17 14 16

GFSMA_700_spd_051.txt.gz
Wind_Speed
15 13 12 12 11 11 11 14 16 16 15 14 14 14 15 17 17 16 17 18 19 19 19 18 18 18 18 18 18 19 19 20 20 21 22 23 23 24 25 27 27 28 29
15 13 13 14 14 13 15 15 17 20 18 16 14 14 15 17 18 17 18 17 18 19 19 19 19 19 19 20 20 21 21 22 23 24 25 25 26 26 28 29 29 30 31
15 14 15 16 16 17 19 21 16 19 21 17 15 15 15 17 19 17 18 18 18 19 19 20 20 21 21 22 23 24 25 25 26 27 28 28 29 29 30 31 31 32 33
17 17 18 18 18 18 19 21 20 17 19 20 17 15 15 16 18 19 18 18 18 19 21 22 22 23 25 26 27 28 28 29 29 30 31 31 32 32 33 32 32 34 34
22 22 23 22 20 19 20 19 20 20 20 19 17 16 15 15 16 17 18 19 20 20 21 23 24 26 27 28 30 31 31 32 33 33 34 34 34 34 35 35 36 36 36
24 26 23 22 20 20 20 19 20 20 20 19 17 17 16 15 16 18 20 21 23 24 26 25 26 28 30 31 32 34 34 34 34 35 36 36 36 37 37 37 38 38 39
21 24 24 23 21 21 22 19 18 18 21 21 18 17 17 16 17 19 21 23 24 25 26 28 29 30 32 33 35 36 36 37 36 35 36 37 39 39 40 41 42 43 43
22 22 26 23 22 22 23 21 20 23 23 24 20 20 20 18 20 21 23 26 27 28 30 31 31 33 34 36 37 38 38 38 37 38 39 41 42 44 45 45 47 48 49
24 22 26 23 23 23 24 23 23 24 24 24 25 23 21 22 24 25 26 28 30 32 33 34 35 36 37 37 38 39 39 39 39 40 42 44 46 47 49 50 52 53 54
26 24 25 24 25 25 27 26 25 23 24 23 24 23 22 24 26 28 29 32 33 35 36 37 37 39 40 40 40 40 40 40 41 43 45 47 49 51 53 54 56 58 60
29 26 27 27 28 27 28 27 26 25 25 25 25 25 25 27 29 31 32 34 36 38 39 39 40 41 42 43 43 43 44 43 44 45 47 49 51 54 57 59 61 63 65
33 29 29 30 32 30 28 27 32 28 28 28 26 26 28 30 33 36 38 39 40 38 39 38 40 41 43 44 45 46 48 49 50 52 54 56 59 62 65 67 67 69 67
34 31 31 31 33 32 30 28 26 30 28 29 28 28 30 33 36 40 42 45 46 42 41 39 40 42 44 46 47 49 51 52 54 56 58 61 64 65 66 65 65 65 63
36 34 32 32 32 33 28 31 28 29 28 29 29 31 33 36 39 42 46 48 48 47 44 41 40 42 45 47 49 51 54 56 58 60 61 63 63 62 61 61 59 58 55
38 36 34 32 31 28 27 27 32 29 29 30 31 33 36 39 41 45 47 48 49 52 50 44 45 45 47 49 51 54 58 59 59 58 58 58 57 56 55 54 52 50 44
39 36 34 30 28 30 30 27 31 33 28 32 33 35 39 41 45 47 47 46 47 50 54 51 50 50 51 53 55 58 59 58 57 55 53 52 51 49 47 46 43 41 40
34 34 30 25 31 31 30 35 30 25 32 33 35 38 41 44 46 46 46 46 46 48 52 53 54 55 58 59 59 58 57 55 53 49 47 44 41 41 41 39 38 36 35
33 29 27 27 27 31 28 30 30 26 31 33 38 40 44 47 45 45 46 46 47 49 52 56 57 59 59 58 59 58 55 51 48 42 39 35 35 36 34 35 34 36 38
27 29 31 28 27 35 33 28 24 29 31 37 40 44 45 44 44 45 46 47 49 50 52 56 58 57 56 54 53 51 48 44 40 36 33 32 30 32 32 34 37 39 39
28 31 32 26 37 34 22 22 27 31 37 40 44 42 43 43 45 46 47 49 51 53 54 56 57 56 54 50 47 47 44 38 34 29 29 28 30 30 33 35 37 37 38
26 27 29 36 27 19 18 25 32 36 39 42 40 41 42 43 45 47 49 51 53 53 52 53 53 52 48 44 42 40 39 37 28 26 31 31 31 33 32 33 34 34 34
25 30 27 20 19 19 27 34 34 39 37 37 38 40 41 43 45 46 49 52 51 49 49 49 48 46 41 38 38 38 37 37 36 25 34 37 34 35 32 31 31 31 32
31 19 21 20 22 28 30 33 35 33 35 36 38 39 41 43 46 49 50 49 47 43 42 43 41 37 38 35 36 37 38 39 37 34 38 43 34 36 32 32 30 27 29
19 17 14 22 23 28 31 30 31 33 34 36 38 41 43 46 48 49 49 48 45 41 39 35 33 33 33 33 36 39 40 42 40 32 35 44 37 37 34 30 25 25 25
10 14 18 22 25 25 26 29 30 32 35 37 39 42 46 48 47 47 47 45 42 37 31 29 28 30 32 32 33 37 37 40 41 36 31 40 37 38 33 25 21 20 23
12 16 19 21 23 25 27 28 31 33 36 38 41 43 43 45 45 44 43 42 38 31 28 26 24 25 27 28 29 32 37 40 41 40 29 38 37 38 35 25 21 18 20

GFSMA_700_spd_054.txt.gz
Wind_Speed
16 14 14 13 12 11 10 9 10 12 12 15 16 17 16 13 13 14 15 16 18 18 17 17 17 18 17 17 18 18 19 19 19 20 21 21 22 22 24 25 26 26 26
17 15 15 14 15 14 13 13 15 16 15 15 15 17 18 16 14 15 15 15 17 18 18 18 18 19 19 19 20 21 21 22 22 23 24 25 25 26 26 27 28 29 29
16 16 16 16 16 15 15 16 16 17 18 18 17 16 17 17 15 15 15 15 16 17 18 18 19 20 21 22 23 24 24 25 26 27 28 28 29 30 30 30 31 32 32
19 18 16 17 18 18 19 19 17 18 19 18 19 18 18 17 16 15 15 14 15 16 17 19 20 22 24 25 27 27 28 28 29 30 31 31 32 32 32 33 33 33 34
21 21 20 22 23 21 20 19 18 18 19 19 18 18 19 19 16 15 15 15 16 17 18 20 23 24 26 27 29 30 30 31 32 32 34 34 35 35 35 35 35 35 35
21 21 21 23 22 20 19 18 18 19 19 18 18 19 19 19 18 15 16 17 18 19 21 22 24 27 29 30 32 32 33 34 35 35 36 37 37 38 38 38 38 37 38
23 22 20 23 21 18 18 18 18 19 18 18 20 21 20 21 20 19 19 20 21 22 24 26 27 29 31 32 33 34 35 36 37 38 38 38 39 40 40 40 40 41 41
26 23 21 22 22 20 20 20 20 20 19 21 23 25 24 23 24 25 23 23 23 25 27 29 31 33 35 36 37 37 38 38 39 40 40 41 42 42 43 43 44 44 45
27 25 22 22 23 23 22 23 22 21 21 23 25 25 26 25 25 25 25 26 27 29 31 33 35 36 37 38 39 39 40 40 40 41 42 43 44 45 46 47 48 49 50
31 26 24 22 24 25 26 24 26 25 24 23 25 26 26 27 27 28 27 28 31 33 34 37 39 40 41 41 42 42 42 41 41 42 44 46 47 49 50 51 53 54 55
35 31 26 23 25 26 29 28 27 27 27 24 26 27 28 30 29 29 29 31 33 35 37 40 42 43 44 44 44 44 44 44 44 45 46 47 49 51 53 55 57 59 61
38 33 29 27 26 29 31 30 30 30 29 29 27 29 31 32 32 32 33 34 36 36 39 41 43 44 45 46 46 46 46 47 48 49 50 52 54 56 59 61 64 66 67
39 36 32 30 28 30 32 32 33 32 29 30 28 33 31 34 34 35 37 39 41 41 43 42 42 44 46 47 47 48 50 51 52 53 54 56 59 62 65 67 69 70 70
45 42 34 30 29 31 35 34 35 33 29 35 29 32 32 34 36 38 40 43 47 48 48 43 43 45 47 48 48 50 52 54 55 57 60 62 64 66 67 67 68 68 66
43 41 36 33 32 35 38 35 35 34 34 30 37 34 31 35 37 40 43 47 50 54 52 46 46 45 47 48 50 53 55 57 60 62 63 63 64 64 63 62 60 59 57
39 39 37 35 37 39 37 36 33 34 31 33 38 36 32 36 38 42 47 49 52 52 55 52 48 48 49 50 52 56 59 62 62 63 62 61 60 58 55 53 52 51 49
36 37 37 37 38 33 30 29 41 34 31 40 40 32 34 35 40 46 49 51 49 50 52 52 53 53 53 54 55 57 58 60 59 57 56 53 50 48 48 48 46 45 43
32 35 37 38 32 29 33 32 37 37 34 32 27 28 33 38 44 47 49 48 48 48 51 53 54 55 57 57 58 59 57 55 53 48 45 41 40 41 42 43 43 41 41
32 35 35 34 30 32 32 32 36 37 40 34 31 31 38 42 45 46 46 47 48 49 50 54 56 57 58 57 58 55 54 48 43 38 34 34 35 36 36 37 40 41 40
30 32 33 29 37 35 32 36 38 35 29 29 32 35 40 43 42 44 46 47 49 50 51 54 58 59 58 55 52 51 46 38 37 31 30 34 33 35 36 38 40 41 42
29 31 35 34 29 36 31 33 29 30 29 29 34 38 39 40 43 44 47 48 50 52 53 55 57 57 53 49 44 40 40 39 36 32 33 39 36 37 36 38 40 40 41
30 40 35 27 26 26 26 26 25 28 30 34 34 36 39 41 43 45 47 49 52 53 53 54 54 51 46 41 38 38 40 39 37 28 30 34 32 34 34 35 35 36 38
31 30 28 23 20 21 21 22 26 31 31 32 35 37 39 42 44 46 49 51 51 50 49 49 49 43 39 37 38 39 37 37 36 31 35 41 33 33 31 32 33 35 35
31 17 13 14 16 19 21 23 27 29 31 34 36 39 41 42 45 49 51 52 51 47 44 43 38 35 35 35 35 37 37 40 38 36 34 43 37 34 32 29 28 28 28
13 10 9 12 15 19 22 22 26 30 32 34 37 39 42 46 48 48 50 50 47 42 39 33 30 31 33 33 33 37 37 40 39 39 30 41 37 37 35 29 24 21 23
6 8 10 13 18 19 21 24 27 30 31 33 36 41 44 46 46 46 47 46 43 39 32 27 25 26 29 29 31 34 37 41 41 41 31 39 40 40 40 34 27 24 24

GFSMA_700_spd_057.txt.gz
Wind_Speed
17 16 15 14 13 12 13 12 10 10 12 14 16 15 13 13 14 14 15 16 16 16 16 17 17 17 18 17 18 18 18 18 19 20 21 21 22 23 23 24 25 25 25
19 18 17 15 15 14 14 14 14 15 14 15 17 18 16 15 15 14 15 17 17 17 17 17 17 18 19 19 20 20 21 22 22 23 24 24 25 26 26 27 27 28 28
19 17 17 16 16 16 16 15 16 16 17 17 18 18 17 16 16 16 16 16 17 16 16 17 18 19 20 21 22 23 23 24 25 26 26 27 28 29 30 31 31 31 31
18 17 17 17 18 17 17 18 18 19 19 18 19 18 17 16 16 17 16 16 15 16 16 17 19 20 22 23 24 25 26 26 27 28 29 29 30 31 32 33 33 34 34
20 20 19 19 21 20 20 20 19 19 19 18 19 19 18 17 17 16 16 16 17 17 17 19 20 22 23 25 26 28 29 29 30 30 31 32 33 34 35 35 35 36 36
23 22 21 21 21 21 21 20 19 19 17 17 17 17 18 19 19 18 17 18 18 19 23 23 23 25 26 28 29 30 32 32 33 34 34 34 35 36 37 38 38 38 37
25 23 22 21 21 22 22 22 20 19 18 18 17 18 20 21 21 21 22 24 25 28 24 25 26 28 29 31 32 33 34 35 36 37 37 38 38 38 39 39 40 40 40
29 27 24 23 24 23 23 23 22 20 20 20 19 21 22 24 24 24 24 24 24 24 25 27 29 31 33 34 36 37 37 38 39 40 40 40 40 41 41 41 42 42 43
32 29 26 25 25 25 24 24 25 23 22 22 23 23 24 26 25 26 26 26 27 27 28 30 32 34 36 38 39 40 40 40 40 41 42 42 43 44 44 44 45 46 47
35 33 31 28 27 25 23 26 26 28 27 25 26 24 26 26 27 29 29 30 30 30 31 33 35 37 40 42 43 43 43 43 43 43 44 44 45 47 47 48 49 50 51
37 35 34 32 30 26 22 24 27 30 31 29 29 28 29 28 28 32 33 33 33 33 34 36 38 41 44 46 46 45 45 46 45 45 46 47 48 49 51 52 53 55 56
39 38 35 35 34 30 25 25 28 32 33 34 32 30 31 31 29 32 35 35 35 35 36 38 41 44 47 48 48 48 48 48 47 47 48 50 51 53 54 56 57 59 61
43 38 37 35 34 34 29 28 29 33 35 36 36 31 34 32 35 35 33 37 39 37 37 39 43 47 50 49 48 49 49 49 50 51 52 53 55 57 59 62 63 65 67
40 38 41 38 36 36 34 31 32 34 36 37 36 35 37 37 34 37 36 38 40 42 41 41 45 49 50 49 49 50 51 52 53 54 55 57 59 61 63 64 66 68 70
43 45 42 40 40 40 38 35 36 38 38 36 41 42 38 37 38 39 38 38 38 46 47 46 49 49 48 49 49 51 53 55 57 59 60 62 63 64 65 65 66 66 65
44 44 43 41 40 38 39 39 39 39 40 36 42 42 44 39 41 46 44 42 41 47 53 53 50 49 48 49 50 53 55 57 60 61 62 64 64 65 64 63 60 56 53
38 38 37 37 36 37 39 41 40 42 36 39 43 45 37 42 43 38 38 41 46 50 53 52 52 51 51 51 51 54 57 59 59 58 59 58 58 55 52 50 48 48 47
37 35 35 36 36 38 40 39 43 40 39 42 49 42 41 34 43 40 40 44 47 48 49 52 52 53 54 54 57 59 58 58 57 53 49 47 45 43 43 43 45 45 46
34 34 35 36 34 34 37 42 37 43 37 40 36 37 38 39 36 39 42 44 44 46 48 51 54 55 57 58 59 59 59 56 51 44 39 40 39 39 40 41 43 45 46
32 32 33 27 33 35 39 37 40 41 40 33 30 35 34 36 39 40 40 42 44 46 48 51 54 58 59 57 58 58 57 49 44 36 35 37 36 36 37 38 41 44 47
30 30 27 31 32 33 38 39 43 40 28 26 25 31 34 37 36 38 40 42 45 48 50 54 56 57 56 56 53 51 49 43 39 34 31 34 34 34 32 34 36 39 42
30 31 29 27 28 33 40 35 34 23 25 27 28 32 31 34 36 38 41 45 48 51 52 54 54 55 54 51 47 43 42 40 40 33 31 33 33 35 33 34 33 34 36
29 31 27 33 32 30 21 24 19 23 26 27 29 32 33 36 38 41 43 47 49 49 49 51 52 50 49 44 42 41 41 39 39 36 36 37 37 37 34 32 30 31 33
27 26 29 23 20 17 14 18 21 23 26 29 31 33 35 37 40 44 47 49 49 46 46 46 43 41 39 37 39 40 40 41 41 39 38 41 40 39 37 35 31 31 30
13 14 15 13 9 11 16 18 21 22 26 29 33 36 38 40 43 45 47 48 47 45 43 38 34 32 34 35 37 40 40 42 42 41 39 42 40 41 39 39 35 28 27
9 12 7 5 8 13 15 21 22 25 28 31 34 37 40 42 43 45 47 48 46 42 37 29 27 28 30 32 34 38 40 43 44 45 41 43 42 44 44 41 39 32 30

GFSMA_700_spd_060.txt.gz
Wind_Speed
16 16 16 15 14 14 14 12 12 12 11 11 12 12 14 15 14 14 14 14 14 14 14 15 15 15 15 15 15 15 16 16 17 18 19 19 20 21 21 21 22 22 22
18 18 18 17 17 16 16 15 14 15 15 15 15 16 16 16 15 14 15 15 15 15 14 15 16 15 15 16 16 17 17 18 19 20 21 21 22 24 24 24 24 24 25
19 20 19 18 18 18 17 16 15 15 17 18 19 18 17 17 16 15 16 16 16 15 15 15 16 17 17 17 18 18 18 20 21 22 23 24 25 25 26 27 27 27 27
20 20 18 18 19 19 18 17 17 18 20 20 19 18 18 17 16 16 16 16 16 15 15 15 15 17 19 20 20 21 22 22 23 23 25 26 27 27 28 29 29 29 29
20 20 19 20 21 20 19 20 21 20 21 20 19 18 17 16 16 17 18 18 17 17 17 17 19 21 21 22 23 24 25 27 27 27 27 28 29 30 31 32 31 31 31
23 22 22 22 22 21 20 21 21 21 21 21 19 18 16 15 17 18 19 19 19 20 20 24 28 25 24 24 26 27 28 30 30 31 31 32 32 32 33 34 34 34 34
27 27 24 24 23 22 22 23 23 23 22 22 21 19 18 18 19 20 21 22 22 24 24 22 24 25 26 27 28 30 31 33 34 35 35 35 35 35 35 36 36 36 36
30 29 27 26 25 25 26 26 23 24 24 23 22 22 21 22 21 22 23 24 25 26 25 26 27 27 28 29 30 32 34 36 37 37 37 38 38 38 38 38 39 39 39
34 31 31 29 29 27 28 27 24 25 26 24 23 24 25 25 24 23 24 25 26 27 28 29 30 30 32 32 34 36 37 39 40 39 39 39 40 41 40 41 41 42 42
39 37 35 33 31 31 30 29 27 26 28 25 25 29 29 28 26 29 26 28 28 30 32 33 33 34 35 36 37 40 41 43 43 42 41 41 42 43 43 43 44 45 45
38 35 33 33 32 34 32 31 29 26 24 27 30 28 33 32 30 32 30 30 31 32 34 35 36 37 38 40 41 43 45 46 45 44 44 44 45 45 46 46 47 48 49
46 43 39 36 34 33 34 33 32 29 27 31 32 28 36 37 33 34 33 35 35 35 36 35 37 39 41 42 45 47 48 49 47 47 47 47 47 48 49 50 52 53 54
48 44 41 39 36 33 33 34 35 34 29 30 31 37 35 38 39 38 39 35 39 36 37 38 39 41 43 45 47 51 50 49 49 49 49 49 50 51 53 55 56 58 59
44 45 43 39 38 37 36 36 36 36 33 33 37 40 35 40 42 36 42 37 43 39 39 42 41 45 45 49 49 51 50 51 51 51 51 51 52 54 57 58 59 61 62
41 40 41 41 40 39 39 37 36 37 36 39 38 42 38 43 41 43 47 43 47 44 46 43 44 43 45 49 50 51 52 52 53 54 55 56 58 59 61 61 63 63 63
40 41 44 43 41 42 40 39 39 40 40 42 41 41 39 39 44 50 47 47 44 47 50 45 44 46 48 48 48 50 51 53 55 56 58 60 62 63 63 62 62 59 57
37 38 38 40 40 41 41 40 41 40 39 41 40 42 42 39 43 40 43 46 41 43 46 43 46 46 46 47 47 49 52 55 57 58 59 61 61 60 58 56 52 48 45
37 37 38 37 36 35 38 39 40 38 38 36 40 45 39 42 42 38 42 39 38 39 44 47 46 47 48 48 50 52 55 58 59 59 57 56 56 53 51 46 45 44 43
35 37 37 34 34 34 36 36 38 35 44 36 39 49 40 42 36 37 37 36 39 41 43 46 47 47 49 50 54 56 59 59 57 54 50 50 48 44 42 40 41 41 39
32 34 33 32 32 32 36 37 38 38 41 39 42 34 40 36 31 35 34 35 39 43 42 45 47 50 52 54 56 58 59 57 54 46 40 41 40 38 36 37 39 38 38
26 28 30 29 30 31 32 30 38 28 37 34 36 31 29 30 31 32 34 38 39 42 43 46 49 51 53 54 55 56 55 52 45 37 36 35 34 34 33 36 37 38 39
28 25 22 26 28 25 39 30 34 32 34 29 25 27 28 28 29 32 34 38 40 43 45 49 51 52 52 52 51 47 44 41 41 37 36 34 34 34 34 38 36 36 34
24 18 19 24 26 31 24 29 22 22 20 21 25 27 29 29 32 33 36 41 43 44 47 49 50 48 47 43 41 39 39 39 40 39 41 40 40 39 38 37 35 33 31
13 17 21 23 21 17 15 17 15 15 19 20 25 28 30 31 33 37 41 43 42 42 45 45 43 40 36 34 36 38 39 41 42 42 42 45 42 42 41 38 35 30 29
8 10 17 11 6 7 11 11 13 17 21 23 26 29 31 34 38 42 44 44 43 41 40 35 31 29 29 30 33 37 37 40 42 42 42 48 43 43 41 38 35 30 23
4 10 8 3 2 6 10 12 16 18 21 26 29 32 37 40 42 42 42 41 40 36 31 25 23 24 26 28 30 33 37 41 43 45 39 45 42 44 42 37 34 30 28

GFSMA_700_spd_063.txt.gz
Wind_Speed
15 16 16 16 16 16 16 15 14 12 12 12 12 13 13 14 15 15 14 14 14 13 12 12 12 11 10 10 10 11 12 13 14 15 16 17 18 18 18 19 19 20 20
18 19 19 19 18 18 18 17 15 14 14 15 15 16 18 18 17 16 15 15 14 14 14 13 12 11 10 11 11 12 13 13 14 16 17 18 19 20 20 21 21 21 22
21 21 22 21 20 20 19 18 17 16 16 16 17 19 19 19 18 17 16 15 15 15 15 14 14 13 12 12 14 14 14 16 17 18 19 20 21 21 22 23 23 23 23
22 22 22 22 21 20 20 19 18 18 19 19 20 20 19 18 17 17 16 16 16 16 15 15 14 14 14 18 17 17 18 18 19 21 22 23 23 24 24 25 25 25 25
23 23 23 23 22 21 21 20 20 21 21 21 20 19 19 19 18 17 15 17 18 18 17 17 17 19 22 21 18 19 20 22 23 24 25 26 27 27 27 27 27 27 27
25 24 24 24 23 22 23 21 22 22 22 23 21 21 20 20 19 17 17 18 19 20 21 21 23 23 21 22 23 23 23 24 26 27 28 29 30 29 29 30 30 29 29
27 27 25 26 24 24 24 25 25 25 24 24 24 23 21 21 20 20 20 20 21 22 22 24 24 24 24 25 26 26 26 27 28 30 31 32 32 32 32 32 32 32 32
31 31 31 30 29 27 27 27 26 26 26 26 25 25 24 22 21 21 22 23 23 23 24 26 26 26 28 29 29 29 29 30 31 32 35 35 36 35 35 35 35 36 36
31 31 32 32 32 32 31 29 29 29 27 27 27 28 27 25 22 23 24 25 25 25 26 27 28 30 32 33 34 34 34 34 35 36 38 39 39 38 38 38 38 39 39
36 35 35 35 35 34 34 33 31 31 30 29 31 30 29 31 28 29 27 27 29 30 30 32 32 33 35 36 37 38 38 38 39 40 41 42 41 40 40 40 41 42 42
43 39 38 35 36 40 38 36 34 34 33 32 32 30 31 32 34 32 32 33 28 34 35 34 36 36 37 39 40 41 42 42 43 44 45 45 44 43 43 43 43 44 44
53 52 51 46 43 38 37 36 36 36 35 35 32 29 32 34 34 31 37 35 39 34 38 37 37 38 38 41 43 43 44 46 47 46 47 47 46 46 46 47 47 48 48
39 41 44 44 43 43 41 39 36 36 37 37 36 34 32 34 35 37 38 36 43 41 40 43 37 41 40 42 48 49 48 48 49 50 50 48 48 48 48 49 50 51 53
38 37 38 42 44 44 43 41 38 35 35 37 37 37 38 38 38 39 41 47 37 45 46 42 44 43 44 44 48 51 47 48 51 52 50 49 50 50 51 51 53 55 57
39 44 42 39 40 39 43 43 40 38 38 38 38 43 40 37 41 43 44 46 44 43 43 48 49 43 46 47 46 49 49 49 52 52 51 52 52 53 55 56 58 59 60
31 31 34 40 45 42 41 40 43 41 39 39 40 40 43 42 46 44 49 47 49 44 44 41 41 45 43 44 46 49 48 50 52 53 53 54 57 59 60 61 63 63 63
35 33 32 37 41 44 43 41 41 41 40 40 42 44 44 46 48 47 50 47 42 41 40 39 38 38 41 44 44 46 49 51 53 53 55 57 59 61 62 63 62 61 60
37 35 35 40 41 42 41 40 39 39 41 43 44 44 44 45 49 52 46 39 40 39 38 38 38 40 40 41 42 46 48 51 54 55 56 58 60 59 58 56 54 52 51
40 37 38 41 41 42 39 36 35 36 39 42 42 41 43 49 50 39 39 33 35 35 40 34 34 42 44 43 45 48 51 52 53 53 52 52 51 49 47 45 46 46 45
31 34 36 37 37 38 36 34 34 34 35 36 38 42 41 40 35 30 30 34 34 32 35 37 41 44 44 45 48 51 52 52 51 45 42 42 39 38 39 40 42 42 43
29 34 34 32 31 33 32 32 31 33 34 31 38 34 33 28 28 28 32 33 32 35 38 38 41 44 45 47 49 51 52 48 42 35 33 32 32 33 34 38 41 42 43
23 22 21 24 25 26 26 29 27 28 32 26 24 21 20 22 24 27 31 32 33 36 38 41 43 44 45 47 48 46 42 37 33 29 32 32 32 34 35 37 37 37 39
15 24 22 17 21 22 29 27 25 23 17 13 14 18 20 23 26 30 33 35 36 40 43 43 42 42 44 42 39 34 30 32 32 30 36 39 36 38 36 34 33 34 34
11 13 15 17 13 15 11 10 10 8 9 12 17 20 24 27 30 32 35 37 38 39 39 39 41 39 36 31 29 29 30 32 34 33 37 41 33 34 33 31 29 29 29
5 3 6 3 3 3 1 3 5 8 12 16 19 23 25 29 34 37 39 38 37 37 36 35 32 28 25 24 27 29 30 34 36 31 34 39 33 33 27 24 23 22 21
11 12 10 9 4 3 4 5 8 11 15 19 23 28 32 36 38 39 39 38 33 30 26 22 20 20 22 24 26 29 32 33 36 35 35 37 33 35 32 25 23 24 22

GFSMA_700_spd_066.txt.gz
Wind_Speed
19 18 17 17 17 17 18 17 17 16 15 15 16 15 15 15 17 17 17 16 14 14 13 12 12 11 9 9 9 10 10 11 12 12 13 14 15 15 16 16 17 18 18
22 21 21 21 21 21 20 20 19 18 18 17 18 18 18 18 19 19 19 17 16 14 13 13 12 11 11 10 10 11 12 12 13 14 15 16 17 17 18 18 19 19 20
25 24 25 24 24 24 23 23 22 21 20 19 20 20 20 21 21 19 19 19 17 16 14 14 13 13 12 12 11 12 14 14 15 15 16 17 19 20 21 21 21 21 21
26 26 27 27 27 26 25 24 23 22 21 21 21 21 22 22 20 19 20 20 18 17 16 16 16 16 15 15 17 18 17 16 17 17 18 19 20 21 23 24 24 24 23
27 28 29 29 29 28 27 26 24 24 24 23 23 23 23 22 21 21 21 20 19 18 19 19 18 19 20 21 22 19 19 20 21 22 21 21 22 23 24 26 27 26 26
33 32 31 30 30 29 28 27 26 25 25 25 25 25 25 24 23 23 22 22 21 20 21 21 22 23 24 23 23 23 23 24 25 25 26 26 26 26 26 27 28 29 30
35 35 33 32 31 28 28 27 28 28 28 27 27 27 27 26 25 24 24 24 24 23 23 23 24 25 26 26 26 27 28 28 28 29 29 30 30 31 31 31 30 31 32
32 33 34 34 33 30 30 31 31 30 31 30 29 29 30 30 28 26 26 26 26 26 26 26 25 27 28 28 29 31 32 33 33 33 34 35 35 35 36 36 35 34 34
31 32 35 34 35 35 35 35 34 33 33 31 32 32 33 32 29 29 29 29 29 28 29 29 29 30 31 32 33 34 35 36 37 38 38 38 39 39 40 40 40 38 38
33 34 35 34 35 36 36 38 36 36 37 35 36 35 34 35 32 34 33 34 33 30 30 33 32 33 34 37 37 39 38 38 39 40 41 42 43 44 43 42 42 41 41
40 41 41 39 40 39 39 39 39 40 41 40 38 37 36 36 35 36 38 37 36 36 35 37 39 37 39 39 43 43 42 40 41 42 43 45 48 47 46 45 45 44 44
50 47 47 46 45 45 42 42 40 41 44 44 41 41 39 38 37 36 35 40 39 36 38 42 42 45 44 43 46 45 45 45 44 45 47 47 47 47 48 47 47 47 47
41 41 42 44 47 48 50 50 48 44 42 43 42 42 42 40 38 38 42 42 40 41 43 43 45 47 42 49 51 46 47 48 50 49 48 46 49 50 49 48 48 49 50
42 41 40 40 41 45 48 49 49 47 44 45 44 44 44 43 42 43 43 40 44 46 48 46 46 49 44 45 50 50 50 47 50 51 49 47 49 50 50 50 51 52 53
42 41 42 41 42 42 44 44 45 47 46 47 48 48 43 42 43 44 44 48 47 44 48 51 48 53 48 53 47 47 47 51 47 49 50 48 48 50 51 52 53 55 56
36 36 37 38 42 44 44 43 42 43 45 48 48 48 39 42 44 43 47 44 49 53 52 52 54 52 49 43 46 44 45 47 47 47 49 52 52 52 54 56 58 60 61
39 39 39 39 38 37 39 42 45 44 45 44 47 42 43 43 40 43 46 49 49 59 55 55 44 41 42 43 42 43 44 43 46 50 51 52 54 56 58 60 62 63 64
42 41 40 41 43 42 39 40 45 45 43 44 42 40 39 35 44 46 46 48 53 52 47 38 38 39 42 42 43 43 44 46 48 49 52 54 56 57 59 58 59 59 56
35 37 40 41 43 42 41 42 47 44 40 39 38 37 36 38 41 45 44 46 43 40 34 35 36 39 37 41 41 43 45 48 48 48 51 52 52 52 50 48 47 45 43
24 24 27 31 37 41 41 40 39 39 36 33 32 34 34 39 43 45 39 36 32 31 32 34 36 38 40 42 43 45 46 48 47 46 49 47 42 40 38 39 40 42 44
21 23 26 29 32 34 36 33 30 32 31 29 31 35 37 40 36 33 29 29 30 32 32 37 38 40 41 43 44 45 47 47 44 40 38 32 33 34 36 38 38 39 41
22 24 22 22 25 26 27 32 28 25 27 27 37 36 37 26 22 24 27 29 32 33 36 38 40 41 41 42 43 44 43 40 32 27 31 29 32 33 34 32 30 33 35
17 25 24 28 22 25 27 31 28 19 27 23 24 23 19 20 21 25 28 30 34 37 40 41 41 39 40 39 38 33 30 29 27 27 33 34 32 33 30 26 27 30 34
10 11 11 12 11 6 12 8 9 13 14 14 14 17 20 23 24 28 31 33 36 39 39 38 37 35 33 29 27 25 26 26 26 27 32 36 30 30 26 23 22 25 29
7 2 5 6 8 6 5 4 4 6 3 8 16 19 24 25 29 33 34 36 36 35 33 31 28 25 22 21 24 25 27 30 31 26 30 34 30 33 27 22 21 23 26
12 11 9 8 7 5 3 1 6 8 12 16 20 24 27 31 35 37 36 32 27 23 20 17 16 16 19 22 24 27 29 30 32 30 33 36 28 34 34 21 23 23 25

GFSMA_700_spd_069.txt.gz
Wind_Speed
20 20 19 18 17 17 18 18 18 18 18 17 17 17 18 18 18 18 21 19 17 15 14 13 12 12 11 11 10 10 9 9 9 10 10 11 12 12 13 13 14 15 16
25 23 23 22 21 21 21 21 22 21 21 20 20 20 20 20 20 21 24 20 18 17 15 14 14 13 12 12 11 11 11 11 12 12 12 12 14 15 15 15 15 16 17
27 26 26 26 24 24 24 25 25 25 24 24 23 22 22 22 22 23 24 21 19 18 18 16 15 15 14 14 13 13 13 15 16 15 15 15 16 17 18 19 19 20 20
27 28 28 29 28 27 27 28 28 28 27 26 25 24 24 24 24 23 22 23 20 20 20 18 18 18 17 16 16 18 19 19 17 17 18 18 18 18 19 20 21 22 23
28 29 28 29 30 30 30 31 30 30 29 28 28 27 25 25 25 24 23 23 23 23 20 19 19 20 20 20 21 22 22 21 21 21 21 22 22 22 22 23 23 24 24
34 33 33 32 32 34 33 33 31 30 30 30 30 30 29 27 26 26 25 24 24 24 24 21 22 22 22 23 24 24 24 25 25 26 26 26 26 26 26 27 27 27 27
37 36 36 36 37 37 35 33 33 32 32 32 33 33 32 30 29 28 27 27 26 25 27 26 24 25 25 26 26 27 27 27 29 30 30 31 31 31 32 32 32 32 31
37 38 37 36 36 36 37 34 33 32 33 33 34 34 36 35 32 30 30 30 29 28 29 29 28 29 28 28 28 29 29 30 32 33 34 35 35 35 35 35 36 36 36
37 37 37 35 35 36 36 35 34 33 34 35 35 38 39 39 34 33 31 31 33 32 31 31 31 32 32 33 31 33 32 34 35 37 37 37 38 38 39 39 38 40 40
41 40 37 37 37 37 37 35 37 36 37 39 38 40 41 38 36 37 35 34 35 36 35 35 35 36 34 36 36 35 34 37 39 40 41 41 40 41 42 43 44 45 42
44 43 41 41 42 41 41 40 39 40 39 40 40 41 41 41 40 39 41 37 38 39 39 38 38 41 40 41 40 42 44 44 44 45 43 44 45 44 45 46 46 44 44
42 45 46 45 46 47 46 45 45 44 42 43 44 43 44 45 43 41 41 43 41 39 40 41 43 41 41 41 45 43 46 52 49 50 49 45 48 49 49 48 45 47 48
38 39 42 50 51 52 53 52 50 50 47 47 47 46 46 45 46 44 45 45 46 43 42 44 45 46 46 43 45 49 53 51 54 50 48 49 51 48 50 49 47 47 48
39 39 36 38 42 46 49 51 51 51 50 49 50 52 51 47 46 49 48 49 55 47 46 48 46 44 54 45 48 54 52 53 52 50 51 51 52 54 48 49 48 47 49
38 39 38 40 42 44 46 46 46 47 48 48 49 52 51 49 47 49 53 57 54 51 48 48 50 47 48 55 56 49 49 56 52 47 49 51 51 50 49 49 49 50 51
35 34 35 36 36 38 41 45 47 47 47 46 45 46 47 49 49 51 57 40 48 51 46 45 48 50 51 52 53 49 47 44 46 48 48 50 52 50 52 53 52 53 54
39 40 40 40 40 40 40 42 43 46 47 48 47 45 44 44 47 42 48 45 46 43 42 40 47 52 51 50 43 43 42 45 45 44 47 50 49 50 51 52 54 55 56
42 42 44 45 45 45 44 44 44 43 42 43 43 44 43 43 43 44 45 37 37 36 41 44 47 48 43 38 38 39 41 43 43 42 45 47 48 51 52 53 55 55 54
35 37 38 38 39 41 44 47 47 45 45 42 39 36 38 39 37 37 41 36 43 45 46 46 40 36 35 37 39 42 42 41 42 44 46 47 49 50 50 50 49 46 43
23 24 26 28 29 29 31 35 39 41 41 43 44 34 32 32 33 35 36 42 43 43 38 33 33 35 37 38 40 41 42 43 43 44 46 47 45 42 39 39 37 38 40
23 25 26 28 28 29 30 29 28 31 32 34 31 34 28 27 35 36 38 41 39 31 33 33 35 37 38 40 41 42 43 43 40 41 40 33 33 30 31 33 34 37 39
20 26 24 24 21 20 18 23 24 28 30 26 30 30 21 31 31 34 29 26 28 32 34 35 36 37 38 40 40 39 37 33 27 24 28 23 30 29 30 31 31 32 35
17 14 19 18 17 17 18 19 18 20 26 33 25 15 24 21 20 21 24 28 32 34 36 36 37 38 37 34 29 26 25 24 24 25 30 29 29 29 28 26 27 30 33
9 10 9 10 8 5 6 7 15 12 9 8 9 11 7 12 22 25 28 30 34 36 37 37 34 27 22 20 19 20 23 24 24 26 31 34 29 30 26 23 25 28 31
1 4 7 8 8 8 7 6 5 3 2 3 8 14 20 23 25 29 33 35 38 36 30 22 15 13 14 17 20 21 23 25 26 23 29 32 28 32 24 19 21 24 26
8 8 9 9 9 8 6 5 7 9 11 14 18 22 26 30 32 34 35 33 27 18 11 9 10 12 15 17 20 22 24 25 28 26 32 32 28 34 31 18 21 24 25

GFSMA_700_spd_072.txt.gz
Wind_Speed
20 20 18 18 18 18 16 17 17 18 18 18 19 18 18 17 18 18 18 18 19 17 16 15 14 14 12 12 11 11 10 10 9 9 9 10 9 10 10 11 12 13 14
23 23 22 21 21 20 21 20 22 22 21 22 21 21 20 20 19 21 21 21 20 18 16 16 16 15 14 13 13 12 12 12 11 12 13 13 13 13 14 14 14 15 16
24 25 25 24 24 23 23 23 24 25 25 25 24 24 24 22 22 23 23 23 19 18 18 17 17 17 16 15 15 15 15 15 15 16 16 16 15 15 15 16 16 17 17
24 25 26 25 25 25 25 26 27 27 28 28 27 27 25 25 24 24 27 23 20 18 19 19 19 19 18 17 17 17 18 19 20 19 18 18 18 18 19 19 19 19 19
26 28 28 27 26 26 26 26 27 29 29 30 30 30 28 27 27 26 25 27 22 20 20 21 21 22 22 21 20 20 20 22 21 20 21 21 22 22 22 22 23 23 23
28 29 31 32 33 33 30 29 29 30 31 31 32 33 31 30 29 28 28 27 27 25 22 22 23 24 25 24 23 23 22 23 23 25 25 25 25 26 26 27 26 26 27
32 30 30 32 34 37 36 35 34 33 31 32 33 35 34 32 30 32 31 30 28 27 29 25 25 27 28 27 27 26 26 25 25 26 27 27 28 30 30 30 30 30 30
37 36 35 33 33 36 38 36 36 35 32 31 32 33 35 35 34 32 34 33 32 30 30 31 28 29 30 30 29 29 30 29 29 28 29 31 32 33 34 33 33 33 34
40 39 38 37 35 36 36 37 35 36 34 32 33 32 34 37 35 34 34 35 35 34 32 34 33 32 31 31 32 33 32 32 32 31 32 32 35 36 37 38 37 37 37
42 43 44 41 40 40 39 38 39 37 39 36 37 36 36 39 38 38 35 35 36 38 36 34 37 36 37 37 37 34 34 35 34 37 37 39 41 41 42 42 42 42 42
41 42 44 45 43 44 43 42 41 42 42 42 40 39 39 40 41 41 41 41 43 41 39 39 42 40 41 43 41 40 39 36 36 39 39 40 43 50 47 47 47 47 46
36 36 35 38 44 48 48 45 44 44 46 44 44 45 44 42 43 43 43 42 42 42 43 45 45 45 44 47 44 43 42 43 38 40 43 45 46 47 53 50 49 50 47
35 35 35 34 36 39 46 50 49 49 48 50 50 50 49 47 46 44 44 45 47 49 49 56 46 47 51 47 46 36 43 40 42 40 42 50 47 52 49 49 52 51 48
35 37 38 37 36 37 37 39 42 46 49 48 49 50 51 50 49 49 48 47 49 50 51 52 50 58 55 44 39 39 39 43 45 43 45 47 50 52 48 48 49 50 46
32 33 33 32 32 33 35 39 42 44 45 45 45 45 46 46 45 45 46 46 47 51 50 56 58 46 56 48 46 44 38 39 44 40 44 46 45 43 44 47 48 48 48
32 33 34 35 35 35 35 37 37 39 42 43 44 44 43 44 43 42 43 43 44 48 49 49 49 47 43 33 36 39 42 43 40 38 38 40 40 43 45 46 47 46 47
33 35 36 38 38 39 40 40 41 42 43 43 43 41 41 41 41 41 41 40 42 43 43 37 40 36 36 40 43 41 37 36 35 36 38 39 41 43 44 45 46 45 47
31 33 35 37 38 39 41 42 43 45 47 47 44 41 39 38 37 37 37 35 36 38 38 34 40 39 39 38 34 32 34 35 35 36 38 40 42 44 45 47 47 48 49
23 26 28 30 30 31 32 32 34 37 39 41 42 42 38 35 34 30 31 35 32 37 34 40 36 38 35 30 31 32 32 34 36 39 41 42 44 44 45 45 44 43 41
17 20 22 25 26 28 28 29 31 30 29 28 29 30 32 37 35 29 33 31 32 33 38 34 36 30 30 31 32 33 33 36 37 41 42 40 38 35 33 32 31 31 33
16 20 23 25 28 28 29 28 31 32 28 27 24 23 25 29 30 34 34 27 26 31 29 27 28 30 33 33 34 36 38 34 29 28 24 23 25 24 26 29 30 32 34
14 17 22 19 21 22 21 23 19 21 18 16 22 23 23 24 27 35 20 19 20 21 26 27 30 32 34 36 36 31 21 17 17 25 26 21 29 27 27 28 30 32 34
14 14 14 11 11 10 9 9 11 11 13 19 18 22 23 21 17 13 10 16 24 27 30 31 34 36 34 28 16 14 17 18 21 24 28 21 26 25 24 23 26 29 31
11 10 8 9 9 10 12 13 12 9 8 8 8 7 7 10 12 16 23 26 27 30 32 33 31 26 16 11 12 14 17 18 20 23 29 25 26 23 22 21 24 26 28
1 3 5 8 10 11 12 11 11 11 12 13 14 15 18 20 23 26 29 30 31 32 30 25 15 10 11 12 14 16 19 19 18 19 26 26 25 26 20 17 20 23 26
6 5 7 8 9 9 10 11 12 14 16 18 20 22 24 26 27 28 28 28 26 23 16 9 9 10 12 13 15 17 18 19 23 21 27 25 24 31 25 15 16 20 22

GFSMA_700_spd_075.txt.gz
Wind_Speed
16 17 17 16 16 16 16 16 16 15 16 17 18 19 20 19 17 17 16 15 17 18 17 15 14 14 13 12 12 11 11 11 11 10 10 10 10 10 10 10 10 11 11
18 18 19 20 19 20 19 19 20 19 19 20 21 21 21 23 20 19 20 17 18 19 17 16 15 15 14 13 13 13 13 13 12 12 13 14 14 13 13 12 12 12 12
20 21 21 21 22 22 23 22 22 23 22 22 22 23 24 24 24 22 21 20 20 20 19 18 17 16 16 15 15 15 15 15 15 16 17 17 17 16 15 15 15 15 14
19 20 19 19 20 22 24 24 24 24 25 24 25 25 26 25 25 26 24 22 22 20 21 20 20 18 17 17 17 17 17 18 18 18 18 18 17 18 19 19 19 19 19
21 21 21 22 24 25 25 25 25 26 26 27 27 28 29 29 27 28 27 25 24 23 22 23 22 21 20 19 19 19 19 20 20 20 20 20 21 22 22 22 23 23 23
24 25 25 25 26 27 28 28 29 31 31 32 31 31 32 32 32 30 30 28 27 25 25 24 24 24 24 23 23 22 22 23 22 22 22 22 22 23 24 24 25 26 27
28 29 29 29 29 29 28 29 30 31 31 32 33 33 32 32 32 31 31 31 31 28 27 27 27 27 27 27 26 26 26 26 26 26 25 26 25 25 26 26 26 27 26
32 33 32 32 31 33 33 31 31 30 31 33 33 33 35 33 31 30 31 32 32 34 31 28 30 29 29 31 30 30 29 30 30 31 30 29 28 28 28 28 29 29 30
36 36 36 37 36 35 35 35 34 34 35 34 35 34 37 37 34 32 32 32 33 34 34 32 29 32 32 32 34 33 34 34 33 34 33 32 31 32 33 33 34 35 35
41 40 39 39 40 41 41 39 38 37 38 37 37 38 38 38 38 39 36 35 36 36 35 34 34 43 37 36 34 37 37 37 37 37 36 37 37 38 39 34 35 40 44
42 41 43 44 45 44 43 41 41 40 43 43 42 42 41 42 42 42 41 40 40 39 40 37 38 40 39 43 42 43 45 43 41 41 37 37 38 39 37 41 38 39 43
33 35 36 36 37 38 37 38 40 43 45 46 47 45 44 43 43 45 45 44 42 46 47 42 40 41 45 49 51 45 52 52 44 43 35 35 37 39 38 42 45 46 46
33 33 34 34 32 32 32 34 35 36 38 42 44 47 48 50 48 47 47 47 47 48 46 44 43 51 50 45 52 44 48 49 39 35 27 30 37 39 43 47 47 46 48
32 31 31 31 31 32 33 35 37 37 37 37 38 40 42 40 41 44 44 44 46 45 44 46 43 50 50 45 48 45 38 44 44 42 35 32 35 43 43 43 46 46 44
26 26 27 28 30 31 31 32 34 35 37 39 40 41 42 43 41 40 41 40 40 42 42 40 41 44 50 31 35 34 33 28 29 31 37 40 38 39 39 40 39 40 41
30 30 30 30 30 32 33 35 35 36 38 39 40 41 41 41 39 38 38 38 41 39 37 36 36 37 36 33 27 29 32 31 33 35 39 38 34 34 34 36 36 38 39
32 31 31 31 32 34 35 36 36 39 40 41 43 45 44 43 40 36 34 35 35 36 37 35 34 26 28 30 32 32 32 30 28 29 30 31 32 31 34 36 38 39 41
29 28 27 28 29 28 29 31 32 35 35 34 36 37 38 40 40 36 33 34 36 33 30 31 31 30 31 35 34 33 27 24 25 28 30 31 33 34 36 39 41 43 44
22 22 22 23 21 21 25 27 28 30 30 31 30 30 28 28 28 28 32 33 33 31 28 33 33 27 35 32 29 27 27 26 29 31 33 34 35 36 36 36 35 34 34
18 19 19 16 16 21 25 28 28 28 29 31 31 29 25 23 22 24 25 27 29 31 34 32 28 28 27 23 24 27 27 29 32 32 29 24 22 21 22 24 26 28 30
16 16 14 13 16 19 21 22 23 23 23 23 22 24 22 23 22 20 22 24 28 33 25 28 19 21 23 25 27 28 29 28 23 16 17 21 20 21 24 26 28 30 32
12 11 11 11 12 12 12 11 11 13 14 12 16 13 15 13 17 20 22 29 19 19 17 17 21 26 26 28 30 28 18 11 15 16 15 21 21 22 24 26 29 31 32
11 10 9 6 7 5 5 6 6 7 9 11 11 12 11 8 8 10 11 13 14 19 24 26 26 28 29 28 21 10 9 11 14 19 17 15 20 20 21 24 28 29 30
10 5 3 3 1 3 7 9 10 10 10 11 12 13 15 15 17 20 22 24 27 29 30 31 30 28 22 13 9 9 11 13 16 20 24 18 20 20 19 22 26 28 30
5 4 5 5 5 6 6 8 8 10 13 15 17 18 19 20 22 23 24 26 27 28 28 25 22 14 8 8 10 12 12 14 15 19 25 24 22 21 17 18 22 26 29
9 7 6 5 4 4 5 7 10 13 15 17 20 21 22 24 24 24 24 23 23 23 21 16 9 8 9 11 12 14 15 16 16 17 22 20 20 25 19 12 16 21 23

GFSMA_700_spd_078.txt.gz
Wind_Speed
16 16 16 15 15 15 15 16 16 16 16 16 16 17 16 16 16 16 17 17 17 18 18 17 15 14 14 14 14 13 12 11 11 11 11 10 10 10 10 11 11 11 11
17 18 18 17 16 16 18 19 19 19 19 19 20 20 20 19 19 19 19 18 18 19 19 19 16 16 16 16 16 15 14 13 13 12 13 14 13 14 13 12 12 11 12
17 18 18 17 17 17 18 19 19 20 21 21 22 22 23 23 22 21 21 21 20 20 20 20 19 18 18 17 18 17 16 16 16 16 16 17 17 16 15 14 14 15 15
20 19 19 18 18 18 18 18 19 20 21 22 23 24 24 26 25 24 24 25 24 23 22 21 21 20 20 19 19 20 19 19 19 18 19 19 19 18 18 18 18 18 19
19 20 18 18 19 20 21 23 24 25 25 26 27 27 28 28 29 28 27 27 27 26 25 23 23 22 22 22 21 22 22 22 21 21 21 21 21 22 22 22 22 21 22
22 22 22 22 24 25 24 25 25 25 26 28 30 31 30 29 30 31 29 29 28 28 28 26 26 25 24 25 24 24 25 26 25 25 24 24 24 24 24 24 24 23 23
24 24 24 26 28 27 26 26 27 28 27 27 30 31 31 31 30 30 30 29 28 28 28 28 28 29 26 28 29 28 28 28 29 29 28 28 27 27 26 26 26 27 26
29 29 29 30 31 30 29 30 30 30 30 31 33 33 35 33 31 30 30 30 29 30 30 31 30 33 34 36 36 32 32 31 33 34 34 32 31 30 30 30 29 28 28
32 34 34 33 32 33 34 33 32 33 34 34 34 34 38 37 34 32 31 32 34 35 34 32 33 34 35 37 38 36 43 40 38 39 38 38 36 35 33 32 32 32 33
37 39 39 38 37 37 38 38 38 39 38 38 36 36 38 38 40 41 36 35 37 37 39 37 38 41 38 44 39 41 42 45 44 44 44 45 43 40 39 38 37 34 35
41 42 42 41 40 42 43 43 40 38 37 38 39 39 40 43 43 43 45 41 39 40 41 42 43 45 46 49 45 40 45 45 46 44 39 46 53 48 46 40 32 32 33
40 41 40 39 38 38 38 35 34 35 35 35 37 37 39 42 44 42 45 45 46 45 46 44 42 41 40 44 47 44 45 46 38 39 47 43 42 44 38 32 29 34 37
35 34 33 30 33 34 34 34 32 33 34 35 35 36 37 37 38 40 38 47 43 46 45 43 41 41 41 39 42 42 39 41 44 41 36 35 34 32 30 30 34 36 42
29 29 28 27 28 29 31 32 32 32 32 33 35 36 37 37 38 39 40 41 42 42 41 41 42 39 38 39 43 33 37 25 29 28 21 20 23 26 31 35 37 41 44
25 24 24 25 26 28 29 29 30 31 32 34 36 37 37 39 39 38 38 38 37 40 37 38 40 46 41 38 33 30 16 29 23 22 27 27 32 31 32 39 40 38 39
27 27 28 28 29 31 31 31 32 33 34 36 37 38 39 40 41 42 43 42 36 33 31 34 36 36 34 37 22 23 23 23 26 26 29 31 33 31 30 30 31 32 34
32 32 32 31 32 32 32 32 32 33 32 32 33 34 34 35 36 37 39 38 36 33 33 34 33 33 34 32 29 20 27 26 27 28 26 27 27 28 28 30 32 34 36
33 31 30 30 30 30 30 30 29 27 26 29 31 31 31 31 32 32 30 30 28 30 31 31 33 33 32 26 32 26 32 28 21 22 24 25 26 29 30 32 34 36 36
27 26 26 25 25 25 26 25 22 24 28 30 30 31 30 32 31 27 23 22 25 28 30 32 29 33 32 36 27 30 26 23 23 25 25 27 29 29 25 23 23 25 27
22 21 21 21 22 22 21 20 20 23 26 27 27 26 25 26 26 24 20 22 24 25 25 26 28 30 31 27 28 25 25 25 26 28 28 25 19 18 21 23 24 27 29
18 17 18 17 17 17 17 16 19 20 18 18 18 17 20 18 19 20 18 18 21 21 26 30 30 24 21 20 22 24 28 29 30 25 16 16 17 19 19 21 24 27 28
15 15 14 14 12 12 12 13 11 10 9 7 6 6 10 10 9 10 12 13 14 15 14 15 16 18 19 25 30 30 29 24 16 12 15 18 16 19 20 23 25 28 31
13 12 12 12 11 10 7 4 0 4 3 5 8 11 13 14 15 16 17 20 21 22 23 25 27 29 30 30 29 26 18 13 14 14 14 19 17 19 21 24 26 29 32
13 11 9 9 8 4 5 5 3 2 5 7 10 12 14 16 18 20 21 23 24 25 26 27 29 29 28 26 20 12 12 14 16 16 16 15 17 19 21 24 26 31 34
10 8 8 8 7 8 4 2 1 4 6 9 12 14 16 18 19 21 22 23 24 24 24 25 24 23 19 13 11 12 13 14 17 20 20 17 17 16 16 20 23 29 32
10 11 10 10 7 4 2 2 4 6 9 12 14 15 18 20 21 22 23 23 24 23 22 21 18 13 10 11 13 14 15 16 17 19 21 19 19 20 15 13 18 25 29

GFSMA_700_spd_081.txt.gz
Wind_Speed
16 15 15 14 13 14 14 14 15 15 15 16 17 16 16 15 15 16 17 17 17 17 17 17 18 16 15 15 15 15 14 14 14 13 13 12 11 11 12 13 13 12 10
17 17 16 15 15 15 15 16 16 17 18 18 19 19 19 18 18 18 19 19 19 19 19 19 19 18 17 17 17 17 16 16 16 16 16 15 15 15 15 15 15 14 12
17 17 16 15 16 16 16 17 17 18 19 19 20 20 20 20 20 21 21 21 21 21 20 21 20 20 19 19 19 18 18 18 19 19 19 19 18 17 17 16 16 16 16
16 15 16 15 16 17 17 18 19 20 21 22 22 23 23 23 22 23 24 23 23 23 23 23 23 22 21 21 21 21 21 21 22 22 22 22 22 21 19 19 18 19 20
18 16 16 17 18 18 18 19 20 21 22 24 24 25 26 26 27 27 26 25 25 25 25 25 26 25 24 23 24 24 24 24 25 26 26 26 26 25 24 23 22 22 21
17 18 19 20 21 21 21 22 23 24 23 25 27 27 27 26 27 27 26 26 25 25 25 26 27 27 27 27 25 26 27 27 28 29 30 30 30 29 28 27 26 25 24
22 22 22 22 23 24 25 26 26 26 27 28 29 29 30 30 29 27 26 26 26 25 25 26 28 29 30 31 30 29 32 37 35 33 34 34 34 34 33 32 31 30 28
26 26 26 26 28 29 29 29 30 30 32 30 32 34 37 35 30 28 28 28 27 28 28 30 30 31 33 35 39 38 39 38 43 41 40 42 39 39 38 38 36 35 33
29 30 31 31 32 33 33 32 33 34 34 32 33 37 40 41 37 31 30 31 31 30 31 32 32 33 39 42 44 44 48 45 42 46 48 50 48 49 47 44 40 40 38
33 33 34 35 35 37 37 37 36 36 37 39 38 36 36 38 39 42 37 36 36 35 35 35 37 36 35 38 40 43 44 47 45 44 48 43 44 48 49 47 46 46 43
38 38 39 41 40 41 41 41 40 41 40 38 36 33 35 38 37 40 41 40 39 38 37 39 40 43 39 46 44 43 40 43 41 35 37 35 34 32 36 40 42 46 49
40 41 41 42 41 40 39 39 38 37 34 33 33 33 33 34 37 36 41 40 41 39 39 39 40 37 40 44 45 46 37 46 45 40 35 34 34 29 27 29 32 34 34
38 38 39 39 37 34 32 34 35 34 32 32 34 34 34 35 35 36 38 40 42 41 39 39 37 40 40 41 38 47 46 45 36 36 33 35 22 22 23 15 20 27 27
35 36 37 37 35 32 32 34 34 33 32 30 30 30 32 33 33 33 36 37 40 41 42 40 37 35 35 35 34 36 35 39 33 17 23 26 20 27 26 24 23 26 31
28 27 27 27 26 26 27 28 28 29 29 30 31 33 34 34 36 37 37 37 39 43 43 41 38 35 33 34 32 31 32 32 30 26 21 25 26 28 30 28 30 32 35
27 26 26 26 27 27 28 29 30 31 31 33 34 35 35 35 34 34 34 33 33 35 38 38 34 31 32 35 33 30 29 25 23 20 24 26 27 31 31 29 27 27 29
30 30 30 30 31 31 32 33 32 32 33 33 33 33 32 29 30 31 31 32 33 33 33 33 30 30 31 33 31 27 29 28 25 24 27 28 28 25 24 25 27 29 30
33 33 33 33 32 32 31 31 31 31 30 29 31 29 28 28 30 30 31 32 32 29 29 27 28 28 30 32 32 29 32 34 26 26 21 23 23 25 27 27 29 30 27
30 30 29 28 27 27 27 26 26 26 25 28 27 25 25 26 26 25 28 28 26 25 27 28 27 27 29 29 30 28 31 25 25 23 25 25 27 27 28 24 19 19 21
24 24 24 23 23 22 22 23 21 21 24 24 21 19 19 18 20 20 21 20 19 21 23 23 22 21 26 29 31 26 25 26 23 25 27 28 28 21 16 17 18 19 20
20 19 19 19 19 20 19 18 18 19 19 16 13 11 10 8 7 8 10 11 13 16 18 18 18 19 21 23 23 25 25 27 29 30 30 23 15 15 16 17 19 20 21
18 17 17 17 16 15 14 14 15 13 11 7 2 1 7 8 10 12 15 17 19 21 23 24 25 26 25 25 26 30 33 33 32 29 19 15 15 17 18 19 20 22 24
17 17 16 14 13 13 12 11 9 7 4 2 4 6 8 10 13 14 16 18 20 22 24 25 26 27 29 30 31 32 30 28 25 15 16 19 16 19 19 21 21 23 25
17 15 13 12 11 10 8 7 7 5 4 5 6 9 10 12 14 16 18 20 21 22 23 25 26 26 27 28 28 26 23 17 16 17 16 17 20 19 20 21 21 23 25
15 14 13 11 9 9 10 9 7 5 6 8 9 11 13 14 16 18 19 21 22 23 24 24 24 24 24 23 19 16 15 17 19 20 20 19 20 18 20 21 21 24 28
14 13 12 11 11 11 10 9 7 8 9 10 12 14 15 16 17 18 20 21 23 23 24 24 23 22 20 16 15 16 19 21 22 23 24 22 21 21 17 20 21 24 29

GFSMA_700_spd_084.txt.gz
Wind_Speed
15 14 14 13 13 12 12 12 12 12 13 14 15 15 15 15 15 16 16 16 16 16 16 16 17 17 16 15 15 15 15 14 13 13 13 13 13 13 13 13 13 12 10
18 17 16 15 14 14 13 13 13 14 15 15 16 16 17 17 18 19 19 19 19 19 18 19 19 19 18 17 17 17 17 16 16 16 16 16 16 16 16 16 15 15 13
17 17 15 14 14 14 13 13 14 15 16 16 17 18 19 19 19 20 20 20 20 20 20 21 21 21 21 21 20 20 20 19 19 20 20 20 20 20 20 19 19 17 17
16 15 14 15 16 14 14 16 16 15 17 18 19 21 21 22 22 23 23 23 23 22 22 22 22 22 22 23 24 23 23 23 22 23 24 24 24 25 25 24 23 22 21
16 16 17 17 16 16 16 17 18 18 19 21 21 22 22 23 22 22 22 23 23 22 21 22 23 23 24 24 26 27 28 26 27 26 27 28 29 29 29 28 27 27 26
17 16 16 18 18 19 20 21 22 22 22 23 24 24 25 24 24 24 23 23 22 21 22 23 23 23 24 25 27 29 32 34 32 31 31 32 33 34 34 33 32 31 31
20 21 21 21 21 22 22 24 25 26 26 26 29 29 28 27 26 25 25 24 24 24 24 23 24 26 28 29 30 32 34 38 44 40 39 40 41 40 39 38 38 36 36
24 25 24 24 26 27 26 27 29 30 30 29 33 34 34 32 32 29 26 27 26 26 27 28 28 29 29 29 29 31 35 39 45 48 38 40 45 47 50 44 44 42 41
29 29 28 29 29 30 30 31 31 33 33 33 34 35 38 41 40 35 31 28 29 31 31 32 34 34 35 35 34 34 34 37 35 41 42 35 30 30 31 37 39 49 48
31 31 31 32 32 32 33 33 35 35 36 38 38 38 39 39 38 38 32 30 29 32 31 32 31 31 32 38 38 39 36 35 40 43 41 45 38 34 32 29 31 35 37
32 33 34 35 35 36 38 38 38 39 39 38 39 38 35 35 33 34 38 36 38 31 32 32 33 33 35 31 38 32 39 38 39 43 45 41 37 41 35 30 30 26 29
36 38 39 39 39 40 40 39 38 38 37 36 34 34 33 33 32 34 36 37 37 35 35 33 34 34 33 34 33 35 35 37 39 32 33 27 34 39 34 28 21 21 18
38 38 39 39 40 40 40 38 37 36 36 34 35 34 33 33 34 34 34 36 38 37 36 35 34 33 33 33 33 33 34 31 31 30 28 13 22 30 28 25 22 21 23
37 36 36 37 38 39 38 37 38 37 36 34 32 31 31 30 31 33 34 35 37 37 36 36 33 31 29 30 31 30 29 30 29 29 25 31 16 23 23 24 27 26 27
34 33 32 32 31 32 31 31 31 30 29 30 29 30 31 32 33 33 33 33 34 35 33 31 33 31 28 27 26 25 28 30 28 23 23 25 21 24 26 25 26 27 28
29 29 28 28 27 27 26 27 28 28 29 30 31 31 33 33 32 31 31 31 30 30 32 32 31 28 27 25 24 26 25 23 24 25 22 25 23 26 27 25 28 25 24
30 30 30 29 30 30 31 32 32 32 33 31 31 31 30 29 28 30 30 28 28 28 29 30 26 27 27 27 27 26 26 27 24 27 26 22 26 22 21 21 22 25 26
32 32 32 32 32 33 34 34 34 33 31 29 27 26 25 26 28 28 26 24 24 24 24 23 24 26 27 28 26 27 28 21 19 20 21 23 21 20 22 24 26 28 28
32 31 32 32 31 32 31 30 29 27 25 24 23 23 23 25 24 21 19 20 20 19 17 19 19 20 21 21 22 23 22 23 19 19 22 20 22 23 26 28 29 27 20
29 29 28 27 27 26 25 24 23 21 21 21 21 21 22 18 16 15 10 9 10 11 13 17 20 21 21 21 21 21 21 21 21 20 22 24 27 29 29 25 18 17 18
25 24 24 23 23 21 20 19 19 18 17 17 18 17 13 9 7 8 10 11 14 15 17 20 22 23 24 25 26 25 25 25 26 27 31 32 31 25 16 16 17 18 19
22 22 20 19 17 17 17 15 15 14 14 13 12 7 8 9 9 11 12 14 16 18 19 21 23 24 25 26 27 28 28 30 32 32 32 31 19 16 16 18 18 19 20
21 19 18 16 16 15 14 13 12 11 9 7 6 7 9 9 11 13 15 16 18 19 20 22 22 23 24 25 27 27 28 28 28 27 22 19 15 17 19 20 20 21 21
18 17 16 15 14 12 12 10 9 9 8 6 7 9 9 11 13 15 17 18 19 19 20 21 22 23 24 24 24 24 24 22 21 18 16 19 22 21 23 23 22 22 22
17 17 15 14 13 12 11 11 9 8 8 8 9 10 12 13 15 17 18 19 19 20 20 21 21 22 22 22 22 21 20 19 20 21 21 23 23 23 26 26 24 24 24
17 15 15 14 14 13 12 10 10 9 10 10 12 13 14 15 16 17 18 18 19 19 20 21 21 21 21 21 21 20 21 22 23 26 27 28 26 27 25 25 25 25 26

GFSMA_700_spd_087.txt.gz
Wind_Speed
14 13 13 12 12 11 11 11 11 11 11 11 11 12 13 13 14 15 15 16 16 17 17 17 17 17 18 17 16 15 15 14 14 14 15 15 14 14 14 14 14 14 13
18 17 16 15 15 14 13 12 12 13 13 12 13 14 14 15 15 16 17 17 18 18 19 20 19 19 19 20 19 18 18 17 17 17 17 18 17 17 18 18 17 17 16
20 19 17 16 15 14 14 14 14 14 15 13 14 15 16 17 18 19 20 20 21 21 22 22 22 21 21 22 22 21 21 21 20 20 21 22 22 21 21 22 22 21 20
17 17 15 15 15 15 15 15 15 14 14 15 16 17 18 17 19 20 19 20 20 21 22 23 23 22 22 23 23 25 24 24 24 24 24 25 27 27 26 26 25 25 24
16 15 15 16 16 17 16 16 16 17 18 19 19 20 20 20 21 22 21 21 21 22 22 22 22 23 23 23 24 26 28 27 26 26 27 28 30 31 32 31 30 29 29
17 16 16 17 17 17 18 19 20 21 21 23 24 23 23 24 25 22 23 22 23 24 24 24 23 24 25 25 26 26 28 31 28 28 31 32 37 39 36 38 35 35 35
19 18 18 19 20 20 21 22 23 24 25 27 28 27 27 28 27 26 26 27 27 26 25 26 26 27 28 28 28 28 29 27 32 33 27 33 33 33 35 34 41 44 47
20 20 21 22 24 25 26 26 27 28 29 29 31 32 33 31 30 30 32 30 26 26 27 28 30 31 31 32 33 33 31 27 28 35 39 32 35 33 38 38 27 30 33
26 27 28 28 28 28 28 29 30 31 32 32 32 35 37 40 38 34 31 28 24 23 25 28 30 33 32 30 33 32 33 35 35 38 37 38 37 39 41 33 36 38 34
31 32 32 32 32 32 31 31 33 34 35 35 36 37 38 38 37 39 33 28 26 27 28 29 31 31 31 30 31 32 31 31 30 27 33 39 35 28 27 34 27 33 41
32 32 32 32 32 34 34 35 36 37 38 39 39 38 36 34 33 34 36 30 29 28 30 30 30 29 30 30 32 31 31 30 30 31 32 33 30 28 24 28 32 25 28
34 34 35 36 36 37 38 39 41 40 39 38 37 35 32 31 32 33 34 32 32 32 31 30 29 29 29 30 32 32 32 30 29 27 25 25 31 32 24 29 21 20 18
34 35 36 37 38 39 40 40 40 39 37 36 35 34 33 33 34 32 32 32 33 33 32 29 29 29 29 28 30 30 29 28 26 25 23 26 28 27 27 29 22 24 23
37 37 37 37 36 36 37 37 38 37 36 34 32 30 30 30 30 30 31 33 34 33 31 29 26 25 26 27 27 26 25 23 22 24 24 24 21 21 23 26 25 21 20
34 34 34 35 34 34 33 32 32 32 30 28 26 27 28 30 30 30 31 32 32 32 31 28 25 24 25 23 21 20 19 19 21 23 24 22 19 19 23 24 28 30 27
30 29 28 29 28 27 27 27 28 29 27 27 27 28 30 30 30 30 30 28 27 29 30 26 24 24 20 19 18 17 17 17 20 22 25 25 23 27 26 28 30 24 23
29 28 29 29 29 29 29 29 30 30 30 30 31 29 30 29 28 27 26 26 26 26 25 23 21 19 18 18 18 18 16 18 19 23 23 25 25 25 24 22 20 20 21
30 31 31 31 31 31 31 32 33 33 33 32 32 29 28 26 24 23 24 22 22 19 19 17 14 13 13 14 16 16 16 15 17 17 19 21 21 24 24 22 23 25 26
31 31 31 32 31 31 32 32 33 33 32 30 28 25 23 21 21 21 18 16 15 12 10 11 13 15 17 18 18 18 18 18 17 18 19 18 18 20 22 26 29 31 29
29 30 30 30 30 31 30 30 30 28 26 24 22 21 19 18 16 13 10 7 9 11 13 14 16 17 18 19 20 21 22 23 22 22 22 22 23 26 29 31 31 29 19
28 28 28 27 26 26 26 26 24 22 21 20 18 17 16 12 8 7 8 10 12 13 14 15 17 18 19 20 21 22 23 24 24 25 26 26 27 28 28 27 20 17 18
26 25 24 24 23 22 21 20 19 18 17 16 15 13 10 8 8 8 10 12 13 14 15 17 18 19 20 20 20 21 22 23 23 22 24 24 22 21 17 16 17 19 21
23 23 23 21 20 18 18 17 16 15 14 13 11 8 8 8 8 9 11 13 15 15 16 17 18 18 18 19 20 21 21 21 21 20 20 20 18 17 17 19 21 22 23
22 21 20 18 18 17 16 15 14 13 12 11 9 9 7 8 9 12 14 15 15 15 15 17 17 17 18 19 19 19 20 20 20 19 19 19 21 22 23 22 23 24 25
20 18 18 17 16 16 15 14 13 13 12 11 10 7 8 10 12 14 15 15 15 15 15 16 17 17 18 18 19 20 20 20 21 21 21 21 22 24 27 27 27 26 27
20 19 19 18 18 17 16 15 15 14 12 11 9 9 10 12 13 15 15 15 15 14 15 15 16 17 18 19 19 20 21 21 22 24 25 25 26 27 27 27 27 27 27

GFSMA_700_spd_090.txt.gz
Wind_Speed
16 15 14 13 13 12 12 11 11 11 11 11 12 12 13 13 14 15 16 17 17 18 18 18 18 19 19 20 20 20 18 18 17 17 16 16 17 17 17 16 16 16 16
19 18 18 17 16 15 14 13 13 13 13 13 14 14 14 14 16 16 18 19 20 20 21 22 22 22 23 23 23 23 22 21 20 20 19 19 19 20 20 21 21 20 20
23 22 21 20 18 17 15 15 15 15 15 16 15 15 15 15 16 16 18 19 21 21 22 23 23 23 23 24 24 22 23 23 23 23 23 22 22 22 23 23 25 25 24
24 23 22 20 18 17 16 16 16 16 16 16 17 17 17 17 17 18 20 21 21 23 24 24 25 24 24 23 24 23 21 21 23 24 24 25 26 26 28 27 28 28 27
23 21 20 19 17 17 17 17 17 17 18 19 20 20 21 20 20 21 23 23 23 24 25 27 27 26 27 26 25 26 27 24 23 23 22 22 23 25 27 31 31 28 34
21 21 20 19 19 19 18 18 19 20 21 22 23 24 24 24 24 24 25 25 26 27 29 30 29 28 28 28 29 28 27 29 29 26 26 26 24 26 31 31 26 24 28
21 21 21 21 20 20 20 22 22 23 24 25 27 27 27 27 27 27 27 28 30 31 35 33 30 31 31 31 32 32 32 30 28 35 32 25 29 29 32 36 34 32 34
22 21 20 21 22 23 24 25 26 27 27 28 30 32 32 31 30 29 30 32 32 31 28 29 30 31 32 33 34 34 32 29 25 30 36 34 31 34 33 36 36 31 30
24 25 26 27 27 27 27 28 28 29 30 32 32 34 36 36 35 37 33 30 28 28 28 26 28 28 29 33 31 31 31 29 25 28 33 33 32 31 32 31 29 34 33
31 31 30 31 31 31 32 32 33 33 34 34 35 36 38 39 39 39 35 25 26 27 27 26 26 27 30 31 31 32 29 30 29 26 28 33 32 35 36 25 30 27 29
32 32 32 33 34 36 35 34 35 36 37 37 38 40 40 39 36 35 34 29 29 27 26 25 26 27 29 31 31 30 30 29 28 27 25 24 31 32 28 21 29 25 29
34 34 34 35 36 37 36 36 38 39 39 40 41 40 38 37 34 32 32 32 29 28 26 25 27 28 29 31 29 28 27 29 28 27 25 22 25 26 33 35 32 27 24
31 31 33 35 36 37 38 39 40 41 41 41 39 37 35 35 34 30 30 29 29 29 29 27 27 26 27 28 26 26 27 26 26 25 26 27 26 27 31 30 26 27 24
31 33 35 36 37 38 39 40 40 40 39 38 38 36 35 32 30 27 27 28 29 31 30 28 26 26 25 25 25 25 23 22 21 22 22 23 26 26 27 27 23 24 27
34 36 36 36 36 36 36 36 37 37 37 36 33 31 27 25 27 27 29 29 30 32 30 24 26 24 24 24 22 20 19 18 18 20 21 23 25 26 26 26 26 28 28
34 34 33 32 31 31 30 30 30 30 30 30 29 27 26 26 29 30 31 31 30 29 30 25 23 22 21 20 17 18 18 17 17 18 21 23 25 27 28 28 26 25 28
35 34 33 32 31 30 30 29 30 30 31 31 30 28 29 30 31 31 30 29 26 27 26 22 20 19 15 13 12 13 13 13 14 16 18 21 23 23 22 24 23 24 22
35 34 34 33 32 32 32 32 33 33 32 32 32 31 31 31 30 29 26 25 25 23 19 17 14 11 11 13 14 15 16 15 15 17 18 19 20 21 22 23 24 23 26
33 33 34 34 34 33 33 33 33 33 33 33 32 31 29 28 26 25 23 23 19 16 11 9 11 12 13 15 15 17 18 18 18 18 19 20 21 21 22 24 26 29 32
32 32 32 32 33 33 33 32 32 33 32 31 29 27 26 24 22 21 20 16 10 10 10 12 12 13 14 16 17 19 19 19 19 20 20 21 22 22 24 26 29 31 31
31 31 32 31 32 32 31 31 30 29 27 27 25 24 23 21 19 17 12 10 10 11 12 13 14 15 15 17 18 19 18 19 18 19 20 18 20 20 21 22 22 22 21
31 32 31 31 30 29 28 28 27 26 24 23 22 20 19 18 15 13 12 11 11 12 13 14 15 16 16 17 18 18 18 18 17 19 19 19 19 20 19 18 18 18 20
30 30 29 28 27 25 25 24 22 22 21 20 19 18 17 14 13 12 11 11 12 13 15 16 16 16 17 16 16 17 17 17 18 18 19 20 21 21 21 20 20 22 24
28 27 26 25 24 24 23 21 21 20 18 18 18 16 14 12 11 10 10 12 13 14 15 15 15 15 16 15 15 16 17 17 18 19 20 21 23 24 24 24 24 25 27
26 24 25 23 23 22 21 21 20 19 18 17 16 15 13 11 10 10 11 13 14 15 15 15 15 14 14 15 16 18 19 20 20 20 21 22 24 26 28 28 27 26 27
25 25 23 22 21 21 20 20 19 18 17 17 15 13 11 11 10 11 13 14 14 15 15 15 15 14 15 17 18 19 20 21 22 22 23 24 26 28 27 26 27 28 28

GFSMA_700_spd_093.txt.gz
Wind_Speed
14 13 13 12 12 12 12 12 12 11 10 11 11 13 13 13 14 15 17 17 18 19 20 20 21 21 21 21 21 21 21 20 20 20 19 18 17 17 17 17 17 19 20
18 17 17 17 17 17 16 15 14 13 13 12 13 15 14 14 15 16 17 17 19 20 20 21 21 21 21 21 20 21 21 21 21 22 21 20 19 19 19 20 20 22 22
22 21 21 21 20 20 19 17 16 15 15 14 15 14 14 16 17 17 18 20 21 21 21 22 23 25 25 23 22 19 21 22 21 21 21 21 20 19 19 20 21 24 25
25 24 24 24 23 21 19 17 16 16 17 16 16 16 17 17 19 19 20 22 23 24 23 25 25 27 29 29 27 24 21 22 22 21 20 21 21 21 20 20 23 28 28
27 27 26 24 23 20 18 18 18 18 18 18 18 19 20 20 21 21 22 24 25 26 27 28 29 31 31 29 27 27 28 25 24 23 22 22 23 23 23 24 26 27 26
28 26 24 22 21 19 19 19 20 19 20 21 21 22 23 23 24 24 25 27 28 29 30 32 33 35 32 30 28 29 28 29 29 27 24 26 25 26 28 28 28 30 30
27 25 22 23 21 20 21 21 21 21 22 24 25 25 26 26 28 28 28 29 32 33 35 33 33 32 30 29 30 29 29 29 24 29 31 26 26 27 27 28 28 28 33
23 23 23 23 22 22 23 24 24 24 26 26 27 29 29 30 32 32 30 32 34 35 34 32 29 29 28 30 29 28 30 26 26 23 29 29 27 30 29 33 29 31 33
22 20 23 23 24 25 26 27 27 27 28 29 29 31 32 33 33 34 35 36 35 31 27 28 29 28 26 28 28 29 30 29 27 23 22 29 29 28 31 30 32 33 27
24 24 25 26 27 29 30 31 32 32 33 33 34 32 34 35 36 39 40 37 31 28 27 28 28 25 26 27 27 28 29 29 27 26 23 21 30 30 28 23 32 23 31
26 25 28 27 28 33 34 34 35 36 35 35 37 37 35 36 38 40 40 35 31 28 29 26 27 25 26 27 28 28 28 28 28 28 25 22 22 25 26 30 29 29 34
34 25 27 29 30 34 36 37 37 37 37 37 38 40 40 39 40 37 36 33 31 30 25 24 25 26 27 28 28 28 27 26 26 27 26 26 23 23 23 26 36 33 33
26 29 28 29 34 35 36 37 38 39 38 39 39 40 40 36 36 34 35 32 29 30 26 25 25 27 26 26 26 27 24 25 27 24 24 25 21 22 27 31 35 33 33
28 29 29 30 33 35 36 38 39 39 39 39 38 38 36 35 35 34 31 28 27 29 30 28 27 26 25 25 25 24 24 22 22 21 22 21 21 22 25 28 30 31 30
32 29 32 35 37 37 38 38 39 37 37 37 36 34 34 34 33 29 27 26 28 31 31 27 26 24 25 24 21 22 20 19 20 20 19 18 19 22 24 26 27 29 31
33 34 35 35 35 34 34 34 33 33 33 33 33 33 30 30 29 27 28 28 30 31 31 29 24 24 22 20 18 16 14 14 15 15 16 16 19 20 22 24 25 26 27
35 36 36 36 35 34 32 32 31 31 31 31 31 31 31 29 29 29 29 30 31 30 29 26 24 21 18 14 11 11 14 14 14 15 15 16 18 19 20 22 23 24 24
38 37 37 37 35 34 33 33 33 33 32 32 32 32 33 32 31 31 31 30 28 27 25 23 20 16 11 11 12 13 15 15 16 16 16 17 19 19 20 22 24 24 25
36 35 35 35 34 34 34 35 34 34 35 34 34 33 32 33 32 31 29 26 24 23 21 17 12 12 11 12 13 15 16 17 17 17 17 19 19 19 21 22 24 26 28
32 33 33 33 33 33 33 34 34 34 34 33 33 33 31 30 29 27 24 22 21 20 14 11 12 12 12 14 15 17 17 17 17 17 18 18 19 19 19 20 21 23 25
31 32 33 33 33 33 33 34 34 33 33 32 31 29 27 26 25 23 21 20 16 13 12 12 13 13 14 15 16 17 17 16 16 18 18 17 18 17 17 18 20 22 24
30 32 33 34 34 34 33 33 33 31 30 29 27 25 24 23 22 20 18 16 13 13 12 14 14 14 14 15 16 16 16 16 15 19 17 16 18 18 18 19 21 23 24
32 32 33 33 34 33 32 31 30 28 27 25 23 22 21 21 18 17 15 14 14 13 14 15 14 14 14 15 15 15 14 15 17 17 18 18 18 18 20 21 23 25 26
33 32 33 32 31 31 29 28 27 25 23 22 22 20 20 18 16 15 14 13 13 14 15 14 14 14 15 15 14 14 15 17 18 19 19 19 20 20 21 23 24 27 28
32 32 32 31 28 28 25 26 25 24 22 21 20 18 17 16 15 14 14 14 14 15 14 14 14 14 15 14 14 16 17 19 20 20 21 21 21 22 23 25 26 27 28
31 30 29 28 27 25 24 24 23 21 21 20 18 17 17 16 14 14 15 15 14 14 14 14 14 15 15 15 16 18 20 21 21 20 21 21 22 23 25 25 27 30 30

GFSMA_700_spd_096.txt.gz
Wind_Speed
12 10 8 8 8 8 9 10 11 10 11 11 11 12 13 13 13 15 14 15 16 19 19 18 19 19 18 19 20 19 18 18 17 17 17 17 17 17 17 16 16 17 18
15 13 12 11 12 12 13 13 13 13 12 12 12 12 13 12 14 15 16 15 17 19 21 21 21 20 20 20 20 20 20 19 19 18 18 18 18 18 18 19 20 20 22
19 17 17 16 16 16 17 16 16 15 14 14 14 14 13 13 14 16 17 18 18 20 22 23 24 25 25 25 24 20 19 19 19 20 20 19 20 20 19 19 20 23 26
23 21 21 19 20 20 18 18 17 16 16 16 15 15 15 16 17 18 19 20 22 23 24 25 27 28 27 28 27 24 21 20 20 20 19 21 21 20 20 22 22 23 25
27 25 24 24 23 21 19 17 17 17 17 17 16 17 17 18 19 20 22 24 25 26 29 29 30 30 29 29 26 22 22 23 23 23 21 21 22 24 23 21 24 24 24
30 28 28 27 23 20 19 18 18 18 18 17 18 19 21 22 22 23 24 25 27 28 30 33 32 31 29 28 25 22 22 23 24 24 21 20 23 24 24 23 24 25 26
34 31 29 26 23 21 18 19 19 19 18 20 21 22 24 24 26 26 26 26 29 31 33 33 32 28 26 26 24 22 22 21 23 22 25 21 23 24 19 28 28 28 24
30 29 27 25 23 20 19 21 20 20 22 22 23 26 27 26 28 28 29 28 31 34 34 31 29 26 28 28 23 22 24 24 24 23 21 25 25 22 23 24 27 30 25
39 31 25 23 23 20 21 22 22 22 24 26 27 28 30 30 30 31 32 32 33 35 34 31 28 28 29 26 24 23 23 24 24 24 22 21 24 24 25 25 26 27 25
30 29 30 29 25 23 24 23 22 25 26 28 31 31 31 32 32 33 33 35 36 34 32 30 29 27 27 26 24 24 24 25 24 24 23 22 19 23 20 25 24 27 27
32 30 29 29 27 29 30 32 26 26 25 32 34 33 32 33 34 33 36 36 36 33 30 29 27 26 25 25 26 26 26 24 24 24 23 20 20 19 22 23 23 29 28
36 37 36 29 26 30 34 31 24 22 28 34 35 37 36 35 34 35 35 32 35 33 30 27 26 24 26 26 27 27 26 25 23 22 22 24 19 18 19 21 26 32 34
40 39 38 30 21 21 21 19 26 26 34 35 35 36 36 35 35 35 34 33 33 33 30 24 24 25 26 27 26 24 25 24 22 22 21 19 18 18 20 26 30 28 36
40 53 36 40 19 21 27 28 28 33 37 38 39 39 38 37 35 34 33 33 33 28 29 26 24 24 26 25 24 24 23 20 20 18 18 17 17 16 18 22 24 26 28
19 23 14 20 25 29 31 33 35 36 37 37 37 38 37 36 35 32 35 33 29 29 30 30 27 25 24 23 24 22 19 17 16 14 14 13 13 13 15 17 20 22 26
24 23 26 31 33 33 33 33 32 33 34 33 33 34 32 32 30 33 29 30 29 29 32 32 28 25 23 22 20 19 15 12 12 13 13 13 14 14 15 16 18 20 21
29 31 32 34 35 35 35 36 35 33 32 32 31 30 29 28 31 31 33 30 30 30 30 31 27 23 23 20 18 14 12 12 13 14 14 15 16 16 16 17 18 19 21
32 34 36 38 38 37 37 36 35 35 33 32 32 32 30 31 32 31 30 32 29 30 29 27 23 22 19 16 13 14 13 13 15 15 16 16 17 17 17 18 18 20 21
38 39 39 39 38 37 36 36 35 35 35 34 33 33 33 33 32 31 29 31 29 28 25 23 21 18 13 13 14 14 14 15 15 15 16 16 17 17 17 18 18 19 20
36 38 37 36 36 35 34 34 35 35 34 34 33 33 33 32 31 31 30 29 27 24 21 20 15 13 13 14 14 15 15 15 15 14 15 15 16 17 16 16 17 18 19
34 33 33 32 32 33 33 33 34 35 34 33 33 31 30 29 30 27 26 25 23 20 17 14 13 13 14 15 16 16 14 14 14 13 14 15 16 15 16 16 17 18 19
29 29 30 31 32 32 33 34 34 33 33 33 31 30 28 27 26 25 23 21 19 17 14 14 14 13 15 16 16 16 14 12 12 13 13 14 15 15 16 18 19 19 21
29 30 32 32 33 34 34 33 33 33 31 29 29 27 26 25 23 22 21 18 16 16 14 14 14 14 15 16 15 14 13 12 11 14 14 15 15 16 17 18 20 20 22
31 32 34 35 34 34 34 32 32 31 29 28 26 24 24 22 22 19 18 15 16 15 14 14 15 15 15 15 14 13 13 13 14 15 16 16 17 17 19 19 21 21 23
33 34 33 32 33 33 31 30 29 29 27 26 23 22 21 21 19 18 17 16 16 14 14 14 15 15 15 14 14 13 14 15 16 18 17 17 18 20 20 20 21 22 23
34 34 34 33 31 31 28 27 26 26 25 23 22 22 19 18 18 19 17 16 14 14 14 14 15 15 15 14 14 14 16 17 18 18 19 18 20 21 21 22 22 23 23

GFSMA_700_spd_099.txt.gz
Wind_Speed
10 8 7 5 2 3 6 7 8 9 10 9 9 11 11 11 11 11 12 13 14 16 17 17 17 18 18 19 19 18 16 14 13 13 14 14 14 15 16 16 15 16 17
13 11 8 7 6 7 8 9 10 11 10 9 10 12 12 11 12 12 13 14 15 17 19 19 20 20 21 20 19 20 17 15 15 15 16 16 16 16 16 17 16 17 18
16 14 13 12 11 11 12 12 12 12 11 11 12 12 11 12 13 14 14 15 16 18 20 22 23 24 23 21 20 20 18 15 15 15 17 18 18 18 17 18 18 19 20
20 19 18 17 17 16 15 15 14 13 12 12 12 13 12 13 14 15 16 17 19 19 22 23 26 26 23 21 20 19 16 15 17 17 20 19 20 19 17 20 19 19 19
25 25 24 22 22 20 19 18 16 14 14 13 14 13 14 15 16 18 19 20 21 21 23 25 28 27 24 21 16 16 15 18 18 18 16 23 22 21 21 20 21 19 20
30 29 28 27 26 24 22 21 17 15 15 15 15 15 16 17 18 19 21 22 23 25 24 27 28 28 25 21 18 19 14 15 19 19 20 19 20 24 22 21 22 24 20
33 32 31 30 29 27 25 22 19 17 17 18 17 17 18 19 20 21 24 25 25 26 27 30 29 28 24 22 22 20 17 15 17 20 20 21 20 21 22 21 21 26 22
33 32 27 28 28 27 25 23 21 19 18 19 19 20 21 21 22 24 25 26 26 27 29 30 31 30 25 23 23 20 19 18 19 18 19 19 20 21 23 22 23 22 21
24 29 34 31 23 22 23 23 23 22 20 20 19 22 24 25 25 25 25 28 29 30 32 32 31 29 27 24 22 20 19 20 20 20 21 20 17 20 22 22 22 25 18
28 25 30 35 40 39 36 28 33 31 25 24 26 22 23 28 28 28 29 30 30 31 33 31 29 29 26 24 22 22 22 22 21 21 21 20 19 16 19 21 18 23 23
31 30 31 29 29 31 37 37 31 29 29 31 30 27 20 26 30 29 30 31 32 32 32 31 30 28 24 23 24 24 24 24 22 21 21 20 18 17 16 19 18 20 25
30 27 34 31 36 34 33 33 35 31 30 36 37 24 24 30 31 30 29 30 31 34 32 31 29 26 22 24 25 25 25 23 21 21 20 20 16 14 12 14 18 27 30
39 37 40 28 29 26 30 28 38 42 22 23 24 27 28 28 31 33 32 32 34 33 32 30 25 23 22 26 27 27 25 23 21 20 20 18 16 15 15 17 23 26 32
34 34 34 37 36 39 44 49 48 32 20 28 27 28 31 32 34 34 35 33 34 35 34 32 24 24 24 26 26 26 24 23 20 17 17 16 17 14 14 15 17 21 23
23 26 24 18 20 20 22 18 20 22 27 29 37 37 33 33 34 33 32 32 31 35 36 31 26 24 27 27 25 24 23 20 18 15 12 12 12 12 12 13 16 17 19
18 18 23 24 28 27 28 28 30 31 33 33 33 31 30 30 30 29 30 31 29 29 36 32 29 27 26 26 23 23 19 17 15 12 11 12 11 11 12 13 15 15 16
27 30 32 30 30 32 32 34 35 34 34 34 32 31 30 30 29 29 31 30 31 30 38 33 31 28 26 23 22 21 16 13 13 12 13 13 13 12 13 14 14 15 15
25 26 27 29 33 35 37 38 38 38 37 35 34 33 32 31 31 31 31 32 32 32 31 33 30 28 24 21 21 18 13 14 13 13 14 14 14 13 14 15 15 15 15
23 29 30 32 38 39 38 39 39 38 37 35 34 33 34 34 33 33 32 31 33 32 31 31 29 26 22 20 17 14 13 14 14 14 15 15 14 14 14 15 15 15 15
30 32 33 35 37 39 40 38 38 35 35 34 34 33 32 33 33 32 32 32 30 32 30 28 25 23 21 16 15 14 14 14 14 15 15 14 14 13 14 14 15 15 16
31 34 35 35 36 35 35 35 35 34 33 33 33 33 33 32 32 31 31 30 30 29 26 24 22 21 17 15 15 15 15 15 14 15 14 14 12 13 14 14 16 16 16
30 30 29 30 31 33 34 34 34 33 34 34 34 33 32 32 31 30 29 28 27 25 23 21 19 17 16 16 15 16 14 14 14 14 12 12 12 14 15 16 16 16 16
26 27 28 30 31 33 35 36 35 34 33 32 32 32 31 29 28 28 26 25 23 22 20 20 18 17 17 16 17 15 14 14 15 13 12 12 13 14 15 17 17 17 17
26 28 30 32 34 35 35 35 35 35 34 31 30 29 28 28 27 25 24 22 22 21 19 19 18 17 17 16 16 14 14 14 14 13 13 14 15 15 16 18 19 18 19
28 30 31 33 35 36 35 34 33 33 31 30 28 27 25 25 22 23 22 21 20 19 19 18 17 17 17 15 15 15 14 14 15 14 14 15 17 17 17 18 19 20 20
31 33 35 36 36 37 37 33 32 30 29 28 26 24 24 23 22 22 20 20 18 19 18 17 16 17 16 14 14 15 15 15 15 15 15 16 18 18 18 19 20 21 21

GFSMA_700_spd_102.txt.gz
Wind_Speed
14 12 10 7 5 2 1 3 5 6 6 7 7 8 9 8 8 8 9 11 11 12 14 16 16 17 18 17 15 15 15 13 11 11 12 12 13 13 13 13 12 12 14
14 11 8 6 5 5 6 6 6 8 8 9 9 8 9 8 8 9 10 11 13 14 15 17 18 19 18 17 18 15 15 13 11 12 13 14 15 15 16 15 14 14 15
15 13 11 10 10 10 11 10 10 10 10 10 10 10 10 10 9 10 12 13 14 16 17 19 19 21 19 19 17 17 15 12 11 13 14 17 15 17 17 15 16 15 15
18 16 15 15 15 15 15 14 14 14 13 11 11 11 11 11 12 13 14 15 16 17 17 19 20 21 22 18 13 16 13 15 15 16 16 16 16 20 16 17 17 17 16
22 21 21 21 20 20 20 19 19 18 16 14 13 13 13 13 14 15 16 16 17 18 18 20 22 24 21 17 12 12 15 17 18 18 17 17 19 20 20 19 19 19 13
28 27 27 27 26 25 24 22 22 21 19 18 16 15 15 15 16 17 19 19 20 20 20 21 22 24 22 19 16 14 14 14 18 20 22 21 19 20 20 19 21 20 17
30 30 31 31 29 27 26 26 26 24 22 20 19 18 17 17 16 18 20 23 23 23 23 23 23 25 23 20 18 18 16 13 14 18 17 19 21 20 21 20 20 21 18
33 31 31 31 31 26 26 25 25 24 24 23 23 21 20 18 18 20 22 24 25 25 26 25 27 26 24 21 21 19 18 16 17 18 17 17 20 22 21 21 18 19 22
31 30 30 31 30 25 29 30 21 22 23 24 24 24 22 22 21 20 22 24 25 27 28 26 28 28 26 24 21 19 18 19 18 19 19 18 17 18 20 20 19 19 16
28 30 26 28 30 32 33 31 29 30 37 36 29 26 26 30 31 28 22 25 26 26 29 25 30 29 27 25 21 19 19 20 20 21 21 18 18 18 16 18 20 18 18
31 29 32 36 33 34 24 28 35 34 36 41 46 47 43 30 32 38 21 29 28 28 31 28 29 29 29 27 21 21 22 22 22 22 20 19 18 16 17 15 18 18 17
30 32 30 27 35 35 32 38 33 36 37 39 37 34 34 30 23 24 22 24 29 33 33 30 28 29 29 22 23 23 24 24 23 22 20 20 17 15 14 14 17 16 19
30 31 35 37 37 40 41 25 24 23 30 31 34 31 33 19 24 28 26 32 35 35 37 34 29 27 27 23 24 25 25 25 24 22 20 20 15 14 13 10 13 19 30
28 31 27 31 36 29 27 30 33 30 32 40 30 23 19 19 23 24 34 35 37 37 35 37 29 28 27 24 25 26 26 26 22 22 20 19 16 14 14 14 15 23 26
26 29 25 25 27 23 20 23 20 20 23 24 26 30 30 31 35 37 40 41 37 39 36 31 28 29 27 26 27 27 27 24 23 20 18 16 13 13 13 14 15 16 17
27 26 21 21 23 21 23 24 24 26 26 27 29 30 31 32 33 34 35 33 31 29 34 29 32 31 33 31 29 28 26 22 23 18 15 13 13 12 12 12 13 13 13
32 32 36 34 31 29 27 27 29 30 30 32 33 34 33 32 33 33 32 31 30 31 31 33 34 33 31 30 30 26 24 22 20 16 14 13 14 14 13 13 13 13 12
27 31 29 27 26 26 26 27 31 33 34 35 35 36 36 35 34 34 33 32 31 34 31 33 36 30 30 31 29 24 23 20 17 15 15 14 15 14 14 14 14 13 12
28 20 24 28 30 31 34 35 37 36 37 37 36 35 36 35 34 34 34 33 33 34 35 33 35 35 31 30 26 23 21 17 16 15 15 16 16 14 14 14 14 14 13
28 28 28 28 30 32 34 37 39 40 38 39 38 35 35 34 34 34 34 34 33 34 34 34 32 32 31 27 23 21 17 17 15 15 16 17 16 14 14 15 14 13 13
31 31 31 32 34 35 37 37 38 37 37 35 36 36 34 35 33 33 34 34 34 32 33 33 31 29 27 24 22 18 17 16 16 16 16 16 15 14 14 14 14 14 14
30 32 33 32 32 33 33 33 34 36 36 36 36 36 35 34 33 32 32 33 32 31 31 29 28 26 24 21 19 17 17 17 16 17 16 15 14 14 14 14 14 15 15
28 28 27 27 28 30 32 34 36 37 38 38 37 36 36 34 32 32 31 30 30 28 28 26 26 25 20 20 19 17 18 17 17 17 17 15 14 14 15 15 16 15 15
24 25 27 28 31 33 34 35 37 37 38 38 37 36 34 33 32 30 28 28 26 26 25 24 24 23 20 19 17 17 17 17 17 17 17 15 15 15 16 17 17 17 17
25 27 29 31 32 35 36 38 40 39 36 37 35 34 32 31 31 28 27 26 26 23 23 23 22 20 19 19 17 18 16 18 16 17 17 16 16 16 18 18 18 18 18
28 31 33 35 36 39 39 38 39 40 38 36 33 31 30 28 28 27 28 23 25 22 21 21 21 19 18 19 17 17 17 17 16 17 17 17 18 18 18 19 19 20 20

GFSMA_700_spd_105.txt.gz
Wind_Speed
18 16 13 10 7 4 2 1 3 5 6 7 7 8 7 7 7 7 8 9 11 12 14 15 16 18 19 19 19 16 14 13 12 10 10 10 12 13 13 13 13 13 14
17 14 11 8 5 4 3 4 5 7 8 8 8 9 9 8 8 9 9 10 11 12 14 15 17 19 20 22 18 16 13 14 12 11 13 13 14 12 15 14 12 14 14
16 14 11 9 8 8 8 9 9 10 11 10 10 11 10 10 10 10 12 13 14 14 15 16 17 18 21 21 17 15 16 13 14 14 15 16 15 14 16 14 15 15 16
18 16 14 13 13 13 13 14 14 14 14 14 14 13 13 12 12 12 13 14 15 16 18 18 17 17 20 19 15 16 16 17 17 17 18 17 16 17 17 17 16 16 17
20 19 19 18 18 18 18 20 19 19 19 18 19 17 16 15 14 14 14 15 16 17 18 19 20 19 20 18 13 11 15 19 20 19 20 20 19 21 19 18 17 15 14
23 23 23 23 23 23 24 24 24 24 23 23 22 20 19 19 17 16 17 17 17 18 19 20 21 20 21 19 15 11 13 16 17 18 20 20 19 20 20 19 18 17 15
27 29 29 29 29 29 29 29 28 27 26 26 25 24 23 22 20 19 19 19 19 19 20 21 21 23 21 19 19 17 16 16 15 16 18 21 22 20 21 20 19 17 17
29 31 30 30 30 31 31 29 26 24 26 24 26 27 26 24 24 22 22 22 21 20 21 21 26 22 26 22 21 20 17 16 15 17 17 18 19 21 23 21 19 17 17
28 30 30 29 30 31 32 32 27 25 36 32 35 29 29 27 26 26 24 22 22 21 21 24 24 24 26 28 23 21 19 17 16 16 18 19 19 17 21 22 21 19 16
28 29 26 23 29 28 22 29 34 36 36 28 26 29 38 39 30 36 36 38 35 33 24 22 20 28 28 28 24 24 20 18 19 19 20 20 19 18 18 18 19 18 18
28 26 27 26 23 28 30 31 41 39 37 39 32 29 32 35 38 42 42 34 31 37 30 24 25 32 30 28 26 23 19 19 20 21 21 20 18 18 18 18 17 18 20
28 25 24 22 26 26 30 31 25 33 34 31 31 34 32 31 36 37 32 30 24 24 22 26 33 35 32 29 25 24 23 22 22 22 23 21 19 17 15 15 16 18 16
23 23 26 23 25 27 25 24 29 32 28 22 29 29 32 33 32 30 36 25 20 16 18 30 36 34 33 29 26 24 24 24 24 24 24 21 18 14 13 12 9 16 22
21 23 24 26 24 26 29 29 28 28 28 25 18 23 21 21 24 21 22 28 31 33 36 36 36 37 32 31 25 24 25 26 25 25 23 22 19 15 14 12 11 19 20
20 22 19 21 22 20 21 26 24 21 19 22 20 21 23 25 27 28 30 31 32 37 36 36 37 35 30 29 32 29 27 27 27 25 23 21 19 14 12 12 13 20 26
18 17 19 22 24 20 24 25 25 27 27 27 25 26 27 28 30 30 30 31 31 32 36 37 34 33 32 30 30 33 29 27 27 24 23 20 17 14 12 11 12 15 18
19 18 22 25 28 33 33 35 32 29 28 28 29 29 29 30 32 33 32 32 32 32 35 37 34 35 33 31 34 33 28 27 26 23 22 19 16 14 13 12 13 14 14
20 23 24 24 20 21 25 26 26 27 28 30 32 34 33 33 33 34 35 34 34 35 37 36 34 32 35 33 33 31 30 28 25 23 20 19 16 15 15 14 15 15 15
23 24 28 25 23 24 27 29 30 32 34 35 36 38 38 37 35 34 35 36 35 36 36 35 37 34 34 30 35 35 28 27 24 22 19 18 16 16 16 15 16 15 14
27 29 28 28 28 29 30 31 33 34 36 37 38 38 37 37 36 36 33 36 36 34 34 34 35 35 34 38 29 30 27 24 22 20 18 17 17 17 17 16 15 14 14
28 30 31 30 30 31 33 34 35 35 35 35 36 37 36 36 35 35 35 34 36 35 34 35 33 31 34 32 30 28 26 23 19 19 18 18 17 17 16 15 16 14 14
32 31 30 30 30 32 33 34 34 34 35 36 36 37 37 37 37 36 35 34 34 35 34 33 32 30 30 29 27 25 23 20 19 19 18 18 17 16 15 15 15 14 14
27 27 28 28 30 31 31 32 34 35 37 38 39 39 38 38 37 37 35 35 34 33 33 32 30 27 28 27 24 22 20 20 19 19 19 17 17 16 14 15 15 15 15
24 25 25 26 28 30 32 34 36 38 39 41 41 39 39 38 36 36 34 33 33 33 31 30 28 27 25 22 21 20 19 19 18 19 18 17 17 16 15 16 17 16 16
22 23 25 27 30 33 35 36 38 40 42 43 42 40 38 37 35 34 32 32 32 29 28 29 25 24 23 20 20 19 19 18 19 19 18 17 17 16 17 17 17 18 17
22 25 27 30 33 35 36 36 36 35 36 38 39 39 36 34 33 31 30 29 30 29 25 25 23 22 22 20 20 20 18 19 19 18 17 17 17 17 17 18 18 19 19

GFSMA_700_spd_108.txt.gz
Wind_Speed
23 21 19 16 13 9 6 4 3 3 4 4 5 5 6 8 7 7 8 9 10 11 13 15 16 17 18 21 21 17 13 13 12 10 10 11 13 14 13 16 14 13 15
22 19 16 12 9 6 3 1 2 4 6 7 7 7 7 8 8 8 8 9 10 11 13 15 17 17 18 21 18 13 14 13 13 12 12 13 14 14 14 17 14 15 14
21 18 15 11 8 5 4 5 6 7 8 10 11 12 11 11 11 10 10 10 10 10 11 13 15 16 18 20 16 16 16 16 17 15 15 14 15 15 17 17 17 16 15
20 17 14 11 10 8 9 10 10 11 12 13 14 15 16 15 15 14 13 13 13 13 13 13 14 14 16 17 17 14 16 18 19 18 17 17 16 15 16 16 16 16 15
20 18 16 15 14 13 14 15 15 17 17 17 18 18 19 20 19 17 17 16 15 15 17 16 16 17 17 17 16 13 13 14 18 18 18 17 17 17 16 16 15 14 14
22 20 18 18 18 19 20 20 21 22 22 22 21 22 21 21 22 21 20 19 18 17 18 19 18 19 17 16 16 15 14 15 17 18 19 18 16 18 18 17 17 17 14
22 21 21 22 23 24 25 26 27 27 27 25 23 18 21 23 27 24 23 23 21 20 19 19 21 20 22 17 17 20 19 18 16 16 14 16 21 20 21 17 20 19 17
22 22 23 23 25 26 26 27 28 29 30 28 23 24 31 29 28 28 25 24 23 23 21 20 20 21 21 22 20 20 20 21 18 15 16 16 18 20 20 17 20 18 17
22 27 25 24 25 27 25 23 24 25 28 23 32 35 28 28 32 35 31 33 32 29 27 25 26 24 20 22 26 22 20 22 19 16 15 17 18 19 19 20 21 18 17
22 25 22 21 19 19 20 20 19 20 18 31 36 29 35 34 27 31 32 34 37 39 40 40 40 24 22 26 27 25 25 21 18 17 17 18 19 20 19 18 18 20 20
27 23 20 21 19 17 15 22 21 22 28 20 18 26 26 30 31 30 31 31 34 37 33 36 33 30 21 25 29 26 26 20 20 19 20 19 20 20 19 20 19 19 22
22 18 20 19 32 26 23 21 21 23 23 23 24 22 18 18 17 21 29 28 30 31 29 27 21 13 17 29 31 28 26 23 21 21 22 21 19 17 17 17 15 18 21
17 16 14 14 17 18 19 21 23 24 25 23 19 27 21 24 27 20 20 22 23 17 16 18 15 18 29 31 31 29 26 23 22 22 24 21 19 17 15 15 13 14 17
16 14 15 15 17 18 19 22 21 18 22 21 19 19 18 18 19 21 22 24 27 23 22 29 30 29 27 30 31 31 29 26 26 25 26 24 19 18 15 16 15 15 20
17 17 17 18 19 21 21 18 18 21 20 19 19 21 22 22 23 25 26 25 27 31 31 31 28 28 27 32 32 32 31 30 26 28 26 25 22 19 15 15 15 16 17
19 19 17 18 19 20 21 21 24 24 26 27 27 27 26 26 26 27 28 29 29 30 33 33 30 31 32 33 28 30 35 31 31 28 26 25 22 19 16 15 16 20 23
17 16 16 18 19 18 18 19 23 22 24 28 28 25 25 26 26 28 29 31 32 31 31 32 34 31 33 23 32 36 31 35 28 29 26 24 21 19 17 15 15 16 21
16 15 17 18 19 19 20 17 18 21 24 27 30 32 33 34 35 34 34 33 33 34 34 34 35 37 34 32 31 32 35 29 29 28 26 23 21 19 17 16 16 17 17
16 18 20 20 22 23 24 23 23 25 27 29 31 32 34 34 35 35 33 33 34 33 34 34 37 36 35 32 35 29 29 29 33 29 25 23 21 19 17 16 16 17 17
20 21 23 24 25 25 27 28 28 28 29 31 32 33 34 34 34 34 33 33 33 33 33 33 35 35 33 31 32 35 30 33 29 27 23 21 20 18 18 17 17 17 17
23 24 26 27 27 29 30 29 29 29 31 32 32 33 34 34 35 35 35 34 34 34 33 34 33 36 35 35 29 31 34 33 28 25 22 20 20 18 18 18 17 17 16
26 27 28 29 29 29 28 28 28 29 31 32 33 35 36 37 37 38 37 36 35 35 34 33 34 34 32 31 31 33 30 26 25 22 21 20 19 18 18 17 18 17 15
27 28 28 27 27 27 28 27 28 30 32 35 36 37 39 39 39 40 39 37 35 34 33 32 32 30 31 30 28 26 26 25 23 21 20 20 19 18 18 17 18 16 15
24 24 25 25 26 26 27 27 29 30 33 36 37 38 39 39 39 39 38 36 34 33 32 31 30 29 27 27 26 24 25 23 19 19 18 18 18 18 17 17 17 15 15
23 23 23 24 25 26 28 30 31 31 33 34 34 35 36 37 38 38 37 34 32 31 29 30 27 27 25 25 23 24 21 21 20 19 19 18 17 18 17 17 17 15 16
22 23 23 24 25 28 31 32 33 32 32 32 34 34 36 36 36 36 33 30 28 28 27 27 26 24 24 22 21 22 21 20 19 19 18 17 18 18 18 18 17 16 17

GFSMA_700_spd_111.txt.gz
Wind_Speed
28 27 25 22 19 15 12 9 7 6 4 3 3 3 5 6 6 6 6 7 8 9 10 12 13 14 15 15 18 14 13 12 12 12 12 11 12 12 13 14 15 15 14
28 25 22 19 15 12 8 5 3 2 2 2 3 4 6 7 8 9 9 10 10 10 11 13 14 15 16 17 17 16 13 12 13 12 13 12 12 12 13 15 15 14 15
29 24 20 16 13 10 6 4 3 3 4 6 7 8 9 10 11 11 12 12 12 12 12 13 13 15 17 17 16 16 15 15 15 14 13 14 13 13 13 14 13 14 15
28 24 20 17 13 10 8 6 7 8 9 10 12 13 13 14 15 15 15 15 14 14 14 13 14 14 16 18 18 17 16 14 16 15 15 14 13 13 13 13 13 14 16
27 24 20 17 14 11 11 10 11 12 13 14 15 16 16 17 18 19 18 18 18 17 17 17 17 17 16 15 18 18 17 15 17 18 18 18 14 13 14 15 13 13 14
28 25 21 18 16 15 14 15 16 17 18 19 20 20 19 17 16 17 22 20 20 20 18 19 19 20 19 15 15 17 18 19 17 17 18 18 16 17 17 17 15 14 14
29 25 22 20 19 18 19 20 20 20 22 22 22 21 18 17 21 24 24 22 21 22 21 21 23 20 19 19 20 15 20 21 19 18 15 17 17 17 19 19 16 15 16
29 26 23 22 22 22 22 23 21 21 21 20 18 16 22 29 29 29 24 21 22 20 25 23 21 19 19 26 27 18 21 23 22 21 17 17 17 17 20 20 19 17 16
26 23 21 20 22 24 23 20 19 19 15 12 16 21 22 14 15 19 19 26 32 32 32 35 31 27 34 39 31 21 20 26 22 19 16 17 19 19 19 19 19 19 18
24 25 24 24 23 25 19 16 15 9 9 29 19 19 17 22 20 20 20 20 25 34 37 30 31 38 36 35 32 26 19 25 22 19 19 18 20 20 20 20 18 18 21
25 25 28 24 21 18 15 11 13 18 22 15 17 19 22 21 17 19 19 18 30 28 31 27 23 27 33 25 28 12 22 25 26 21 20 19 19 20 21 21 19 20 21
31 29 26 22 14 18 20 12 10 13 15 15 17 22 20 16 19 21 22 21 25 24 22 25 21 20 24 13 14 16 27 26 24 23 19 19 20 20 20 19 18 18 23
22 23 20 13 14 14 12 12 13 17 19 19 20 20 20 19 16 17 18 18 19 20 22 18 16 18 21 24 25 24 29 22 24 23 21 23 21 19 20 18 18 16 17
18 16 16 14 14 14 14 14 16 16 14 16 17 15 15 17 17 18 19 22 24 24 24 24 22 22 20 21 27 25 21 29 25 24 24 25 23 20 20 18 18 18 15
17 16 17 17 15 14 14 15 14 14 17 18 19 19 19 21 23 23 23 23 24 29 28 26 25 24 26 27 20 22 31 24 27 23 27 29 26 23 21 18 18 19 21
19 18 18 17 17 17 17 19 19 21 22 22 22 22 24 25 23 23 23 24 25 28 30 27 25 26 27 24 28 25 29 24 22 32 25 30 25 24 21 20 19 18 21
18 18 18 18 19 19 19 18 18 17 17 18 18 19 21 22 24 27 29 31 32 34 38 41 36 34 33 31 28 29 25 30 31 30 31 29 27 24 22 20 19 21 23
19 19 19 19 19 18 17 15 15 16 18 19 20 22 23 25 27 28 30 32 33 34 35 35 33 31 30 30 29 29 28 30 30 37 30 29 29 25 23 20 21 21 23
20 19 20 19 18 18 18 18 17 20 22 23 23 24 25 27 29 30 30 30 31 32 33 33 33 32 32 30 30 28 31 32 32 29 29 28 26 25 23 22 22 22 23
21 21 20 20 21 21 21 20 22 24 24 24 25 25 26 27 28 29 30 30 31 31 33 33 33 33 32 31 28 29 28 29 33 33 29 29 27 23 23 23 23 23 22
23 23 23 24 24 22 23 25 26 26 25 26 26 26 27 28 30 32 32 32 33 33 33 33 33 33 32 28 32 34 34 35 30 32 33 31 26 23 22 23 22 21 20
24 24 24 24 24 25 26 27 26 25 25 25 25 26 28 29 32 34 35 35 35 36 34 34 33 32 32 31 32 32 32 30 33 30 29 29 27 21 23 21 21 19 20
26 26 26 25 26 28 27 25 27 25 26 26 26 28 29 29 31 33 33 33 34 34 34 33 32 31 31 30 30 28 28 27 27 28 26 25 23 21 21 21 19 18 19
25 26 27 27 27 25 25 25 26 25 26 28 29 29 30 30 30 31 32 33 34 34 32 33 31 30 29 28 28 26 26 25 25 24 23 21 20 20 20 19 18 18 19
24 25 24 23 24 25 25 25 25 26 28 29 29 30 30 30 30 31 32 32 33 31 29 29 28 28 27 27 25 25 22 23 22 21 21 20 20 20 19 18 18 19 19
20 22 23 24 24 26 26 25 26 28 27 27 28 29 30 29 30 31 32 33 32 28 25 25 25 26 25 25 23 25 22 21 18 19 19 19 19 18 17 18 19 18 18

GFSMA_700_spd_117.txt.gz
Wind_Speed
32 31 31 28 25 23 20 17 14 12 9 7 5 3 2 2 4 5 6 8 10 10 11 12 13 14 15 16 16 16 16 15 15 15 14 14 14 13 13 13 14 15 15
33 34 33 30 27 23 20 17 13 10 7 5 3 1 2 4 5 7 9 10 11 13 14 14 14 14 14 16 16 16 16 18 17 16 14 14 14 14 13 13 14 13 15
35 36 35 32 27 24 20 16 13 11 8 5 3 3 5 7 9 11 12 13 14 14 15 16 16 16 15 16 18 18 17 17 18 19 17 17 16 15 13 13 13 13 14
40 38 35 31 28 23 20 16 13 10 8 7 5 6 7 10 12 13 14 16 17 16 16 17 17 17 16 15 17 18 16 17 19 20 19 19 18 16 14 12 12 12 13
40 39 35 31 28 24 20 16 14 12 10 8 8 9 11 13 14 15 16 17 16 16 17 19 19 18 18 18 18 16 15 15 21 23 21 19 20 17 15 15 16 14 13
42 40 36 32 29 24 21 18 15 13 11 10 11 12 14 16 17 16 17 19 23 24 23 21 17 18 20 19 22 17 16 26 26 24 20 19 20 19 19 18 18 18 14
43 40 37 33 29 25 22 18 15 13 13 13 14 16 15 18 16 17 20 24 20 20 19 19 18 20 18 23 21 20 24 28 25 27 25 21 18 18 17 17 19 18 18
43 42 38 33 29 25 22 19 17 16 16 16 17 17 16 16 18 21 24 18 19 17 19 20 20 21 25 25 24 28 29 31 33 29 28 20 18 14 15 16 19 20 20
46 42 38 34 30 27 23 20 19 18 16 17 20 20 21 20 19 17 18 21 21 21 20 19 22 22 24 24 30 29 28 26 29 24 18 14 17 15 15 14 17 18 20
45 42 39 34 30 26 23 21 18 16 16 15 21 21 22 22 18 22 21 22 21 18 20 21 22 22 21 24 27 27 29 27 23 27 18 16 15 14 14 15 15 17 19
44 43 38 35 31 28 25 20 20 13 3 19 20 21 22 21 22 25 25 22 20 21 20 20 22 22 18 20 25 25 26 27 28 26 24 15 16 15 15 15 16 17 18
44 41 38 35 32 29 27 21 17 17 20 23 24 19 20 22 23 24 24 22 22 20 20 18 19 19 20 22 22 21 21 22 25 29 26 24 14 12 15 18 21 19 18
41 38 37 34 31 29 27 28 24 12 20 23 21 19 22 24 22 22 22 22 21 20 18 19 20 20 21 23 24 23 22 24 23 24 29 33 16 17 16 19 21 22 20
40 42 40 34 33 32 37 36 21 22 20 19 20 21 24 21 20 21 20 23 24 22 20 20 19 22 23 24 25 26 26 25 24 29 29 23 29 26 20 16 19 19 22
41 41 39 41 42 37 27 21 18 22 21 19 21 23 23 21 21 21 21 21 23 22 20 21 23 21 25 27 27 29 30 28 26 28 31 25 20 26 26 23 21 20 26
46 48 39 45 44 47 26 14 24 23 21 21 23 24 23 21 18 18 20 21 23 26 28 25 28 27 26 28 29 30 29 31 32 30 27 28 28 23 28 22 21 23 24
58 49 41 45 36 35 22 27 24 23 24 22 22 19 18 18 19 21 22 24 25 28 31 30 28 29 28 29 28 29 30 31 31 30 29 26 25 24 23 26 26 27 25
21 33 19 22 22 24 27 27 24 24 22 21 20 19 19 20 21 23 25 26 27 28 30 30 30 29 29 29 29 28 28 28 30 31 30 25 25 26 27 25 23 22 22
15 21 22 25 28 27 26 24 25 24 22 21 21 21 21 22 24 24 26 27 27 28 29 31 31 31 31 31 31 30 30 30 29 30 31 26 28 29 28 23 25 24 21
21 22 24 24 24 24 25 27 27 25 24 23 22 23 23 24 25 26 26 27 28 28 29 31 33 34 34 34 34 33 32 32 32 29 32 28 30 27 29 31 30 30 17
22 24 23 23 24 25 28 28 28 27 25 25 25 25 25 25 25 26 27 28 29 30 31 31 32 32 33 33 35 34 33 32 31 26 24 29 33 33 34 26 29 27 22
23 25 25 25 25 26 28 29 29 28 27 27 26 27 25 25 26 27 28 30 32 33 33 33 31 32 34 35 37 36 34 33 32 30 33 34 34 31 29 23 24 25 22
23 25 26 25 26 28 29 30 30 29 28 29 28 27 26 26 27 28 30 32 33 33 33 33 32 33 35 34 36 35 34 33 32 31 33 32 30 28 25 23 23 23 23
20 21 24 26 27 28 29 29 29 29 30 28 27 27 27 27 27 28 31 31 33 31 32 32 32 32 33 33 32 32 33 32 30 29 29 28 25 25 25 25 23 20 21
21 23 25 26 27 29 30 31 31 30 29 27 27 27 28 28 29 29 31 32 33 32 32 32 32 33 32 32 31 30 29 28 28 27 26 26 23 23 23 23 20 19 19
26 28 28 29 29 29 29 29 29 28 27 27 27 27 28 31 32 31 31 31 31 32 31 31 31 30 31 30 29 27 26 26 26 26 24 24 21 23 23 20 18 18 18

GFSMA_700_spd_120.txt.gz
Wind_Speed
32 29 27 27 27 25 23 20 18 15 13 11 9 7 5 4 5 4 6 7 9 10 11 12 13 13 14 15 15 16 17 17 18 17 17 16 15 15 15 15 15 15 17
33 30 30 30 29 27 24 21 17 14 12 9 7 4 2 2 5 6 7 9 10 11 12 12 13 13 14 14 15 16 16 17 17 18 19 19 17 15 14 14 15 15 16
34 31 32 33 30 27 24 20 17 14 11 8 5 2 1 4 6 9 9 10 12 13 13 13 13 14 15 14 16 17 17 15 16 20 26 21 19 19 16 13 13 13 14
35 35 36 36 32 28 24 20 16 13 10 7 3 2 4 6 9 11 13 14 14 15 15 15 14 17 14 14 15 16 17 14 16 22 23 22 20 18 16 11 11 12 11
35 39 39 37 33 28 24 20 16 13 9 6 4 5 7 9 12 14 14 13 14 16 17 19 21 20 15 14 14 15 14 14 21 22 24 25 22 20 17 15 13 14 12
39 41 40 36 32 28 24 19 16 12 9 7 7 8 11 13 14 14 14 15 19 20 19 18 17 17 17 16 15 20 19 19 27 28 27 29 27 23 20 20 17 15 15
40 41 39 36 32 28 24 20 16 12 10 9 9 12 14 14 17 13 15 18 21 17 17 16 15 15 15 15 19 20 23 23 29 25 25 27 27 24 17 20 20 17 15
40 42 40 38 34 29 25 20 17 14 12 12 13 14 17 16 16 15 15 16 15 19 19 18 16 15 15 17 20 20 24 25 27 26 30 28 18 16 11 16 18 17 17
42 44 43 39 34 29 24 21 18 16 16 15 13 16 17 18 19 17 17 15 17 20 17 17 17 19 21 21 19 21 22 22 24 24 23 28 28 23 10 15 16 17 17
45 45 44 39 34 31 27 24 22 20 19 14 16 18 20 18 22 22 18 18 21 19 17 17 17 15 14 17 15 16 17 19 21 21 22 23 22 17 13 11 13 15 17
45 46 44 39 36 33 30 26 23 22 19 12 13 18 20 21 18 21 22 19 20 19 18 16 17 15 15 14 16 17 19 18 18 19 24 24 25 21 21 12 14 14 17
47 47 43 41 39 35 30 27 25 20 18 20 15 17 24 20 19 20 22 20 19 18 18 17 16 16 16 18 19 20 21 21 20 21 22 24 23 24 21 15 16 18 17
45 44 44 42 38 34 32 29 26 19 11 18 27 25 24 21 21 23 22 21 21 19 18 18 18 18 18 20 22 22 23 23 23 25 25 25 26 25 16 21 24 18 18
41 42 42 40 38 35 34 30 27 25 16 25 19 18 22 22 23 23 22 23 22 19 17 18 16 17 21 23 25 27 27 27 27 27 26 28 25 25 26 24 23 25 20
37 40 41 39 37 36 35 33 30 26 27 30 23 22 22 22 21 22 24 24 21 19 17 19 19 19 22 23 25 27 27 28 28 27 28 29 27 25 27 25 25 26 25
39 39 40 40 42 40 36 33 30 35 24 24 24 24 22 23 24 25 24 22 22 23 22 22 24 24 25 25 27 27 27 28 28 29 30 29 29 28 23 25 30 25 23
33 36 35 41 45 44 40 40 39 28 25 26 25 23 22 24 24 24 23 23 23 26 27 24 25 26 27 27 26 27 27 27 28 29 29 30 31 30 27 25 24 23 21
42 56 48 44 45 51 47 43 50 39 27 24 24 23 23 23 25 25 24 24 25 28 28 28 27 27 29 30 29 27 28 27 28 29 29 29 29 31 28 24 24 24 20
35 24 46 56 57 49 43 48 30 30 30 26 24 25 24 26 26 25 25 26 26 28 29 29 30 29 29 30 31 31 30 30 30 30 30 29 29 28 26 26 29 27 26
17 17 25 34 39 23 25 22 26 28 27 25 25 25 25 26 26 27 27 27 27 28 29 30 31 32 31 31 32 32 31 31 31 30 31 31 24 29 25 29 29 32 31
19 19 20 21 23 24 24 25 27 27 25 26 27 26 27 28 28 28 28 29 28 28 29 30 32 33 33 33 34 34 33 33 34 33 31 30 25 21 25 31 36 30 26
21 23 24 23 24 21 22 24 27 29 29 30 29 30 30 30 29 28 28 29 29 29 29 30 32 33 33 33 34 35 35 34 33 32 32 29 24 24 30 37 35 29 23
20 22 22 20 21 24 26 27 28 31 31 31 33 33 32 31 30 29 29 29 29 29 30 32 31 32 33 33 34 35 35 34 33 33 32 31 30 29 32 34 32 25 21
19 20 23 23 24 25 27 28 28 30 32 33 34 34 33 31 29 30 29 29 29 29 30 31 30 31 32 34 35 35 34 33 31 30 30 30 29 29 30 28 25 23 22
16 19 20 21 24 25 27 28 31 32 34 35 35 34 32 30 31 30 30 30 29 30 30 31 30 31 31 33 34 35 33 31 30 27 27 28 27 26 25 24 22 21 20
21 22 23 25 26 27 30 31 33 34 36 35 34 33 32 31 31 30 30 30 30 31 30 30 30 30 32 33 34 33 31 30 28 26 24 26 26 25 23 21 20 20 19

GFSMA_700_spd_123.txt.gz
Wind_Speed
31 31 29 26 27 25 24 22 20 18 15 13 13 11 10 8 6 5 4 4 5 6 7 8 8 9 10 11 12 13 14 14 13 15 19 20 18 15 14 13 13 15 16
32 32 30 29 29 28 26 24 20 18 16 14 11 9 6 5 3 1 3 5 7 9 10 11 11 11 12 12 12 13 13 13 12 16 21 20 20 20 21 22 20 17 17
34 33 32 31 31 30 27 24 21 19 16 13 10 6 3 1 1 3 5 8 10 11 12 13 13 14 16 15 13 13 15 13 10 19 21 22 26 25 28 23 18 16 16
36 36 34 34 34 31 28 25 22 19 15 13 10 7 5 4 5 7 8 9 10 10 11 13 13 14 17 16 14 14 17 14 14 21 27 28 27 27 25 23 18 15 14
39 38 35 37 35 32 28 25 22 18 15 12 10 8 7 6 8 10 12 11 10 12 15 12 13 11 11 11 13 13 17 17 20 23 26 25 27 25 27 24 19 15 14
41 40 39 39 36 32 30 25 22 19 15 13 11 9 8 8 11 12 11 11 11 15 13 12 10 10 10 11 10 12 15 17 16 21 22 23 26 28 25 22 20 18 15
43 42 41 40 36 33 29 25 23 20 17 15 13 10 10 11 13 11 10 13 12 10 14 14 11 10 10 10 12 15 16 19 21 23 21 20 26 20 23 25 19 20 17
45 41 40 39 35 35 31 27 24 20 18 16 14 12 13 14 13 11 11 12 11 13 16 13 8 8 12 12 11 15 18 21 21 20 22 20 19 23 21 23 17 19 19
44 42 39 37 37 36 32 27 25 22 19 17 14 14 16 15 14 14 11 11 13 15 15 13 13 11 9 13 11 17 16 18 17 17 17 13 18 21 22 21 14 16 18
44 42 39 40 40 37 33 30 27 23 20 17 16 17 18 19 14 13 16 14 15 16 16 13 13 14 15 14 14 15 16 17 18 17 16 14 17 19 19 21 17 18 17
44 42 41 42 42 39 36 32 28 24 22 20 17 17 16 19 15 15 13 13 14 16 16 14 13 12 12 13 14 14 17 18 18 19 18 18 20 19 20 22 21 16 16
45 44 43 45 44 40 37 32 29 26 25 22 18 19 21 20 23 20 16 15 15 16 16 16 17 15 15 16 16 17 19 18 18 18 20 20 21 20 20 22 14 19 24
48 46 46 47 44 41 37 34 31 29 27 23 17 21 31 29 24 24 21 18 16 16 15 18 18 18 18 19 20 21 22 23 23 22 22 23 21 21 21 21 20 24 22
44 42 43 43 42 40 39 36 33 30 28 23 16 19 19 19 24 27 23 19 19 19 18 18 17 17 18 21 24 26 27 26 26 25 26 27 25 24 22 22 20 22 23
42 42 40 41 41 41 39 36 34 32 28 24 21 28 26 27 25 25 22 22 21 21 20 19 21 21 20 22 24 27 27 28 28 27 25 27 27 27 22 24 21 21 23
39 37 39 39 41 40 40 37 36 34 33 29 30 31 38 29 27 26 23 24 24 22 22 22 23 24 24 25 26 26 26 27 28 28 29 27 27 26 27 25 26 25 24
39 40 39 40 40 41 40 40 41 39 34 37 33 40 36 31 27 26 24 25 24 24 24 26 25 26 26 26 26 27 26 28 29 29 29 29 27 27 27 27 27 26 24
37 36 38 39 39 40 41 41 41 41 39 45 44 45 37 30 28 26 24 25 26 26 26 25 26 26 27 28 27 27 29 30 30 31 31 31 29 28 28 27 26 28 22
31 30 33 37 37 39 40 41 41 39 45 44 47 33 33 29 27 25 25 27 27 29 28 28 27 27 28 28 29 30 30 30 31 30 30 30 29 28 27 27 24 23 19
34 39 43 46 41 39 41 43 45 50 44 50 52 58 30 29 25 26 26 27 29 30 30 30 29 29 29 30 31 31 31 32 31 31 30 32 31 28 28 25 24 20 23
19 24 45 44 35 42 55 52 62 46 57 35 28 27 27 26 25 26 27 29 30 30 31 31 31 31 31 32 33 33 32 32 32 32 31 32 31 28 26 22 21 27 30
22 24 26 31 34 29 30 28 29 25 33 28 28 27 28 27 28 28 29 30 31 31 31 31 31 32 32 32 32 33 33 33 32 33 32 32 32 29 22 23 24 27 32
23 23 24 21 20 21 23 25 25 24 24 25 27 28 28 29 30 31 32 32 33 31 31 31 31 32 32 32 32 33 33 33 32 32 31 32 29 27 26 27 30 31 32
15 17 19 25 28 15 14 18 21 24 27 28 29 31 32 34 34 34 34 34 33 32 32 31 31 32 32 32 31 32 33 33 32 31 31 32 29 26 26 27 27 28 26
17 18 20 18 14 18 25 25 24 25 30 31 31 36 35 33 35 36 36 35 33 32 32 32 32 32 32 31 31 32 32 32 32 30 30 31 27 25 24 24 25 25 21
19 20 20 21 22 21 22 23 24 25 26 26 31 33 35 36 37 37 35 33 33 33 32 33 32 31 31 31 32 32 30 31 31 31 30 29 27 25 25 24 23 21 20

GFSMA_700_spd_126.txt.gz
Wind_Speed
33 28 27 26 24 24 23 20 19 18 17 15 15 14 12 10 8 5 3 1 3 5 7 8 9 10 10 13 12 12 13 14 13 18 20 22 24 22 22 21 18 17 17
35 30 29 29 27 26 24 22 20 19 17 17 16 15 12 9 6 4 2 4 6 8 9 9 10 10 9 12 13 12 13 13 7 13 21 21 20 21 21 21 22 19 17
35 32 31 32 30 29 27 26 24 21 20 17 15 13 12 10 6 3 5 6 8 8 8 8 10 11 11 11 10 10 10 14 12 15 20 22 22 23 23 25 23 21 18
38 34 34 34 32 32 29 28 25 22 20 18 15 13 10 8 5 5 7 8 9 8 9 11 10 12 11 10 9 9 12 13 15 18 20 23 25 24 26 26 24 22 18
41 35 37 36 35 34 31 29 27 24 20 18 16 13 11 8 7 8 8 8 8 9 10 8 8 6 6 8 8 9 11 13 15 15 18 22 23 23 27 23 21 23 18
41 37 39 39 38 36 33 32 29 25 23 20 18 16 13 11 10 10 10 8 9 8 7 8 8 7 9 7 8 9 12 15 16 21 25 23 20 20 20 24 23 24 19
44 40 42 42 40 37 35 33 31 28 24 22 19 17 14 12 10 12 11 11 10 7 8 10 9 8 9 8 11 11 14 19 20 22 22 20 24 19 19 20 25 26 19
50 44 44 45 40 39 38 36 33 29 26 23 20 18 15 13 13 14 12 13 13 11 11 11 9 10 10 9 11 11 14 15 16 18 17 19 19 15 18 19 21 22 19
51 41 44 46 42 41 40 38 34 30 26 24 21 19 16 15 15 15 14 15 14 14 14 13 11 12 12 12 10 14 14 16 14 14 15 16 15 15 19 17 21 18 21
51 45 44 45 42 41 42 38 34 30 27 24 22 19 18 15 17 17 15 17 16 15 15 15 13 12 13 12 13 15 14 14 14 16 16 17 17 17 17 18 18 22 23
49 43 44 45 44 43 42 40 35 32 29 26 22 20 18 17 16 16 13 16 16 16 17 18 16 15 14 15 15 15 16 16 17 16 17 19 19 19 19 19 19 21 17
47 43 45 46 44 44 45 41 36 33 29 27 24 22 20 18 18 19 17 16 16 20 20 19 18 18 18 17 17 17 19 19 19 20 21 22 21 19 19 19 19 20 18
44 47 47 47 46 46 46 41 37 35 33 29 27 25 24 22 22 24 25 19 18 22 22 19 20 19 18 18 18 19 20 21 22 22 22 23 22 21 21 21 21 21 22
40 42 44 46 46 46 45 42 39 38 35 32 30 27 25 23 19 21 19 18 20 22 22 20 21 19 18 19 21 23 24 25 25 24 23 23 21 23 22 23 23 23 23
42 43 46 47 46 46 44 43 42 40 36 34 32 28 26 23 24 27 22 21 23 23 20 20 20 21 20 21 22 24 25 25 24 24 24 25 26 25 25 25 23 24 25
41 42 45 46 45 45 44 44 43 39 37 35 34 34 29 32 35 37 27 26 27 25 24 22 22 22 23 23 24 25 25 26 26 26 26 26 26 26 27 29 27 25 25
35 39 41 43 42 45 44 44 42 40 38 38 37 37 34 35 41 39 33 31 30 27 26 23 24 25 25 25 26 26 26 26 26 28 28 28 27 27 27 27 28 28 27
38 37 37 39 42 43 42 43 42 42 41 42 42 43 41 42 44 42 37 30 33 27 24 24 26 26 28 27 27 27 27 27 29 30 29 29 28 28 28 29 29 27 27
40 40 40 43 43 44 43 41 41 43 44 45 47 45 44 42 50 38 39 34 29 27 26 27 27 28 29 29 28 29 28 28 29 28 27 27 28 29 28 28 28 28 27
46 45 41 41 43 44 42 44 45 45 46 49 51 46 42 42 50 52 43 33 28 28 27 27 27 28 29 30 29 29 29 28 29 28 28 28 28 28 28 28 27 27 23
25 37 38 38 32 39 42 42 44 46 48 52 52 44 43 47 55 49 37 27 26 28 28 28 28 28 29 30 30 30 29 28 29 29 29 29 28 28 27 25 26 27 24
28 34 34 30 38 44 42 42 45 47 48 54 52 54 52 50 31 32 24 25 27 27 27 28 29 29 30 30 30 30 30 29 29 29 30 29 28 27 25 25 25 22 21
19 18 21 24 36 32 35 36 40 42 48 50 50 56 53 34 28 26 26 27 29 29 29 30 31 31 31 31 31 31 30 31 30 30 29 28 27 27 26 25 24 24 28
16 19 20 18 21 18 27 25 26 24 31 36 33 30 35 30 23 25 27 31 32 32 32 32 32 33 33 32 32 32 32 32 31 31 30 27 25 25 25 24 24 24 26
14 17 18 20 26 27 26 23 27 25 23 24 24 23 24 26 32 32 33 37 31 33 35 34 33 33 33 33 33 32 33 33 33 32 30 27 26 24 24 22 23 23 25
12 13 17 22 21 21 23 23 29 29 26 29 29 28 31 29 31 41 36 31 33 36 36 34 34 33 33 32 32 34 33 33 33 31 28 27 24 24 23 20 21 21 22

GFSMA_700_spd_129.txt.gz
Wind_Speed
29 29 26 24 23 21 19 18 17 16 16 17 15 14 13 11 10 7 4 3 4 6 8 9 10 9 10 10 11 10 11 11 7 11 16 19 21 22 23 24 25 24 22
31 30 29 26 25 23 21 20 18 18 18 18 16 15 14 12 10 7 5 5 7 8 9 9 8 10 11 11 12 8 8 10 7 10 15 18 22 25 25 26 25 24 23
33 32 32 29 27 26 24 24 23 22 21 19 18 16 14 12 10 7 6 7 9 9 9 9 11 11 12 11 9 7 9 10 11 13 15 19 23 25 25 24 23 22 22
34 35 35 32 30 29 27 26 25 24 22 21 20 18 16 14 10 9 8 8 10 10 11 11 11 11 9 9 8 10 13 13 14 14 16 22 23 23 23 24 21 21 22
36 37 36 34 33 33 29 28 27 25 24 23 20 19 18 15 12 11 9 9 11 10 11 13 11 10 9 11 7 9 13 13 15 17 18 20 21 20 23 23 20 21 23
39 38 37 36 36 36 33 31 30 28 26 24 22 20 19 16 13 11 11 11 11 12 11 10 12 12 11 10 12 11 13 15 17 20 20 18 20 19 16 18 20 20 22
40 39 39 38 39 38 34 33 33 32 31 28 25 23 19 17 14 13 13 12 13 12 11 11 12 13 12 13 13 16 16 17 19 17 18 19 18 15 16 15 15 18 18
43 44 42 40 41 42 39 37 36 35 33 30 26 23 22 19 16 15 15 14 14 15 15 14 13 15 15 15 14 14 15 16 18 16 16 16 15 15 15 14 14 16 16
48 48 47 46 47 45 41 38 39 36 33 30 27 26 23 20 17 17 17 16 15 16 17 17 16 17 16 15 16 16 14 18 16 16 16 16 15 15 16 17 16 17 18
51 51 54 49 44 46 44 41 39 37 35 32 29 25 23 20 19 19 18 16 16 16 16 17 18 18 16 16 16 15 15 16 17 17 17 17 16 15 17 17 17 17 18
52 51 60 44 55 46 45 43 42 40 37 33 29 26 23 21 20 21 18 16 18 18 17 18 17 19 19 18 18 17 17 17 17 18 18 19 19 19 18 17 18 18 17
58 58 54 53 46 47 47 44 43 41 38 35 31 28 25 24 22 21 18 17 20 22 21 20 20 20 22 20 18 17 17 18 18 19 20 21 21 20 18 18 18 20 20
56 60 59 55 44 43 47 47 47 44 41 37 32 29 28 27 25 24 21 20 19 20 21 22 22 22 23 21 18 18 19 20 21 20 21 21 22 20 19 18 19 19 21
61 51 59 46 46 45 48 48 48 47 43 39 35 33 30 30 29 27 22 17 19 20 21 23 24 24 24 21 19 20 22 23 23 21 21 21 21 20 20 19 20 20 21
66 63 50 47 41 44 47 47 50 48 45 41 38 36 34 33 31 30 27 21 22 23 28 28 29 27 24 21 21 21 23 23 23 21 21 21 21 21 20 20 21 21 21
44 62 53 41 39 42 46 47 50 49 46 43 41 38 37 36 35 32 30 29 32 33 44 36 30 30 26 23 22 24 23 23 23 22 21 22 21 20 21 22 22 23 22
45 46 43 40 38 41 44 47 49 47 46 44 43 40 39 39 37 39 41 39 38 38 42 37 31 32 29 26 25 24 24 22 24 25 23 23 23 22 22 23 23 24 25
43 47 38 39 39 39 41 47 47 47 47 46 42 39 43 41 43 42 44 43 42 40 48 37 32 32 31 29 27 26 24 24 25 25 25 24 23 23 23 24 25 24 25
42 32 36 37 41 38 40 42 44 45 46 44 44 45 44 45 47 47 47 48 47 48 52 37 33 33 32 29 27 25 25 26 26 26 26 26 26 25 25 26 26 26 26
45 39 40 38 38 40 39 39 40 44 46 47 50 45 47 49 51 50 51 48 47 46 47 51 39 32 30 28 27 25 26 26 27 26 26 26 26 25 25 26 26 26 26
29 33 37 39 40 40 40 41 44 44 46 50 56 46 49 51 53 58 52 50 48 53 49 50 27 27 28 29 27 26 27 27 28 28 27 27 27 25 25 26 26 26 26
23 38 39 36 42 39 39 41 44 49 56 56 57 51 49 55 60 61 62 39 48 49 43 24 22 26 28 28 28 28 28 28 28 28 27 27 26 26 26 26 26 26 26
22 21 29 34 42 45 50 49 49 51 47 45 49 50 52 57 52 53 63 52 50 50 29 27 23 28 29 29 29 29 29 29 28 29 27 27 28 27 26 26 27 26 25
6 6 21 27 24 21 26 26 30 45 54 38 46 50 57 51 49 49 62 49 38 30 28 26 28 28 29 29 29 29 29 29 29 29 28 26 28 27 28 27 26 26 25
5 9 12 12 13 18 22 25 26 27 29 34 35 38 44 48 44 35 36 35 31 32 29 28 32 29 30 30 30 30 30 29 28 28 29 28 27 27 27 27 26 25 25
13 15 15 16 18 22 26 24 22 24 24 28 25 30 28 30 35 32 35 35 35 34 29 37 30 28 30 30 29 29 29 29 29 29 29 29 28 28 27 25 24 23 22

GFSMA_700_spd_132.txt.gz
Wind_Speed
26 25 23 23 20 19 17 15 14 15 16 16 15 14 13 11 10 8 6 4 5 6 8 9 10 10 12 11 11 9 7 8 7 9 14 16 20 23 25 25 24 21 22
27 26 25 25 24 22 20 18 16 17 17 17 16 15 14 13 12 9 7 6 8 9 9 9 10 12 12 11 9 7 6 9 10 11 15 19 22 23 23 23 22 21 21
28 27 27 27 26 25 24 22 21 21 20 20 19 18 16 15 13 10 8 8 9 11 11 11 12 12 11 10 10 9 10 11 12 13 14 16 20 22 21 23 23 18 19
30 29 29 28 29 28 28 26 23 22 22 21 21 19 18 17 15 12 10 10 11 12 12 12 12 11 10 10 11 11 12 13 14 14 16 20 22 21 20 18 18 15 17
33 30 29 31 33 31 31 29 26 25 23 23 23 22 20 19 16 13 12 11 12 12 12 12 11 11 11 12 14 12 13 16 16 16 19 21 19 19 17 16 14 15 17
38 36 33 35 36 34 34 32 29 27 25 25 25 25 23 21 18 15 13 12 13 14 14 14 12 13 14 13 13 15 16 18 18 18 20 18 17 17 15 13 11 14 15
50 44 38 38 39 37 35 33 32 31 30 29 28 28 25 24 20 17 15 14 14 13 14 15 14 15 16 16 15 14 15 19 18 18 19 17 16 15 13 12 11 13 16
46 41 43 38 41 39 39 38 36 34 34 33 30 28 27 26 22 18 16 16 15 15 14 15 15 16 17 17 16 16 16 16 15 17 17 17 18 16 14 12 12 14 15
40 41 43 42 43 41 41 40 39 37 35 34 32 31 29 26 22 20 18 17 17 16 15 15 15 16 17 18 17 17 17 16 16 17 18 18 18 17 15 14 14 13 13
46 36 44 40 43 45 44 40 40 40 38 37 35 33 30 28 25 22 19 18 18 17 16 14 14 16 18 19 16 17 19 16 16 16 18 18 18 19 17 17 15 14 12
54 51 43 37 48 48 49 46 43 43 41 39 36 33 31 29 26 23 21 20 20 18 18 18 17 19 20 20 19 17 18 18 17 17 17 18 18 19 18 17 15 15 13
48 56 42 44 38 49 54 48 51 46 43 41 39 36 33 31 26 24 23 22 21 20 19 19 18 21 22 21 21 18 17 17 17 17 18 19 19 18 17 16 15 14 13
54 52 48 45 45 43 45 48 45 47 47 44 41 38 35 33 30 28 26 25 23 20 16 16 16 19 23 24 25 23 18 20 19 19 18 19 19 18 17 17 16 16 14
56 52 48 46 48 47 50 49 59 52 50 47 45 41 38 35 32 31 29 26 25 22 17 15 17 25 29 29 28 27 23 21 22 21 20 19 19 19 18 18 18 17 16
59 57 54 46 50 42 48 53 49 55 52 48 45 43 41 39 36 34 32 29 30 27 22 24 26 28 29 30 29 27 28 25 24 22 21 20 20 21 19 19 19 18 17
58 60 56 51 47 42 50 55 47 52 47 48 49 47 45 42 39 36 35 31 33 32 32 31 31 34 33 34 32 30 29 27 25 23 21 21 21 22 21 21 21 20 19
54 58 53 52 49 47 48 55 47 47 48 49 50 49 47 44 41 39 39 35 37 38 35 42 43 43 38 38 41 35 30 29 28 25 23 22 23 22 21 21 21 21 21
43 44 48 51 48 56 46 46 40 43 46 47 49 50 47 46 42 42 42 37 38 44 47 43 44 43 47 39 41 35 33 30 29 27 24 24 23 22 22 22 23 22 22
33 38 39 50 53 54 56 44 40 38 40 42 47 48 47 45 47 43 44 44 44 52 48 48 51 48 44 52 46 37 35 33 29 27 26 24 22 22 22 23 23 22 22
33 30 39 32 35 44 42 41 39 36 42 45 44 44 45 50 50 48 48 46 50 52 45 52 51 55 52 45 47 46 36 31 29 28 26 24 23 22 23 24 23 23 23
25 27 30 30 40 36 37 34 37 43 48 45 41 46 50 51 53 61 60 57 56 58 53 55 57 61 51 47 42 28 30 30 28 27 25 25 23 24 24 24 24 23 22
21 24 27 29 36 36 34 36 38 36 36 41 45 44 50 55 53 53 55 58 68 53 56 59 58 56 52 43 32 25 27 28 29 26 25 24 25 25 25 24 24 23 23
18 13 11 23 31 34 33 34 36 37 38 44 50 51 57 60 56 57 61 62 60 57 63 64 49 54 37 31 28 27 27 28 29 29 27 26 26 26 26 25 25 24 23
14 6 8 12 26 25 28 30 34 40 47 51 50 49 53 58 64 65 59 56 56 57 54 53 50 42 44 37 32 27 26 29 30 28 28 27 27 26 25 24 24 24 25
2 2 1 2 7 14 15 24 22 24 30 30 27 34 42 46 46 46 53 53 55 53 57 57 44 45 39 35 33 26 23 28 29 28 27 27 26 26 24 24 24 26 26
1 2 6 10 15 18 20 24 25 31 32 30 30 35 29 24 35 39 44 41 45 47 50 43 38 37 36 32 36 26 20 24 27 27 28 27 26 26 25 25 25 25 26